GFSGBSN_sfc_temp_000.txt.gz
Temp
60 60 60 60 59 59 60 60 59 58 57 57 57 58 58 58 58 57 57 57 57 57 57 58 58 58 54 61 63 75 71 73 73 74 70 67 64 59 56 57 58 56 55 59 59 60 57
60 60 59 59 59 59 60 59 58 57 57 57 57 57 57 58 58 57 57 57 56 56 57 57 58 58 58 58 72 74 74 75 72 70 68 69 63 61 60 58 57 57 56 56 57 58 57
60 60 59 59 59 58 59 58 57 57 57 57 57 57 57 57 57 57 57 56 56 56 57 57 58 58 63 63 70 71 75 68 69 69 67 66 65 64 60 57 61 58 55 56 58 56 55
60 60 60 59 58 58 58 57 57 57 57 57 58 57 57 57 57 57 57 56 56 56 56 57 58 59 60 73 70 74 73 72 73 71 69 67 68 64 60 58 57 53 51 46 57 55 56
60 60 59 59 58 58 58 57 57 57 57 57 57 57 57 57 56 56 56 56 56 56 56 56 58 63 59 75 72 72 71 68 71 71 70 73 66 57 57 50 47 46 40 43 50 54 53
60 59 59 59 58 58 58 57 56 56 57 57 57 57 57 57 56 55 55 56 56 54 57 63 67 61 68 64 69 71 69 70 67 65 65 63 55 51 49 47 39 39 41 37 40 51 52
59 59 59 59 58 58 59 58 56 56 56 57 57 58 57 57 57 55 53 52 60 60 63 58 58 60 63 70 70 69 67 67 65 61 53 55 50 44 46 47 49 47 43 41 43 50 49
58 58 58 58 58 58 58 58 56 56 56 56 57 57 57 57 57 55 56 59 57 60 55 62 63 63 67 66 63 67 69 62 59 51 52 52 46 50 54 52 50 47 43 42 47 50 46
58 58 58 58 58 58 58 57 56 56 55 56 56 56 56 56 58 59 59 57 62 60 54 61 63 62 64 68 60 62 65 58 56 53 50 47 50 55 53 49 48 45 43 42 44 47 45
58 57 57 57 57 57 56 56 56 56 55 55 56 56 56 58 62 57 58 59 60 60 44 53 61 64 67 64 59 64 64 60 57 50 50 50 54 53 50 49 47 41 49 47 45 41 38
57 57 57 57 56 56 55 55 55 56 55 55 55 55 57 63 60 58 60 59 60 60 29 56 60 69 65 61 58 63 63 61 51 50 51 47 49 49 49 48 49 47 49 45 44 40 38
57 57 57 56 56 55 55 55 55 55 55 55 55 55 57 62 58 56 59 57 60 39 32 51 58 58 58 58 58 60 58 61 56 52 52 48 53 51 49 52 50 52 46 45 42 39 32
57 57 57 56 56 55 55 55 55 54 54 55 54 57 61 60 58 58 57 57 41 32 53 49 51 56 53 52 53 54 50 47 43 41 39 47 48 52 53 48 51 48 39 29 29 27 28
56 56 56 56 56 55 55 55 55 54 54 54 55 58 58 59 57 58 57 48 36 45 47 54 53 52 49 51 50 50 47 43 48 45 38 37 36 48 54 47 43 43 40 28 25 22 27
56 56 56 56 56 55 55 55 55 54 54 54 57 56 55 58 58 57 52 34 37 45 50 50 52 47 46 50 49 47 43 43 45 46 39 35 39 50 50 49 48 43 36 42 31 22 23
56 56 56 56 55 55 54 55 55 55 54 54 57 54 55 57 57 55 42 41 46 52 53 52 44 46 41 46 45 44 43 48 46 49 47 42 36 45 49 50 51 47 48 35 31 20 22
55 55 55 55 54 54 55 55 55 54 54 55 56 52 58 56 57 49 36 38 50 53 54 50 47 45 45 43 45 42 43 48 50 49 49 44 41 41 45 43 40 42 37 38 38 32 23
55 54 54 54 54 54 55 55 54 54 53 56 51 47 58 57 49 40 42 49 51 52 55 52 51 49 46 45 43 43 43 46 51 49 43 44 37 31 38 45 46 43 40 39 27 29 28
54 54 54 54 53 54 54 54 53 53 53 54 50 50 56 57 38 32 47 50 51 51 51 50 48 49 49 43 40 44 46 49 50 48 43 44 35 28 36 41 43 40 41 40 35 31 31
53 54 54 54 53 54 54 50 51 54 53 52 50 42 47 48 45 47 45 45 47 53 51 50 49 50 47 44 45 41 43 48 50 48 49 48 38 35 28 35 38 35 39 40 37 31 31
53 54 53 53 53 54 51 50 52 53 52 54 47 43 46 38 41 45 46 47 46 46 51 51 48 48 45 38 39 38 43 46 48 49 45 44 35 36 38 40 39 39 38 38 34 36 33
53 53 52 51 52 52 50 50 51 53 53 51 47 46 45 43 47 46 41 44 47 47 49 46 46 46 46 41 42 38 42 41 42 44 40 41 32 32 32 36 36 33 37 37 37 36 36
52 53 51 51 52 52 50 49 50 52 54 50 46 47 49 38 40 38 38 46 48 49 49 50 49 45 39 46 48 47 48 47 44 41 39 38 30 29 26 32 31 28 34 35 36 39 38
52 52 52 52 53 53 49 49 52 52 52 51 48 47 41 34 32 40 46 47 47 47 47 49 49 42 49 51 49 46 44 41 41 41 43 32 28 28 24 32 23 39 43 44 39 41 43
52 52 52 53 53 53 50 50 52 52 52 51 48 49 41 33 36 41 46 46 46 47 45 47 48 48 49 45 35 31 31 32 32 38 36 37 32 29 29 29 32 40 42 37 36 36 42
52 52 52 52 52 52 52 52 52 52 52 52 49 47 45 37 39 48 45 45 37 35 37 42 47 48 45 31 30 23 24 30 32 35 37 36 30 27 28 26 24 36 40 43 41 30 40
51 51 52 52 52 51 52 52 51 51 52 53 50 49 48 38 45 47 41 42 43 38 38 36 42 40 41 30 28 23 27 33 28 24 24 27 29 31 31 27 29 39 42 45 31 33 43
51 51 51 51 51 51 51 52 51 51 52 53 50 51 49 39 44 49 50 46 43 41 36 41 40 36 36 33 29 29 20 29 29 33 30 31 25 22 26 25 23 41 42 36 42 43 45
51 51 50 50 50 50 51 51 51 51 51 52 50 51 50 46 47 48 50 51 51 51 45 39 42 40 37 33 33 29 26 29 31 30 35 31 36 33 35 31 41 46 46 48 48 43 41

GFSGBSN_sfc_temp_003.txt.gz
Temp
60 60 60 60 59 60 60 60 59 58 58 57 58 58 59 59 59 58 57 57 57 57 57 57 58 58 58 68 70 80 70 74 77 77 73 72 69 67 64 66 66 65 66 66 68 66 68
60 60 59 59 59 59 60 59 58 57 57 57 57 57 57 58 58 58 57 56 56 56 57 57 58 57 65 63 79 77 75 78 78 78 74 74 71 70 67 65 65 66 66 65 67 67 67
60 60 59 59 59 59 59 58 57 57 57 57 57 57 57 57 58 57 56 56 56 56 56 57 58 57 68 69 78 76 77 77 77 78 74 74 74 72 68 65 65 64 63 64 64 64 65
60 60 60 59 58 58 59 58 57 57 57 58 58 57 57 57 57 56 56 56 56 56 56 57 57 58 66 77 76 77 78 78 78 77 76 74 73 68 66 67 63 60 60 58 63 64 64
60 60 59 59 58 58 58 57 57 57 57 57 58 57 57 56 56 56 56 56 56 56 56 56 59 67 66 77 75 76 76 75 76 75 72 73 70 63 64 60 58 56 54 54 58 60 61
60 59 59 59 58 58 58 57 56 56 57 57 58 57 57 57 56 55 55 56 57 56 57 59 67 66 71 68 72 73 75 74 71 72 71 68 63 61 59 59 50 51 52 53 52 60 59
59 59 59 58 58 58 58 57 56 56 56 57 57 58 58 57 56 54 58 61 64 64 66 63 63 63 67 73 74 70 72 73 70 66 60 60 59 53 54 56 56 55 53 51 55 57 56
58 58 58 58 58 58 58 57 56 56 56 56 57 57 57 57 56 55 57 62 63 65 60 64 65 66 69 70 65 69 73 67 63 57 60 59 53 58 57 57 56 55 52 52 55 56 56
58 58 58 58 58 58 57 57 56 56 55 56 56 56 56 56 55 59 61 62 65 66 58 63 65 66 68 70 61 63 67 64 60 56 54 53 57 58 58 54 53 52 52 51 51 54 55
57 57 57 57 57 57 56 56 56 56 55 56 56 55 56 57 61 61 61 64 63 64 48 55 63 68 68 67 61 68 66 65 60 56 56 56 58 56 55 53 53 49 54 52 50 50 49
57 57 57 56 56 55 55 55 55 55 55 55 55 55 57 62 61 61 64 62 63 61 34 58 62 73 66 62 62 65 66 64 55 54 57 53 55 54 53 53 55 52 53 51 51 50 49
57 57 57 56 56 55 55 55 55 55 54 55 55 56 57 62 59 61 61 62 61 43 35 54 61 59 59 58 59 61 60 63 61 56 56 54 59 57 56 57 56 55 52 50 49 48 42
56 56 56 56 55 55 55 55 55 54 54 55 55 58 61 61 61 60 59 59 45 36 55 52 54 57 54 53 54 55 52 50 48 48 43 51 53 57 57 54 57 54 48 42 40 39 39
56 56 56 56 55 55 55 55 55 54 54 54 55 57 57 59 58 59 59 51 39 47 50 56 55 54 51 53 52 52 51 48 51 49 44 43 44 52 56 53 50 49 47 39 32 34 37
56 56 56 55 55 55 55 55 55 54 54 54 56 57 57 58 58 58 55 38 41 47 54 54 54 50 50 53 52 50 48 48 50 50 45 42 44 54 54 55 54 50 44 47 37 27 34
56 56 55 55 54 54 54 55 55 54 54 54 57 56 57 57 58 56 45 43 49 54 55 55 48 50 46 48 49 48 48 52 50 51 53 47 42 50 53 56 55 53 52 43 41 31 30
55 55 55 54 53 54 54 55 54 54 53 54 55 55 59 57 58 51 41 43 51 55 56 54 50 48 49 48 49 47 47 51 52 53 53 50 46 46 50 48 47 49 46 44 44 39 33
54 54 54 53 53 54 54 54 52 53 53 56 52 50 58 58 50 43 45 52 52 54 56 54 53 51 49 48 47 47 46 50 52 54 49 49 43 39 45 50 52 50 47 45 38 34 37
54 54 54 54 53 54 54 51 51 54 53 55 52 52 57 58 41 37 50 51 53 53 51 52 51 52 51 47 43 48 49 52 51 53 50 50 41 36 41 47 50 47 47 44 41 38 36
54 54 54 54 53 54 51 51 52 53 53 53 51 44 49 49 48 48 47 48 49 53 52 51 51 52 49 46 47 46 47 52 52 52 48 50 42 40 37 41 45 40 43 44 43 36 38
54 54 53 52 52 52 50 50 50 53 52 54 49 45 48 41 45 48 49 50 48 48 53 53 51 50 48 41 44 44 48 50 51 50 49 48 40 41 42 44 43 42 42 42 40 42 36
53 53 52 51 51 50 50 50 51 52 52 51 49 48 46 44 48 48 43 48 48 49 51 49 48 49 50 45 47 44 48 47 47 50 47 45 39 38 35 39 39 35 41 41 41 42 41
53 53 52 50 51 50 50 50 51 52 53 52 47 49 50 39 42 42 42 49 50 51 50 53 51 48 44 50 52 54 52 49 50 48 43 42 37 34 32 35 35 33 40 41 43 45 45
52 52 52 52 53 52 50 50 52 52 52 52 49 49 44 37 36 42 48 50 49 50 49 51 52 45 52 54 53 49 46 45 46 44 46 34 34 33 32 34 28 45 48 48 45 46 47
52 52 52 52 52 53 52 51 51 52 52 52 49 50 44 34 38 43 47 47 49 49 47 50 50 50 53 48 39 35 36 36 36 39 40 41 35 32 30 32 36 43 47 44 42 44 47
51 51 52 52 52 52 52 51 51 51 52 52 50 48 47 38 41 49 47 48 41 41 42 45 50 49 48 37 35 32 33 34 38 39 39 38 35 35 31 28 27 40 47 49 48 37 48
51 51 52 52 52 51 51 51 51 51 52 54 51 50 50 40 47 50 45 45 46 43 42 41 46 43 46 35 32 33 35 37 34 29 29 31 31 31 32 30 35 44 46 48 34 36 44
51 51 51 51 51 51 51 51 51 51 51 54 51 51 51 42 47 51 52 47 46 45 40 44 43 40 38 34 33 33 32 36 35 38 35 36 32 29 29 28 26 46 46 39 44 44 46
50 50 50 50 50 50 50 50 51 51 51 53 52 51 50 48 50 50 53 55 55 53 46 42 46 42 41 36 34 33 32 29 33 33 40 34 39 36 36 37 46 48 48 49 46 44 42

GFSGBSN_sfc_temp_006.txt.gz
Temp
60 60 60 60 60 60 60 60 59 59 58 58 58 58 59 60 60 59 58 57 57 57 57 58 58 59 66 78 78 91 72 80 89 89 87 85 83 80 75 77 79 75 76 77 77 76 77
60 60 60 60 60 60 60 60 59 58 57 58 57 57 58 59 59 58 58 57 56 56 57 58 58 58 77 72 90 91 89 90 91 91 87 88 83 84 77 75 76 75 76 75 75 75 75
60 60 60 59 59 59 60 59 58 57 58 58 57 57 57 58 58 58 57 56 56 56 57 58 58 68 81 77 90 92 89 89 89 89 85 84 85 82 81 75 75 75 71 75 74 74 72
60 60 60 59 58 58 59 58 57 58 58 58 58 58 57 57 57 57 57 56 56 56 57 57 57 71 76 88 93 90 91 87 88 88 86 85 87 81 78 77 75 73 73 67 71 74 73
60 60 60 59 58 58 58 57 57 57 58 58 58 58 57 57 56 56 56 56 56 57 57 57 71 80 74 83 84 87 87 84 85 85 84 83 83 77 77 74 71 71 66 64 66 72 71
60 60 59 59 58 58 58 57 56 56 57 58 58 58 58 57 57 56 56 56 57 59 65 70 79 77 80 76 82 83 87 84 82 81 81 80 81 76 76 74 63 62 63 65 64 69 71
60 60 59 59 58 58 58 58 56 56 56 58 58 59 59 58 57 55 60 74 76 75 81 73 74 74 77 83 85 83 82 82 82 80 72 74 73 65 65 66 66 65 63 62 66 67 64
58 59 59 58 58 58 58 57 56 56 56 57 57 58 58 58 57 56 71 78 73 78 71 76 76 78 79 80 76 80 86 77 75 69 71 71 62 66 67 66 64 63 61 61 64 64 64
58 58 58 58 58 58 58 57 56 56 56 56 57 57 58 56 55 65 77 73 76 77 72 72 75 76 76 80 70 73 79 75 72 68 69 65 64 66 65 65 62 62 60 58 58 64 66
57 57 57 57 57 57 57 57 56 56 56 56 56 56 57 55 65 76 74 75 76 74 65 64 70 75 77 77 69 78 77 73 69 65 67 65 66 63 64 61 62 58 62 60 59 59 59
57 57 57 57 56 56 56 56 56 56 55 55 56 57 56 59 76 78 73 76 75 75 47 65 70 81 77 71 70 72 76 76 65 63 66 59 62 62 61 59 62 58 61 59 59 60 59
57 57 57 56 56 56 56 56 55 55 55 55 55 57 58 71 77 72 75 74 75 58 44 61 69 67 68 69 68 72 72 75 70 67 68 63 67 66 63 63 63 63 59 59 60 60 51
56 56 56 56 56 56 56 56 55 55 54 55 56 58 69 75 74 73 73 75 60 50 61 59 62 66 64 61 63 65 63 60 60 56 55 61 61 65 65 62 65 65 59 51 46 47 47
56 56 56 56 56 55 56 55 55 54 54 55 56 59 61 71 75 72 76 67 49 55 58 64 64 64 59 61 61 62 61 59 62 61 59 54 51 60 63 60 57 58 57 47 37 42 48
56 56 56 55 55 55 55 55 55 54 54 54 57 72 73 69 71 73 73 54 54 59 64 62 63 59 57 60 61 60 58 57 58 60 54 53 52 62 61 63 62 57 52 56 45 36 42
56 56 55 54 54 54 55 54 54 54 54 55 75 74 72 69 70 74 65 52 58 62 64 65 57 59 55 57 57 58 56 58 57 60 62 55 50 57 60 63 63 60 60 50 52 35 36
56 55 55 54 54 54 54 53 52 54 54 55 73 70 69 69 71 72 58 57 60 63 64 62 59 56 57 56 58 55 54 58 60 60 63 58 54 53 57 56 55 57 55 53 53 49 40
55 54 54 54 54 54 53 51 53 53 54 64 68 64 69 69 65 64 61 62 56 62 65 63 63 60 58 56 55 54 53 57 60 61 55 57 53 49 52 57 59 58 54 53 45 40 45
54 54 54 54 53 53 50 51 52 53 54 72 70 68 71 69 55 53 60 59 61 62 60 61 59 61 61 56 51 55 56 58 60 60 57 58 51 46 49 53 57 54 55 54 50 47 41
54 54 54 54 53 51 50 50 51 53 53 71 69 57 66 69 65 63 60 58 57 62 60 62 59 62 59 56 58 53 54 57 58 59 48 55 53 48 45 49 53 49 52 54 51 41 44
54 54 53 51 51 50 50 51 52 53 53 69 68 60 60 55 58 63 62 60 58 56 61 62 60 60 58 51 53 52 56 56 57 53 57 57 47 50 52 53 53 51 50 52 50 49 42
54 54 52 51 51 50 50 51 52 52 53 68 65 62 62 59 60 62 53 59 59 57 60 58 58 59 61 55 56 52 56 56 55 57 56 55 46 44 43 49 51 47 51 52 51 52 51
53 53 52 51 51 50 50 51 52 52 56 69 62 63 68 48 56 58 57 60 60 61 58 63 62 60 53 60 63 61 61 60 58 55 51 50 46 41 37 44 43 37 46 51 52 53 52
53 52 51 53 53 51 50 52 52 52 56 69 65 67 60 50 55 59 59 61 60 60 58 60 63 56 59 63 62 61 58 56 56 53 54 40 43 38 35 36 31 48 57 56 52 54 57
52 52 53 53 53 53 52 52 51 52 52 66 63 66 59 38 57 55 59 59 59 60 58 59 58 58 64 61 51 40 45 38 42 49 49 51 44 35 32 36 44 49 53 51 49 49 55
51 52 53 53 52 52 51 51 51 51 52 65 61 61 63 44 52 61 59 61 56 55 55 53 57 60 60 51 45 36 41 43 45 46 46 46 44 41 35 30 30 48 53 56 55 43 53
51 51 52 52 52 52 52 51 51 51 52 65 61 59 66 54 59 60 59 58 60 58 56 55 55 51 57 42 37 39 42 46 43 36 36 36 35 34 35 32 41 54 54 55 36 41 50
51 51 51 51 52 52 52 51 51 51 52 62 59 59 63 55 59 60 60 58 58 62 53 54 54 51 46 38 36 40 36 45 44 48 44 42 38 34 35 30 29 54 53 40 50 49 45
50 50 50 51 51 51 51 51 51 51 51 56 64 59 59 62 59 59 61 62 63 67 61 55 56 55 56 45 40 38 34 34 40 38 51 42 47 45 43 45 57 59 54 55 50 47 50

GFSGBSN_sfc_temp_009.txt.gz
Temp
61 61 61 61 60 61 61 61 60 59 59 58 58 59 59 60 61 60 59 58 58 58 57 58 59 59 69 78 82 96 77 79 91 95 93 90 86 85 79 82 83 78 80 82 83 82 82
60 61 60 60 60 60 60 60 59 59 58 58 58 58 58 59 60 59 58 58 57 56 57 58 58 58 75 75 94 97 96 97 96 95 92 92 87 89 83 82 81 82 81 81 81 81 80
60 60 60 60 59 59 59 59 58 58 58 58 58 58 58 59 59 59 58 57 57 56 57 58 59 72 79 81 96 98 95 94 95 94 89 91 92 87 86 78 84 81 75 79 79 80 78
60 60 61 60 59 58 58 58 58 58 58 59 59 58 57 57 57 57 57 57 57 57 58 58 59 77 79 93 99 94 96 93 95 95 92 93 93 87 84 85 81 77 78 70 77 79 79
60 60 60 59 59 58 58 57 57 58 59 59 59 59 58 57 57 57 57 57 57 58 58 59 71 77 77 82 88 92 93 89 91 91 91 90 90 84 81 76 73 75 68 69 70 78 77
60 60 60 59 59 59 59 57 57 57 58 59 60 59 58 58 57 57 57 57 58 59 64 79 85 79 83 80 86 88 93 90 87 86 84 84 84 79 80 76 64 68 68 71 70 74 76
60 60 60 59 59 59 59 58 57 57 57 59 59 60 59 58 58 57 60 76 78 76 84 78 80 78 82 87 90 87 89 88 87 84 76 80 76 71 70 72 72 71 69 68 72 73 70
59 59 59 59 59 58 59 58 57 57 57 58 59 60 59 59 57 57 69 81 78 84 73 82 82 82 84 86 79 84 91 81 79 74 77 75 67 71 73 72 70 69 67 66 70 71 70
58 58 59 59 58 58 58 58 57 57 57 57 58 59 59 57 56 64 83 80 87 85 75 75 80 80 80 85 76 77 85 82 77 73 74 70 69 72 70 70 67 67 65 64 64 70 73
58 58 58 58 57 57 57 57 57 57 57 57 57 58 57 55 64 83 80 84 85 82 68 68 74 78 81 81 72 83 83 79 75 71 73 69 71 68 68 66 68 63 67 65 64 64 61
58 58 58 57 57 56 57 56 56 56 57 57 57 57 56 56 82 82 81 86 84 80 50 69 73 85 82 75 76 76 85 80 71 70 70 64 66 66 64 64 67 63 67 65 65 64 65
58 58 58 57 57 56 56 56 55 56 56 57 56 59 57 72 82 81 84 83 80 62 47 64 73 72 72 74 74 77 77 81 78 72 73 68 73 70 68 69 68 70 66 66 66 65 53
58 58 57 57 57 56 56 56 55 55 56 57 57 59 64 84 79 82 81 79 62 52 68 63 66 70 70 68 68 72 69 67 67 60 61 67 66 70 70 67 70 70 64 53 49 50 49
57 58 57 57 56 56 56 55 55 55 55 57 58 60 67 80 85 79 79 70 52 61 64 71 70 70 64 68 66 67 67 64 68 68 66 60 54 65 69 64 61 63 62 50 41 46 52
57 57 57 56 56 55 55 55 54 54 55 57 58 79 79 76 78 79 75 57 59 64 69 67 69 64 62 65 66 65 63 63 64 66 60 58 57 67 66 69 67 62 57 62 50 46 45
57 57 56 55 55 55 55 54 54 54 55 58 81 79 78 76 77 77 68 56 64 69 71 72 62 64 60 63 63 63 62 64 62 66 69 61 54 63 65 68 68 64 66 53 55 38 39
56 56 56 55 54 54 53 52 54 54 55 59 78 73 73 78 76 75 61 63 65 70 71 67 64 62 64 61 64 61 60 63 65 65 68 64 59 58 63 61 60 62 60 57 58 52 42
55 55 55 55 54 53 51 51 53 54 55 59 74 68 76 77 69 71 64 67 60 68 71 68 69 67 64 63 60 60 59 62 66 66 60 62 59 51 58 63 65 63 59 58 47 45 49
55 55 55 55 54 51 51 51 52 53 54 81 75 72 77 75 59 59 66 64 68 67 67 67 64 67 68 63 56 61 61 63 64 64 60 63 56 49 54 58 62 58 60 59 55 50 44
55 55 55 53 52 51 51 51 52 53 54 72 75 61 71 74 74 68 64 64 61 68 66 68 66 68 65 61 64 59 59 61 63 64 51 57 58 52 47 53 59 54 57 60 56 45 46
54 54 53 51 51 51 51 51 53 53 54 72 77 67 69 60 64 69 69 67 63 61 67 70 64 65 63 56 59 58 62 60 62 52 61 61 50 55 56 59 59 57 56 57 55 55 46
54 54 51 51 50 51 51 52 53 53 53 77 72 68 71 68 69 67 59 64 64 64 66 63 63 66 66 58 61 57 61 61 59 61 60 60 49 49 47 57 57 52 56 58 58 57 56
54 53 51 51 50 51 51 53 52 52 55 78 75 74 73 55 66 63 63 65 66 66 63 70 68 65 59 64 67 67 66 65 63 60 55 54 50 46 40 49 46 38 51 56 57 59 56
53 52 51 54 53 51 53 52 52 52 54 77 74 77 64 56 62 65 66 67 66 66 63 68 70 61 64 71 69 66 64 62 62 59 61 49 48 42 36 38 32 53 63 61 57 58 61
52 52 53 54 53 53 52 52 52 52 53 75 73 74 64 43 65 64 66 67 65 66 64 64 63 67 71 66 55 45 46 39 46 56 56 58 49 38 34 39 47 53 55 54 51 51 61
52 53 53 53 53 53 52 52 52 52 53 72 68 69 71 48 56 69 66 66 61 59 59 58 63 68 67 56 48 37 43 49 48 50 54 52 50 45 37 32 32 50 59 61 59 44 57
52 52 53 53 53 52 52 52 52 52 53 68 69 66 73 59 67 69 63 63 69 65 61 60 60 57 64 45 40 40 46 53 46 39 36 38 38 37 37 34 43 57 58 60 40 43 55
51 51 52 52 52 52 52 52 51 52 52 63 68 67 68 62 63 66 68 65 65 67 55 61 58 57 54 39 40 44 38 49 48 54 47 43 38 34 38 33 32 59 57 44 54 57 54
50 51 51 51 52 52 52 52 52 52 52 54 72 69 69 69 64 66 66 68 68 72 68 62 62 60 60 52 45 44 37 38 43 42 59 46 51 47 47 47 60 59 56 59 58 53 51

GFSGBSN_sfc_temp_012.txt.gz
Temp
61 61 61 61 61 61 61 61 61 60 60 59 59 59 59 60 61 61 60 59 59 58 58 58 59 59 65 71 80 94 80 77 85 88 89 89 85 84 79 81 82 78 79 81 82 81 81
61 61 61 60 60 60 61 60 60 59 59 59 58 58 58 59 60 60 60 59 58 57 57 58 59 58 68 70 95 97 96 96 97 95 92 92 88 89 83 82 79 81 80 80 81 80 80
61 60 60 60 60 60 60 59 59 59 59 58 58 58 58 58 59 59 59 58 57 57 57 58 59 67 75 79 96 98 97 94 96 94 89 92 92 87 86 78 84 82 75 78 78 79 77
60 60 61 60 59 59 59 58 58 58 59 59 59 58 58 58 58 58 58 57 57 57 58 59 58 70 74 94 96 95 96 94 96 96 93 94 93 87 83 85 80 75 76 68 76 79 79
60 60 60 60 59 58 59 58 58 58 59 59 59 59 58 57 57 57 57 57 57 58 58 59 65 73 76 84 87 93 94 89 92 92 92 92 90 83 82 74 70 72 64 68 70 80 78
60 60 60 60 59 59 59 59 58 58 59 60 60 59 58 57 57 57 57 57 58 59 62 74 80 75 84 81 88 90 94 91 87 87 84 83 82 76 76 72 59 63 66 70 68 74 75
60 60 60 60 59 59 59 59 58 57 58 59 61 60 59 58 57 57 57 69 73 72 80 78 79 79 82 88 91 88 91 88 87 83 73 80 72 66 69 71 72 71 69 68 71 73 70
59 59 60 59 59 59 59 59 57 57 58 59 59 61 60 59 58 57 63 77 79 84 72 83 83 83 86 89 79 85 92 80 78 72 77 74 66 72 75 74 71 70 67 67 71 73 70
59 59 59 59 59 58 59 59 57 57 58 58 59 60 60 58 57 60 77 81 89 86 74 77 82 80 81 86 78 78 84 82 76 73 74 66 69 74 72 71 68 69 65 63 63 70 72
59 58 59 59 58 58 58 58 57 57 58 58 58 59 59 56 60 83 81 87 87 83 66 68 74 78 82 83 73 85 86 80 77 72 73 69 73 70 70 67 67 62 68 66 65 63 57
59 59 59 58 57 57 57 57 57 57 58 58 58 59 56 56 70 80 82 87 86 79 47 70 74 87 83 76 78 77 86 81 72 71 71 65 68 68 66 65 68 63 68 66 65 62 62
59 59 59 58 57 57 57 56 56 56 57 58 58 60 56 68 75 83 85 84 79 58 46 65 75 73 72 75 75 79 78 82 80 73 73 69 75 71 68 70 70 70 67 67 66 62 50
58 59 59 58 57 57 57 56 55 55 57 58 59 59 64 81 76 83 81 77 60 52 70 64 67 72 71 68 71 73 70 69 66 60 60 67 67 71 72 66 71 69 63 49 45 47 45
58 59 59 58 57 57 56 55 55 55 57 59 60 58 69 81 84 80 77 67 51 64 65 74 71 70 65 69 68 69 69 64 69 67 64 59 52 66 71 65 62 64 61 47 39 39 47
57 58 58 57 57 56 55 54 54 55 56 59 59 75 78 77 79 78 71 55 58 65 71 68 69 63 63 67 67 67 64 62 64 66 59 58 56 68 68 69 68 61 55 63 51 44 42
57 57 58 57 56 55 54 52 54 55 56 59 76 76 77 78 79 74 64 56 65 72 74 72 62 66 61 64 63 65 63 66 64 67 70 62 54 64 67 69 69 64 66 52 52 37 37
57 57 58 57 55 54 51 51 53 54 56 59 72 70 73 80 76 71 59 63 68 73 73 69 67 64 66 63 66 63 62 64 67 66 70 64 61 58 64 61 59 61 59 58 57 50 40
56 56 56 56 55 52 51 52 53 54 55 61 73 63 75 77 66 68 64 68 60 69 72 70 71 69 66 65 62 62 60 62 68 68 61 62 59 49 58 65 67 64 59 59 44 44 46
55 55 56 55 54 51 51 52 53 53 53 74 70 69 76 75 58 60 67 68 71 69 70 69 66 69 70 64 57 62 60 64 66 64 58 61 56 46 52 58 63 59 61 60 56 47 41
55 55 55 52 51 51 51 52 53 53 54 69 73 60 69 71 73 67 64 63 62 71 68 71 68 69 66 62 66 60 58 62 64 62 53 57 59 52 45 52 59 54 58 60 57 42 43
54 54 53 51 50 51 51 52 53 53 54 69 73 66 70 59 63 68 69 68 63 61 70 71 66 67 64 57 60 59 62 60 63 54 61 61 51 54 55 57 58 56 56 57 54 54 44
54 54 51 51 50 50 51 53 53 53 51 71 68 68 71 69 69 68 60 65 65 67 66 65 64 67 67 59 61 58 62 62 60 62 61 61 48 48 46 57 55 50 54 55 56 57 56
54 53 51 51 50 51 53 53 53 53 56 75 75 76 73 58 67 64 63 66 67 68 66 72 70 66 57 63 66 66 66 66 64 60 57 54 48 44 39 47 45 38 49 55 57 59 56
53 52 50 54 53 55 53 53 52 52 53 72 74 76 63 57 64 65 68 70 68 66 64 70 71 60 65 71 68 66 64 62 64 61 62 48 46 41 36 38 33 54 61 61 56 59 61
52 51 53 54 54 54 53 52 52 52 53 73 74 72 63 41 64 67 67 68 68 67 66 63 65 69 71 67 53 45 44 40 48 58 58 59 47 36 34 37 45 51 56 53 50 49 59
52 53 53 53 53 53 53 52 52 52 53 72 67 68 70 50 59 70 67 67 61 61 59 59 66 71 68 54 45 38 41 50 46 49 56 54 50 43 35 32 31 49 59 61 59 41 56
52 53 53 53 53 53 53 52 52 52 53 64 67 67 68 60 69 68 65 63 68 63 58 59 59 57 66 45 37 40 45 55 44 39 36 37 39 36 36 34 40 56 59 60 40 41 54
52 52 52 53 53 53 53 52 52 52 53 61 67 69 66 60 64 69 70 68 68 66 54 61 58 58 52 39 39 44 39 46 47 53 42 38 36 34 37 33 32 60 57 44 52 56 55
51 51 52 52 52 53 54 52 52 52 52 54 69 70 70 66 63 68 67 68 67 67 67 63 62 59 58 49 46 45 36 38 41 42 60 46 49 45 45 43 58 61 56 57 54 51 49

GFSGBSN_sfc_temp_018.txt.gz
Temp
62 61 61 60 60 60 61 61 61 59 59 59 59 59 59 59 60 59 58 59 59 59 58 58 58 58 55 58 64 80 70 69 71 73 72 71 70 69 64 65 67 64 66 69 68 70 65
61 60 60 60 60 60 61 60 59 59 58 58 58 58 58 58 59 58 58 59 58 58 57 57 58 58 54 57 79 82 79 73 76 74 74 73 72 73 68 65 66 67 68 67 68 67 67
61 60 60 59 59 59 59 59 59 59 58 58 58 58 57 58 58 58 58 59 58 57 56 57 58 58 58 64 77 78 82 78 77 76 75 76 76 71 67 65 69 68 62 63 62 63 62
61 60 60 59 59 59 58 58 59 58 58 57 58 57 57 57 57 57 58 57 57 57 57 58 59 56 60 80 77 82 80 80 83 83 79 78 77 72 69 67 67 62 59 52 61 64 64
60 60 60 59 59 58 58 57 58 58 58 57 57 57 57 56 56 56 57 56 56 57 57 58 54 55 63 79 78 83 79 78 79 80 78 84 75 66 67 57 52 54 47 52 56 65 62
60 60 59 59 59 58 58 58 58 57 57 57 58 58 57 56 56 56 55 56 57 56 57 62 64 59 70 71 78 79 79 79 75 74 73 72 62 58 56 53 45 49 50 44 52 55 58
60 60 59 59 59 59 59 58 58 57 57 57 58 58 58 57 56 56 53 52 56 56 58 62 64 66 71 75 77 74 79 76 73 70 58 63 56 51 54 57 60 60 53 52 52 60 59
59 59 59 59 59 59 59 59 57 57 57 57 58 58 58 57 57 56 53 58 64 66 58 69 69 70 76 75 68 71 77 67 65 58 61 57 51 60 64 62 60 58 54 51 57 63 57
58 58 58 59 59 59 58 59 57 57 57 57 57 58 58 57 56 54 55 62 70 67 57 66 71 71 71 75 66 66 71 66 63 59 57 53 59 65 62 58 57 53 52 51 53 55 55
57 57 57 58 58 58 57 57 57 57 57 57 57 57 56 55 56 58 59 69 69 66 48 59 65 69 74 71 64 73 73 67 63 58 59 58 63 62 58 57 55 49 57 57 54 49 44
57 57 57 57 57 57 56 56 56 56 57 56 56 57 55 56 56 60 68 68 67 63 31 62 65 77 72 66 67 67 73 69 59 60 59 53 56 56 55 56 58 54 58 54 53 47 45
57 57 57 57 57 57 56 56 55 55 56 56 56 57 55 55 54 62 66 64 62 44 34 58 66 64 62 64 64 67 67 70 67 61 60 58 61 58 56 61 60 60 55 53 51 46 35
56 56 57 57 56 57 56 55 55 55 55 56 55 56 55 66 61 64 62 59 43 34 60 56 58 63 61 58 61 62 58 55 51 48 47 55 56 60 62 56 59 56 47 34 33 31 32
56 56 56 57 56 56 55 54 54 54 55 55 55 54 57 66 63 63 60 53 38 53 55 62 61 60 56 60 57 59 55 50 56 54 48 45 41 54 61 55 50 52 47 32 32 28 33
56 56 56 56 56 55 53 50 52 54 55 55 56 56 59 62 64 61 54 39 44 53 61 60 60 54 53 58 58 56 51 50 52 53 48 45 46 56 58 58 56 51 43 51 38 33 29
56 56 56 56 56 53 50 51 52 54 55 56 57 57 58 63 62 58 48 43 53 62 62 61 53 56 50 54 53 52 51 55 54 57 56 52 44 54 58 60 59 54 55 41 36 29 29
55 55 55 55 54 50 51 52 53 54 55 55 57 54 59 63 60 52 42 47 58 64 64 59 55 55 55 53 54 51 51 54 56 57 56 51 48 47 54 50 47 49 46 46 44 35 28
55 55 55 55 52 50 51 53 53 54 54 57 53 48 60 61 50 45 46 57 58 61 64 61 59 57 56 54 51 49 49 52 56 54 50 51 44 35 46 55 56 52 48 46 31 35 30
54 54 54 53 50 50 50 52 53 53 54 55 52 52 60 59 39 37 52 59 61 59 59 59 57 59 58 53 46 50 50 54 55 53 48 50 43 32 40 47 52 49 51 49 42 34 34
54 54 53 50 50 50 51 52 53 53 55 56 53 44 50 52 51 51 51 53 54 60 59 61 59 60 56 52 53 48 48 54 55 53 50 51 45 40 34 40 45 42 46 47 42 29 32
53 53 50 50 50 50 51 53 53 53 54 57 53 48 52 42 47 50 54 56 53 53 59 60 57 57 54 45 48 46 50 51 54 52 52 49 39 42 44 46 46 44 44 44 43 41 34
53 52 49 50 50 50 53 53 52 52 55 56 53 53 51 48 54 52 49 53 54 56 56 54 53 55 54 48 50 46 50 48 48 50 48 48 35 37 37 44 43 40 43 43 44 45 44
53 50 50 49 50 52 53 52 52 52 55 59 56 56 54 45 48 47 48 54 55 57 56 59 54 49 45 50 51 50 51 52 52 49 44 42 35 31 30 36 36 30 41 44 46 46 45
52 50 50 49 51 53 52 52 51 52 54 61 58 55 48 41 46 50 56 58 55 55 52 55 55 49 54 57 53 52 50 50 51 49 50 37 33 28 25 27 21 42 50 50 46 45 45
50 50 52 53 52 52 52 51 51 52 52 57 56 55 47 35 47 53 55 52 53 52 51 52 53 55 56 51 38 37 34 37 40 46 45 45 32 26 23 25 34 43 47 45 43 41 46
50 51 52 52 51 51 51 51 51 52 53 55 53 55 51 41 44 55 52 53 46 44 45 49 56 56 50 35 32 29 28 35 35 41 45 42 35 29 27 20 19 37 48 52 49 32 46
49 52 52 52 51 51 51 51 51 52 53 56 54 56 54 45 51 53 49 50 51 46 43 46 48 47 48 28 30 26 31 41 32 31 28 28 26 24 17 17 29 42 50 51 32 35 45
51 52 51 51 51 51 51 51 51 52 52 57 54 56 55 46 50 54 55 53 51 48 41 47 45 42 35 32 29 32 26 34 34 39 34 31 27 25 26 17 24 47 48 39 42 43 45
51 51 51 51 52 51 50 50 50 51 52 55 54 57 57 52 52 55 56 56 55 56 50 47 48 45 43 35 34 36 28 33 31 30 43 36 37 32 35 34 45 48 48 48 47 44 43

GFSGBSN_sfc_temp_021.txt.gz
Temp
62 62 61 61 60 60 60 60 61 60 59 59 59 58 59 59 59 59 59 58 59 59 59 58 57 58 54 55 63 76 68 68 70 71 69 68 66 66 62 64 63 61 62 65 67 68 65
61 61 60 60 60 60 60 60 60 59 58 58 58 58 58 58 58 58 58 58 58 58 58 57 57 58 52 56 75 77 72 72 72 69 69 70 70 70 66 63 63 66 62 62 65 65 66
61 61 60 59 59 59 59 59 59 59 58 58 57 57 57 58 58 57 57 58 58 57 57 56 58 58 56 64 73 71 76 72 74 72 70 72 72 67 65 61 65 65 60 61 60 61 61
61 60 60 59 58 58 58 58 58 58 58 58 57 57 57 57 57 57 57 57 57 57 56 57 58 55 58 76 72 77 74 77 78 77 76 77 74 69 65 66 63 59 56 52 59 60 60
61 60 60 59 58 58 58 58 57 58 58 57 57 57 57 56 56 56 57 56 56 56 57 58 54 53 61 77 74 80 78 75 75 77 74 80 72 63 64 56 50 51 45 48 53 61 58
61 60 59 59 58 58 58 58 57 57 57 57 57 57 57 56 56 55 55 56 56 56 57 60 61 56 68 69 74 75 75 75 71 70 69 68 61 57 54 52 43 46 47 41 50 55 56
61 60 59 59 59 59 59 58 58 57 57 57 57 58 57 56 56 55 53 52 54 54 55 60 61 63 68 75 76 73 75 72 70 66 57 60 55 49 50 53 56 54 49 48 48 56 55
59 59 59 59 59 59 59 59 57 57 57 57 57 58 57 57 56 55 52 57 63 64 56 64 65 66 71 72 66 70 75 66 64 56 58 56 50 56 60 58 57 55 51 48 52 58 53
58 58 59 59 59 59 59 58 57 57 56 57 57 58 57 56 56 53 54 61 67 64 55 64 67 67 70 72 63 64 68 64 60 57 55 51 54 62 59 55 54 51 48 48 51 53 53
58 57 57 58 58 58 58 57 57 57 56 57 57 57 56 54 54 56 57 66 65 63 47 56 62 68 70 68 61 69 69 65 61 55 56 55 59 58 56 54 52 47 54 53 52 47 41
57 57 57 57 57 57 57 56 57 56 56 57 57 56 54 56 56 58 65 65 64 62 30 58 62 74 69 65 62 65 70 66 57 57 56 51 53 54 54 52 55 51 54 52 50 44 43
57 57 57 56 56 56 56 56 56 55 56 56 56 56 54 54 52 61 63 60 61 43 33 54 62 60 60 62 61 63 65 66 63 57 57 54 57 56 53 57 56 57 53 50 47 43 34
56 56 56 56 56 56 56 56 55 55 55 56 56 55 55 62 60 62 59 58 41 33 56 52 54 59 57 55 58 58 55 52 50 46 45 52 53 56 58 52 55 53 45 32 31 30 31
56 56 56 56 56 56 56 55 54 54 55 55 54 54 54 60 61 60 58 51 36 50 52 58 58 56 53 56 54 55 52 48 53 51 45 42 40 52 58 52 48 47 45 32 33 28 32
56 56 56 56 56 56 55 52 51 54 55 54 54 53 57 59 61 59 54 38 42 48 57 56 56 51 50 55 55 52 48 48 50 51 46 43 44 54 55 56 54 48 41 47 35 31 29
56 56 55 55 55 55 52 51 51 54 55 55 56 54 56 60 59 57 47 43 50 58 59 58 50 52 47 51 50 49 48 52 51 54 53 50 42 51 56 56 55 52 53 39 34 28 29
56 56 55 55 54 52 51 50 52 54 55 56 55 52 58 59 58 51 41 45 54 61 61 57 53 51 52 50 50 47 48 51 52 54 54 49 46 45 51 48 45 47 44 42 41 33 27
55 55 54 54 52 50 50 52 53 54 54 56 51 46 58 58 48 42 44 53 56 57 62 59 57 55 52 51 48 47 47 49 53 52 48 48 42 34 43 52 53 49 45 43 30 34 28
54 54 54 53 50 50 50 53 53 53 56 54 49 50 58 57 38 36 49 56 57 56 57 56 54 55 55 49 45 47 48 52 52 51 47 48 41 32 39 46 49 45 47 43 39 33 32
54 54 53 51 50 50 50 52 53 53 54 55 50 43 49 50 47 48 48 50 52 58 57 57 55 56 52 49 49 45 46 51 51 51 50 50 43 38 34 38 42 40 43 43 40 29 31
53 53 51 50 50 50 50 53 53 53 53 56 50 46 49 41 45 47 51 52 51 50 56 57 54 54 51 43 45 43 47 48 51 50 49 47 39 40 40 42 43 42 42 42 40 39 34
53 51 50 50 50 50 52 53 52 53 53 54 50 48 47 45 50 49 46 50 52 53 54 51 52 51 51 47 49 44 48 46 45 48 45 45 34 36 35 41 40 38 42 41 41 41 40
51 50 50 50 50 52 53 51 51 53 56 53 52 52 51 43 45 45 45 52 54 54 53 54 53 48 44 47 49 48 48 49 50 47 42 39 34 32 29 34 35 30 38 42 43 44 43
49 50 50 50 52 53 52 51 51 53 54 57 54 52 46 38 44 47 53 54 53 53 51 51 52 48 52 53 51 51 48 47 48 45 47 36 31 26 24 27 21 41 46 47 44 44 43
50 50 49 52 52 52 51 51 51 52 54 59 53 53 45 35 45 50 51 50 50 50 48 49 51 52 53 48 38 38 34 37 39 43 42 42 31 26 23 25 34 41 45 42 41 40 44
50 52 52 52 51 51 50 51 51 52 54 57 53 52 49 43 45 54 49 50 44 42 45 47 52 52 48 34 32 29 29 35 34 38 42 39 34 29 25 20 20 37 44 49 47 33 44
51 52 52 51 51 50 50 50 51 51 54 57 54 53 52 44 49 51 48 48 48 44 41 45 47 45 46 28 25 26 31 39 32 30 27 28 24 24 15 18 29 41 47 48 34 35 43
51 51 51 51 52 50 50 50 50 51 53 56 53 54 54 44 48 52 53 50 48 46 40 46 44 41 34 32 28 28 24 32 32 37 33 31 28 24 25 18 26 46 45 39 43 41 45
50 51 51 51 50 50 47 48 49 50 52 55 54 55 54 50 50 53 54 54 53 54 48 45 47 44 42 34 29 31 25 33 30 29 40 33 36 32 34 34 44 45 44 46 46 44 43

GFSGBSN_sfc_temp_024.txt.gz
Temp
62 62 62 61 61 60 61 60 60 59 60 59 59 59 59 59 59 59 58 58 59 59 59 59 58 57 52 52 59 69 67 67 67 69 68 66 62 62 58 59 61 60 62 65 64 66 65
62 61 61 61 60 60 60 60 59 59 59 59 58 58 58 58 58 58 58 58 58 58 58 58 57 58 50 52 71 71 68 67 68 67 67 67 65 67 62 62 63 64 63 62 63 62 62
62 61 61 60 59 59 59 59 59 58 59 59 58 57 57 58 58 58 58 57 58 58 57 57 57 57 53 61 72 68 71 69 68 70 66 69 70 66 65 61 65 64 58 60 60 57 58
62 61 61 59 59 58 58 58 58 58 58 59 58 57 57 57 57 57 57 57 57 57 57 57 58 54 55 73 70 74 69 71 72 73 70 71 72 67 65 64 62 58 54 50 55 58 57
61 61 60 60 59 58 58 58 58 58 58 57 57 57 56 56 55 56 56 57 57 56 57 58 52 52 58 74 71 77 74 71 72 70 70 77 70 64 62 55 50 50 45 47 51 57 56
61 61 60 59 59 58 58 58 58 57 57 57 57 57 56 56 55 55 55 56 56 56 56 59 59 53 64 66 72 74 73 74 71 68 67 66 59 55 53 52 44 45 45 40 45 50 54
61 61 60 59 59 59 59 59 58 57 57 57 57 57 57 56 55 55 54 52 50 50 52 57 59 60 64 71 71 70 73 71 68 65 56 58 53 48 49 53 55 53 48 45 45 52 48
60 60 60 59 59 59 59 59 58 57 57 57 57 57 57 56 56 55 50 52 59 61 53 60 62 63 67 68 62 66 71 62 61 55 57 55 48 55 57 56 54 52 48 46 48 53 49
59 59 59 59 59 59 59 59 57 57 57 56 56 57 57 56 55 53 51 60 66 62 53 61 63 64 67 70 62 61 66 62 58 56 54 51 53 58 56 52 52 49 48 45 47 49 49
59 58 58 59 59 58 58 58 57 57 56 56 56 56 55 54 51 54 56 64 63 61 46 55 60 66 68 67 61 68 68 64 59 53 53 52 56 55 53 52 51 45 51 51 50 44 39
58 57 57 58 57 57 57 57 57 57 56 56 55 56 55 56 54 56 63 62 61 60 31 56 60 72 67 63 61 62 66 63 55 54 54 49 51 52 51 50 53 49 53 50 48 43 41
58 57 57 57 57 56 56 56 56 56 55 55 55 55 54 53 50 59 61 58 59 42 33 52 59 58 58 59 58 60 61 64 60 55 54 51 55 53 51 55 55 54 51 48 44 41 33
57 57 57 56 56 56 56 55 55 55 55 55 55 55 54 59 59 60 58 57 41 33 53 49 52 56 54 52 55 55 53 50 49 44 43 51 51 54 55 51 53 50 44 32 31 30 30
56 56 56 56 56 55 55 55 55 54 54 55 54 54 54 58 57 58 56 50 36 47 49 54 54 53 51 52 52 52 50 47 51 48 43 41 39 50 56 50 47 45 44 32 32 27 31
54 56 56 56 55 55 55 55 54 53 54 54 53 51 54 57 57 56 52 37 41 46 54 53 53 49 47 52 52 50 46 46 48 48 45 41 41 51 53 53 52 45 39 45 34 31 28
54 56 55 55 55 55 55 54 52 51 54 53 53 53 55 57 57 55 45 43 48 54 55 55 47 49 44 47 48 46 45 48 48 50 50 48 41 48 52 53 53 48 50 38 33 28 28
55 56 55 55 54 54 54 52 51 52 54 54 53 51 56 57 56 50 40 44 51 58 57 55 51 48 49 48 47 44 45 48 50 51 51 47 44 43 48 46 43 45 42 39 39 32 26
55 55 55 55 54 54 52 51 51 52 53 53 50 46 56 56 47 41 43 50 54 55 58 56 55 53 50 48 46 45 45 47 50 50 46 46 41 34 41 48 49 46 43 41 30 33 28
54 55 54 54 54 52 51 50 52 53 55 53 48 49 55 55 37 35 46 52 55 54 54 53 52 53 52 47 43 45 46 50 51 48 47 48 40 32 38 44 47 43 43 41 37 33 32
54 54 54 54 52 51 50 51 52 53 55 53 49 42 47 47 45 47 47 48 50 55 54 55 53 53 50 46 47 44 44 49 50 48 49 49 41 38 34 37 40 39 42 41 39 28 31
53 53 53 52 51 51 50 50 52 53 53 53 48 45 47 40 43 45 49 50 49 49 54 55 52 52 49 42 42 41 45 46 49 49 46 46 38 38 37 39 40 40 41 40 39 38 34
53 52 51 51 50 50 50 52 52 52 53 52 48 46 44 43 47 48 45 48 50 50 51 49 50 48 49 46 48 43 46 44 45 46 43 43 34 36 35 38 38 37 40 40 39 39 38
52 51 50 50 50 50 52 52 52 53 54 51 49 50 49 40 42 43 43 49 52 52 50 52 52 47 43 46 47 46 46 46 47 45 40 38 34 32 29 32 33 30 37 40 39 40 40
51 50 50 50 50 52 52 51 51 53 55 54 52 51 44 35 40 45 50 51 50 51 50 49 50 46 48 51 49 50 47 45 46 43 44 35 32 26 24 26 21 39 43 43 42 42 43
50 50 50 50 52 52 51 51 51 52 53 54 52 52 44 32 42 46 48 47 48 48 46 47 49 49 51 47 38 38 34 37 38 40 39 39 30 25 22 24 34 41 43 41 40 40 44
50 49 50 52 51 50 50 50 51 53 53 54 52 50 48 41 43 52 47 47 43 41 43 44 50 50 47 32 32 29 30 36 34 36 40 37 34 29 21 20 19 37 42 46 46 33 44
50 51 51 51 50 50 50 50 51 53 54 57 51 52 50 43 47 49 46 46 46 43 41 44 46 43 44 28 24 26 30 37 32 30 27 27 25 23 15 17 29 41 45 46 33 35 41
51 51 51 51 50 49 49 49 51 53 54 57 52 52 52 43 47 51 51 48 46 45 40 45 43 41 33 32 28 27 24 31 32 36 32 31 28 23 24 17 26 44 45 38 42 40 43
50 50 50 50 47 48 48 49 50 52 53 56 54 53 52 50 49 52 52 52 51 53 46 43 46 43 42 33 27 26 26 30 30 29 37 32 35 31 33 33 43 44 43 45 44 44 43

GFSGBSN_sfc_temp_027.txt.gz
Temp
63 63 62 62 61 61 61 61 60 59 58 59 59 59 59 59 59 59 58 58 59 59 59 59 58 57 55 55 62 73 67 68 70 72 72 69 67 67 63 65 66 65 68 68 69 69 70
62 62 61 61 61 61 61 60 59 59 58 58 59 59 58 58 58 58 58 58 58 58 58 58 58 58 52 55 76 72 69 69 71 72 70 71 70 71 68 66 66 68 68 67 66 66 68
62 61 61 60 60 60 60 59 59 58 58 58 59 58 57 58 58 58 58 58 58 58 57 57 57 57 52 61 77 72 72 72 71 74 69 71 74 70 69 64 70 68 65 66 65 68 66
62 62 61 60 59 59 58 58 58 58 58 58 58 58 57 57 57 57 58 58 58 58 57 57 58 56 55 74 74 73 72 74 73 74 75 75 74 71 69 70 66 64 62 59 65 67 65
62 61 61 60 59 59 58 58 57 58 58 58 57 57 56 56 56 56 57 57 56 57 57 57 54 53 59 74 74 80 77 75 72 72 73 75 74 68 68 62 59 58 56 56 61 65 65
61 61 61 60 59 59 58 58 57 57 57 57 57 57 56 56 56 55 56 56 56 56 56 59 58 54 66 70 74 76 80 78 73 70 70 70 66 62 61 61 52 54 55 56 58 61 60
58 61 61 60 59 59 59 58 58 57 57 57 57 57 57 56 56 55 54 54 52 51 52 58 61 61 66 73 73 75 78 74 74 70 63 63 62 58 60 61 60 59 57 56 57 57 55
59 59 61 60 60 59 59 59 58 57 57 57 57 56 57 56 55 55 53 52 61 65 57 59 61 63 67 70 67 72 77 70 67 60 64 61 56 61 61 61 58 57 56 54 55 56 56
58 57 60 60 60 59 59 59 58 57 57 56 56 56 57 55 55 54 51 56 66 66 57 61 62 64 69 71 66 68 73 69 64 61 59 56 59 62 60 58 57 55 54 54 54 56 56
58 56 58 59 59 59 58 58 58 57 57 56 56 56 55 54 52 53 54 64 64 64 50 56 62 68 70 70 64 73 73 70 63 58 58 58 61 59 58 56 57 52 58 56 54 55 51
57 56 56 59 58 57 57 57 57 57 56 56 55 56 54 56 55 56 64 65 62 61 36 58 63 75 69 66 66 66 70 68 59 58 60 55 57 57 55 56 58 54 57 56 54 52 52
57 57 55 58 57 57 56 56 56 56 56 56 55 55 54 54 52 58 63 63 61 46 36 55 63 61 61 62 62 65 66 67 64 58 58 57 62 60 59 58 58 57 56 54 51 51 44
55 56 56 56 57 56 56 56 56 55 55 55 55 55 55 58 58 61 60 58 45 38 55 52 55 59 58 56 58 59 56 55 56 50 49 55 56 60 60 57 59 57 53 43 41 41 40
54 54 54 56 57 56 56 56 55 55 55 54 54 54 54 57 59 58 58 52 41 49 50 57 56 57 54 57 56 56 54 52 55 54 50 48 46 56 59 58 55 52 53 43 36 36 41
54 54 52 56 56 56 56 55 55 54 54 54 53 52 52 57 57 57 54 41 43 47 56 55 56 52 52 56 55 54 51 51 53 55 51 47 48 58 58 59 59 52 48 52 41 36 38
54 54 53 55 56 55 55 55 54 53 53 54 51 51 54 59 58 56 49 44 50 55 58 57 50 53 49 53 52 51 51 54 54 55 57 52 46 54 57 59 57 56 54 46 44 34 34
54 53 53 53 55 55 55 54 54 52 53 54 53 51 57 58 57 52 44 46 53 58 59 57 53 51 52 51 51 50 50 53 55 56 57 54 51 49 54 52 52 52 48 45 46 41 37
53 52 52 52 55 55 54 54 52 51 53 52 50 47 57 56 49 45 46 51 53 57 60 58 58 55 52 52 50 50 50 53 54 55 54 53 47 43 49 54 56 54 50 48 41 38 36
52 51 50 52 54 54 54 53 52 52 54 52 49 50 57 56 41 39 49 54 56 56 56 57 55 56 55 50 47 49 50 53 54 55 51 52 46 40 45 51 54 52 49 46 43 41 38
51 50 52 53 54 54 53 51 51 52 55 55 50 44 50 49 48 49 49 51 52 56 56 57 54 55 52 50 50 47 48 53 53 53 48 52 45 45 42 46 48 46 46 47 47 39 39
50 50 52 53 54 53 52 51 52 53 54 54 49 47 50 43 46 48 52 52 52 51 57 57 54 54 51 46 47 45 50 51 53 50 50 51 45 45 43 44 46 47 46 45 45 45 43
50 50 52 53 52 52 51 50 52 52 54 53 48 47 46 45 48 49 47 50 52 53 54 53 52 52 54 48 51 46 49 49 50 50 49 47 42 43 41 42 42 43 45 46 45 45 45
50 52 52 52 51 51 50 50 52 53 56 52 50 51 51 41 45 45 45 49 52 54 52 54 54 51 49 52 52 50 50 49 51 49 44 44 40 39 35 37 39 36 43 45 45 46 49
51 52 51 51 50 50 50 51 51 53 54 55 53 51 45 38 42 46 49 53 52 53 52 52 53 51 51 54 53 53 50 48 48 45 47 40 38 34 34 32 32 47 49 49 47 48 49
51 51 51 50 50 50 51 51 51 53 54 56 53 53 45 34 43 47 49 48 49 49 48 49 50 51 53 51 43 41 39 39 41 43 43 44 37 30 33 33 39 48 46 45 44 49 51
50 50 50 50 50 51 50 50 51 52 53 55 53 52 50 41 43 52 48 49 45 44 45 46 51 52 49 39 38 35 36 41 40 41 43 41 39 38 30 32 31 44 49 51 52 41 51
49 49 50 51 50 50 50 50 51 52 53 55 52 53 53 45 50 51 48 48 48 46 43 46 48 48 49 36 34 36 38 41 38 34 32 34 32 33 26 33 37 46 50 52 41 43 48
49 50 50 50 50 50 50 50 51 53 53 57 52 54 54 46 49 53 53 48 48 48 44 47 47 45 39 37 36 36 35 38 38 41 37 37 33 32 27 30 32 48 50 44 50 50 50
50 50 49 48 48 48 49 50 52 54 54 55 53 54 53 51 50 53 54 55 55 55 49 46 50 46 46 39 35 33 33 32 34 37 41 38 41 39 40 41 49 49 50 52 50 50 52

GFSGBSN_sfc_temp_030.txt.gz
Temp
63 63 63 62 62 61 61 61 60 59 59 58 58 59 59 60 59 59 58 58 58 59 59 59 59 58 62 64 72 83 68 68 78 83 82 80 77 76 72 75 76 73 76 77 78 76 80
61 62 62 62 61 61 61 61 60 59 58 58 58 58 59 59 58 58 58 57 57 58 58 59 58 57 62 62 86 84 82 80 83 83 82 82 79 81 76 73 74 76 76 76 77 77 74
61 62 62 61 60 61 61 60 59 59 58 58 58 58 59 58 58 58 58 57 57 58 58 58 57 62 60 71 86 86 83 83 85 85 81 84 84 78 77 73 77 77 70 73 73 74 74
61 60 62 60 60 59 59 59 59 59 58 58 58 58 58 57 57 57 57 57 57 58 58 57 58 59 66 84 88 83 86 82 84 86 85 84 83 78 75 77 74 72 73 66 71 75 73
61 60 61 61 59 59 59 58 58 58 58 58 58 57 57 56 56 56 56 57 57 57 57 57 58 60 68 80 80 88 87 82 80 81 82 82 80 75 73 69 67 69 62 64 65 72 73
61 60 59 61 60 59 59 58 58 58 58 58 58 57 57 56 56 56 56 56 57 57 59 62 64 59 74 77 82 85 89 85 79 77 73 74 75 71 70 69 58 62 62 67 66 69 73
60 60 59 60 60 60 60 59 58 57 57 58 58 57 57 57 56 55 57 62 61 61 60 68 69 69 75 84 84 84 86 82 80 78 69 71 67 64 69 70 70 69 67 66 66 66 68
59 59 60 59 60 60 60 60 58 57 57 58 57 57 57 57 56 55 62 63 71 71 66 70 71 70 76 79 74 80 86 78 72 70 71 69 65 67 68 69 69 69 65 62 63 65 68
58 58 59 59 60 60 60 60 58 57 57 57 57 57 57 55 55 55 62 67 77 76 66 68 72 73 76 77 75 77 82 78 71 69 67 65 66 68 69 68 66 65 64 62 63 64 67
57 57 58 58 59 59 59 59 58 57 57 57 56 56 55 54 55 65 63 74 76 72 62 64 69 75 76 78 72 80 81 78 72 66 67 67 68 67 68 65 67 61 65 66 64 64 60
56 56 57 57 57 58 58 58 58 57 57 57 56 56 55 56 66 66 72 76 74 71 44 68 70 83 78 73 75 74 79 78 70 65 66 62 65 66 65 63 66 62 66 66 65 65 62
56 56 56 57 56 57 57 57 57 57 57 56 55 55 54 57 63 70 73 74 71 57 44 61 71 69 69 70 70 74 74 77 74 68 68 65 70 69 66 66 67 67 65 65 65 63 53
55 55 56 56 56 56 57 57 56 56 56 56 55 55 57 66 67 71 71 69 57 48 63 59 63 68 68 65 65 68 67 66 65 58 59 64 64 68 68 65 66 66 63 53 48 49 48
54 55 55 56 55 56 56 56 55 55 55 55 54 54 57 67 73 68 68 63 48 58 60 65 66 67 62 65 63 64 64 62 64 65 62 58 52 64 66 65 64 63 62 53 41 44 51
54 54 55 55 55 55 56 56 55 55 54 54 53 57 60 66 66 65 64 52 55 59 65 63 65 60 60 63 64 64 63 64 64 65 61 57 55 65 64 67 66 60 58 61 51 44 46
54 54 54 54 53 55 55 55 55 55 54 53 62 60 65 70 68 65 58 54 62 65 66 67 58 63 57 61 61 62 61 62 62 64 66 62 53 62 63 67 66 64 65 53 55 40 40
53 54 54 54 54 52 55 55 55 54 54 54 63 61 66 69 69 63 54 59 63 68 68 65 63 60 62 59 63 61 61 61 63 64 67 66 61 56 61 60 60 59 58 57 58 52 46
52 53 53 53 53 53 54 55 54 53 53 54 62 57 65 68 60 62 59 63 59 66 67 67 68 65 63 62 60 61 60 63 64 66 62 62 61 53 57 62 64 63 61 60 51 47 48
51 52 52 53 52 51 53 55 53 52 54 62 60 62 65 64 53 53 60 63 65 65 66 65 64 66 65 62 57 60 60 59 61 63 62 63 58 49 51 58 61 59 61 60 56 54 48
51 51 52 52 51 51 53 53 52 53 55 67 64 53 59 63 66 62 60 62 61 65 65 66 63 65 62 59 60 57 57 58 60 61 49 58 58 56 51 55 60 54 57 59 59 48 51
51 51 51 51 51 51 52 52 52 53 54 63 65 61 65 53 57 62 64 64 62 60 66 67 63 65 63 55 57 56 59 57 59 52 59 61 55 55 54 54 55 56 57 57 56 58 50
51 51 50 50 49 51 52 52 51 53 54 63 61 60 60 62 62 61 57 61 62 62 64 63 63 63 64 60 62 57 60 60 60 59 59 58 53 52 49 51 52 51 57 58 59 59 57
51 51 50 49 49 51 52 51 51 52 54 66 64 64 67 50 59 59 59 63 64 65 60 65 67 63 60 60 62 65 63 63 63 60 56 55 51 49 46 47 48 40 52 57 58 60 59
50 50 50 50 51 52 51 51 51 52 54 73 69 69 61 52 56 59 62 64 64 65 61 60 65 63 58 65 66 64 62 60 60 56 58 51 51 45 42 39 35 57 59 59 59 61 64
49 49 50 51 52 51 51 50 51 52 54 68 68 68 62 41 59 60 62 62 61 60 58 60 58 61 65 62 56 51 49 46 50 53 54 56 51 39 38 44 51 58 55 54 52 57 65
49 50 51 51 51 50 50 51 51 52 55 65 67 68 67 52 53 65 61 62 59 58 56 53 57 62 60 56 51 45 44 51 47 48 52 52 52 49 39 37 35 53 56 59 59 50 62
50 51 51 50 50 49 50 51 51 52 54 66 63 62 69 58 62 64 61 59 63 61 57 55 55 55 58 50 44 46 48 51 47 42 37 42 41 39 40 38 48 58 58 59 46 51 62
50 49 49 49 50 50 50 50 50 52 54 66 60 63 69 59 60 61 62 60 60 64 56 56 57 55 53 46 46 48 44 49 49 52 47 46 42 38 39 36 37 58 57 51 58 62 61
49 50 49 49 50 50 50 50 51 52 54 58 62 63 67 65 59 63 61 62 63 66 63 60 61 59 62 53 48 45 39 38 46 46 51 46 53 51 51 53 58 60 62 64 62 60 60

GFSGBSN_sfc_temp_033.txt.gz
Temp
62 61 63 63 62 62 62 62 61 60 59 59 59 59 59 60 60 59 58 58 58 59 59 59 59 59 63 68 76 86 68 68 81 83 84 83 80 80 75 79 80 76 79 81 82 79 77
61 61 61 62 62 62 62 61 61 60 59 59 59 59 59 59 59 59 58 58 58 58 59 59 59 58 63 65 92 91 88 85 88 86 86 87 83 85 79 78 77 80 80 80 81 79 80
61 61 61 61 61 61 61 61 60 60 59 59 59 58 58 59 58 58 58 58 57 58 58 59 59 65 65 74 93 93 89 89 91 89 85 88 88 81 81 75 82 79 74 77 76 79 77
61 61 61 60 60 60 60 60 60 59 59 59 59 58 58 57 58 57 57 57 57 58 58 58 58 67 67 90 95 91 92 89 91 92 89 89 89 82 79 81 76 74 75 66 75 78 79
60 60 61 60 60 59 59 59 59 59 59 59 59 58 57 57 57 56 57 57 57 58 58 59 61 66 71 80 84 92 93 86 87 87 88 86 84 79 77 71 69 71 63 66 68 79 78
60 60 60 60 59 59 59 59 59 59 58 58 58 58 57 57 57 56 56 57 57 57 61 69 71 64 76 78 86 90 93 90 82 82 79 78 78 72 72 70 58 62 63 67 68 75 77
59 59 60 60 59 59 60 59 59 58 58 58 58 58 58 57 57 56 57 66 66 65 67 70 74 75 80 88 91 88 91 85 83 80 72 76 69 65 70 71 71 69 67 68 72 75 73
58 59 59 59 60 60 60 60 59 58 58 58 58 58 58 57 56 56 61 70 75 75 67 75 77 78 82 85 78 84 91 77 77 69 73 70 65 72 74 74 71 70 68 66 70 73 72
58 58 58 59 59 60 60 60 59 57 58 58 58 58 58 56 55 57 67 73 83 80 67 74 79 77 81 83 78 81 86 82 75 68 66 63 64 73 70 71 69 69 66 66 66 70 73
57 57 57 58 58 59 59 59 59 58 57 57 57 57 56 55 56 72 68 79 81 77 61 67 72 78 81 82 74 86 88 82 73 66 70 65 72 71 68 68 71 63 71 70 68 65 59
56 56 57 57 57 57 57 58 58 58 57 57 57 56 55 55 69 70 77 83 81 73 45 72 75 88 84 77 78 79 87 82 71 69 71 64 69 68 66 67 71 65 71 70 70 67 63
55 56 56 56 56 56 56 57 57 57 57 57 56 56 55 58 65 75 80 78 74 55 46 65 75 72 72 75 75 79 79 84 81 72 71 69 76 74 72 72 72 73 69 68 69 66 54
54 55 56 56 56 56 56 56 56 56 56 56 56 55 57 70 69 78 76 71 57 49 68 64 67 72 71 69 70 72 71 70 67 60 59 68 69 73 74 68 72 71 66 52 49 51 50
53 54 55 55 56 56 56 56 56 55 56 56 55 54 57 70 76 74 72 63 48 62 64 71 71 70 66 70 70 70 68 66 72 70 63 59 55 68 73 70 67 67 66 53 43 46 53
52 52 53 54 55 55 55 56 56 55 55 55 54 60 63 66 70 71 65 52 55 64 71 66 68 63 64 69 68 68 67 68 71 73 60 60 58 71 70 72 72 66 60 68 57 52 49
52 52 52 53 54 55 55 55 55 55 55 54 61 59 64 71 69 66 60 54 64 72 72 71 61 66 60 64 63 65 65 71 68 71 74 67 57 67 68 72 71 67 71 57 58 43 43
51 52 51 53 54 54 54 55 55 54 54 55 64 59 73 73 69 62 54 60 68 74 74 68 66 64 66 65 66 65 66 69 71 70 73 72 65 61 65 63 65 64 62 63 63 58 47
50 50 50 53 54 54 54 54 54 54 54 54 62 56 70 72 56 61 59 66 66 72 74 71 70 70 66 67 64 66 65 69 74 73 67 70 66 56 61 68 70 69 66 65 52 52 54
50 48 50 53 53 53 54 53 54 53 55 63 59 61 66 70 52 56 65 67 71 70 70 69 68 71 72 67 61 66 68 65 68 69 68 69 62 52 56 63 67 63 66 66 64 59 52
49 48 51 52 53 54 54 53 53 53 56 66 63 53 56 61 68 63 62 63 63 72 72 73 71 72 68 66 68 64 65 64 65 69 53 61 64 59 52 59 65 59 63 66 62 51 53
48 49 51 52 52 53 52 52 52 53 56 61 64 62 64 54 61 65 66 65 64 63 71 73 69 68 67 61 63 62 67 62 64 54 64 66 57 62 64 62 63 63 63 64 61 62 55
48 50 51 51 52 52 52 52 51 53 56 58 61 65 69 64 64 63 59 63 65 68 68 66 67 70 71 65 65 62 66 65 63 64 65 66 57 58 54 61 60 58 63 64 65 64 64
50 50 50 51 51 51 51 50 50 53 56 60 65 71 70 59 63 61 63 65 67 70 66 74 72 70 66 67 70 71 72 72 70 65 62 61 57 52 48 54 55 43 55 61 64 67 65
50 51 51 51 51 50 49 49 50 52 56 70 67 69 62 55 62 62 66 68 68 69 66 69 74 69 66 73 73 71 69 67 66 64 68 58 56 52 46 41 34 61 66 66 62 66 70
50 50 51 50 50 50 48 48 51 52 53 64 67 68 65 46 65 65 66 66 70 69 68 66 65 70 73 71 60 54 53 50 56 61 61 64 56 45 40 46 55 60 64 60 58 60 68
50 50 50 50 50 50 49 50 50 51 52 57 65 74 73 59 61 70 66 69 64 63 61 58 66 70 68 64 56 49 47 54 52 54 60 59 59 52 45 37 34 55 62 65 65 51 66
50 49 50 49 49 50 50 51 51 51 52 57 67 68 75 66 72 71 65 65 71 68 64 59 60 59 65 55 45 50 51 59 50 47 39 45 45 42 44 41 50 64 64 64 48 52 65
48 48 49 49 50 50 50 50 51 51 52 55 68 71 74 67 67 69 73 69 70 70 59 62 60 60 59 50 50 53 48 54 54 59 51 48 45 40 45 36 37 65 63 53 60 66 67
48 48 49 50 49 49 50 50 50 51 52 55 65 72 77 71 64 69 67 68 69 72 72 65 67 64 65 59 54 53 43 43 52 48 60 51 57 54 55 54 64 67 65 68 68 64 65

GFSGBSN_sfc_temp_036.txt.gz
Temp
62 62 62 61 62 62 63 62 61 61 60 60 59 59 60 60 60 60 59 59 58 59 59 59 59 59 61 66 72 81 68 69 80 81 81 81 78 77 72 77 79 75 78 81 79 79 78
61 61 61 61 61 62 63 62 61 60 60 60 59 59 59 59 59 59 58 58 57 58 59 59 60 59 62 63 93 93 87 80 85 83 83 84 81 84 78 77 76 79 79 78 78 78 79
61 61 61 60 60 61 62 61 61 60 60 60 59 59 59 59 59 59 58 58 57 58 59 59 59 63 65 70 92 94 91 87 90 86 83 88 88 81 81 75 82 80 73 75 77 77 74
61 60 60 60 60 60 60 60 60 60 60 60 60 59 58 58 57 57 58 57 57 58 59 59 59 64 64 89 92 91 93 89 91 92 88 90 88 82 78 80 77 72 72 63 73 77 76
60 60 60 60 59 59 59 59 59 60 60 59 59 59 58 57 57 57 57 58 58 59 59 59 59 65 67 83 84 91 93 86 88 88 88 89 84 77 77 68 65 68 58 63 67 77 73
60 60 59 59 59 59 59 59 59 59 59 59 59 59 58 58 57 57 57 57 58 58 60 68 71 64 73 77 87 90 94 90 83 82 79 77 76 70 71 66 50 56 61 64 64 72 74
59 59 59 59 59 59 60 60 59 58 58 59 59 59 58 58 58 56 56 64 62 59 65 69 73 72 81 88 91 87 91 86 84 78 68 73 66 62 66 68 68 67 64 64 70 76 71
58 59 59 59 59 59 60 60 59 58 58 59 59 59 59 58 57 57 59 66 75 75 64 74 77 77 83 86 77 84 91 77 75 68 65 67 63 66 70 71 68 68 64 62 71 74 72
57 58 58 58 59 59 59 60 59 58 57 58 58 58 58 57 56 57 63 70 82 79 65 74 78 77 79 84 76 79 85 81 71 63 64 59 64 68 69 68 65 66 64 63 65 71 73
56 56 57 58 58 58 58 59 58 58 57 57 57 58 57 55 54 67 67 76 77 77 58 67 72 77 81 82 74 88 89 81 65 62 64 58 68 67 67 66 69 61 69 68 68 64 55
56 55 56 57 57 57 57 57 58 58 57 57 57 57 55 55 63 69 78 84 81 72 42 72 73 88 84 75 79 79 88 81 70 68 69 57 59 63 64 65 70 63 68 67 68 64 59
55 55 55 56 56 56 56 56 56 57 57 56 56 56 55 57 60 68 77 77 73 53 42 65 75 72 72 75 76 81 79 83 80 71 72 63 64 60 67 71 72 72 68 68 67 63 43
52 54 55 55 56 56 56 56 56 56 56 56 56 55 56 69 64 75 73 68 52 46 70 64 66 71 70 68 71 73 70 68 65 58 58 66 67 73 72 65 72 70 64 49 38 39 44
53 52 54 54 55 55 56 56 55 55 55 55 55 54 56 66 72 73 69 54 45 59 61 73 70 70 64 70 69 70 68 64 71 69 61 57 50 68 73 69 57 57 64 49 36 31 47
52 52 53 53 54 55 55 55 55 55 55 55 54 58 59 63 64 68 59 45 51 62 70 68 69 63 64 69 69 68 66 65 70 71 59 53 53 67 72 74 71 65 59 67 54 50 45
51 52 52 51 52 54 55 55 55 55 54 54 56 58 59 66 67 62 52 49 59 70 73 72 61 66 60 64 63 64 64 71 69 74 70 56 41 60 69 72 72 66 70 55 57 41 40
51 51 52 52 51 52 54 54 54 55 54 54 58 54 67 69 66 56 48 54 62 73 75 68 66 64 65 64 66 64 65 71 74 72 73 65 55 58 66 63 63 63 59 62 62 57 43
50 49 51 52 52 51 53 54 54 54 54 52 55 49 68 68 51 56 52 61 64 70 75 71 71 70 66 67 64 64 63 69 76 74 65 70 64 54 60 70 72 68 63 64 48 49 52
48 50 51 51 52 51 52 54 54 54 54 52 53 57 64 65 48 50 58 61 67 67 70 69 67 71 72 66 61 66 68 69 72 71 66 68 60 49 55 63 68 63 66 66 64 57 50
49 50 50 51 51 51 51 53 54 54 54 54 56 47 51 55 63 58 56 59 61 71 71 72 70 72 69 66 69 64 66 65 68 70 55 64 63 57 48 57 63 58 62 66 62 46 49
50 50 50 50 50 52 50 53 54 53 53 51 54 55 57 45 52 59 62 62 60 62 71 73 68 69 66 61 64 62 67 63 66 55 64 66 56 60 63 65 63 62 62 64 61 60 51
49 49 49 49 50 50 52 53 53 53 53 48 53 59 63 59 59 58 57 59 62 66 67 66 66 69 69 64 65 62 66 64 62 63 64 66 55 58 55 62 62 57 62 63 63 63 63
49 49 48 49 49 51 53 53 52 51 52 48 60 66 61 55 57 56 58 62 64 68 70 73 70 69 66 69 70 71 72 70 71 63 61 61 55 51 45 55 53 42 54 59 62 65 64
49 49 49 49 50 52 53 53 52 51 52 56 61 65 54 52 58 59 62 66 66 68 65 72 73 69 69 75 74 72 70 69 68 67 69 59 56 49 43 40 35 58 68 66 62 65 68
48 48 50 50 51 51 52 51 50 50 50 53 58 59 57 45 62 62 64 66 69 70 68 69 68 72 75 70 59 52 51 49 56 64 63 66 55 44 37 42 52 58 64 61 59 58 66
50 50 50 50 50 51 50 50 50 50 49 52 54 58 55 54 57 68 65 68 62 58 59 60 69 74 72 63 54 47 45 53 52 54 63 61 60 47 43 37 34 55 63 67 66 48 64
49 49 50 50 50 49 49 49 49 49 49 51 55 57 57 53 68 68 64 64 68 60 57 60 60 61 66 53 42 48 49 61 48 45 39 44 44 39 41 38 46 63 65 66 46 48 63
49 49 49 49 49 49 49 48 48 49 50 51 54 56 56 56 69 72 75 69 69 64 55 61 59 61 58 49 49 51 45 53 54 58 48 44 43 38 43 35 34 66 63 52 58 63 64
49 49 49 49 49 49 49 49 49 50 51 52 50 57 60 55 64 69 68 71 71 70 67 63 64 63 63 58 54 53 41 41 48 46 64 49 56 50 50 49 63 67 64 67 66 63 63

GFSGBSN_sfc_temp_039.txt.gz
Temp
61 62 61 61 61 61 62 62 62 61 60 60 60 59 60 60 60 59 58 57 58 58 58 59 59 59 55 56 62 77 68 68 73 74 71 70 68 68 63 66 67 64 70 71 69 67 64
61 61 60 60 61 61 62 62 61 60 60 60 59 59 59 59 59 59 58 57 57 57 58 58 59 59 52 54 80 76 75 72 75 71 73 73 72 75 69 68 65 71 71 72 66 68 67
61 60 60 60 60 60 60 60 61 60 60 60 59 59 59 59 58 58 58 57 57 57 58 59 59 59 57 58 78 76 81 75 77 76 72 77 77 71 69 65 72 71 64 67 65 65 63
60 60 60 60 59 59 59 59 60 60 60 60 60 59 58 58 58 57 57 57 57 57 58 59 59 56 52 78 76 78 78 80 81 80 79 80 79 73 67 70 68 63 62 55 67 66 65
60 60 60 60 59 58 58 59 59 60 60 60 59 59 58 57 57 57 56 56 57 57 58 58 53 53 56 79 76 82 82 80 81 81 78 86 75 67 67 57 53 56 50 55 62 68 65
60 60 59 59 59 59 59 58 58 58 59 59 59 59 58 57 57 56 56 56 58 56 57 62 62 53 63 71 79 82 83 83 77 75 72 69 64 58 57 52 43 49 53 53 57 62 62
59 60 59 59 59 59 59 59 58 58 58 59 59 59 58 58 57 56 54 53 52 51 56 57 62 63 73 79 84 79 82 78 76 69 56 60 55 49 54 59 62 61 56 56 60 66 60
58 58 58 59 59 59 59 59 58 58 58 58 58 58 58 58 57 56 52 52 63 63 54 66 67 69 76 78 71 77 81 69 66 56 58 53 49 60 65 66 63 59 56 56 63 67 62
57 57 58 58 59 59 59 59 58 57 58 58 58 58 58 57 56 53 53 58 69 66 53 65 71 68 73 76 70 71 76 71 62 57 57 50 58 67 65 62 61 59 57 59 57 61 60
56 56 57 57 58 58 58 58 58 58 57 57 57 57 57 55 52 55 54 65 64 61 44 59 66 71 75 75 67 79 79 72 62 59 59 57 63 62 60 60 64 55 64 62 61 56 47
56 55 56 56 57 57 57 57 57 57 57 57 56 57 55 56 53 55 65 69 66 60 33 64 67 81 77 69 71 72 80 72 60 59 58 55 58 57 55 60 65 58 64 61 59 55 51
55 55 55 56 56 56 56 56 56 56 56 56 56 56 55 54 52 56 62 64 62 45 35 61 69 66 65 68 69 73 72 72 71 63 59 58 64 60 62 66 65 66 61 60 55 50 40
54 54 54 53 55 55 56 56 56 55 56 56 55 56 55 62 54 63 61 56 43 36 63 60 61 66 63 62 64 66 64 60 54 50 48 59 61 64 65 59 64 60 53 39 35 34 35
54 53 54 53 53 55 55 55 55 55 55 55 55 54 55 60 61 61 57 49 38 52 55 68 64 64 58 63 62 63 60 54 60 58 51 49 45 59 66 59 56 57 53 39 31 31 35
53 53 53 53 52 54 55 55 55 55 54 54 54 53 54 56 59 58 52 42 42 54 62 62 63 57 56 62 62 60 57 55 60 63 50 47 48 60 64 63 63 57 50 57 43 39 33
53 52 52 52 52 52 54 55 55 55 54 54 52 51 53 59 58 56 47 44 51 62 65 64 55 58 52 57 57 56 56 63 61 66 60 52 44 56 60 64 65 59 61 46 44 34 33
52 52 52 51 51 52 53 54 55 55 54 54 51 47 57 61 58 50 42 47 53 64 66 61 59 57 58 56 57 55 57 64 65 62 61 55 51 49 56 54 53 55 51 53 52 44 34
51 51 51 51 51 52 52 53 54 54 54 52 50 42 58 61 44 45 44 51 55 61 65 63 64 60 58 59 57 56 56 60 67 66 58 57 50 41 49 60 65 61 55 53 36 41 40
50 50 51 51 50 51 51 51 53 54 54 50 46 49 58 59 40 40 49 52 56 58 60 62 61 62 63 58 55 57 56 62 63 62 58 58 50 38 45 53 59 55 58 58 54 44 40
50 50 50 50 48 49 51 50 52 54 54 52 47 42 49 51 54 48 46 49 50 61 60 64 64 63 60 57 60 57 53 60 61 60 53 58 54 47 38 47 54 49 54 57 51 34 38
49 50 49 48 49 49 51 50 52 53 54 51 47 47 52 42 45 49 51 53 51 52 62 64 61 61 58 52 54 55 55 56 60 54 57 56 47 50 53 56 58 57 55 55 52 50 41
49 49 49 49 48 50 51 51 51 52 53 47 45 49 51 50 52 48 50 50 53 57 59 58 58 61 60 55 56 53 57 55 53 54 55 57 45 48 44 55 54 49 54 54 54 55 52
49 49 49 49 49 50 51 51 51 51 52 46 49 52 53 48 48 46 49 54 54 59 61 65 62 59 57 60 61 61 61 59 60 53 51 51 46 39 35 46 46 35 47 51 53 55 52
48 48 49 49 49 50 50 51 50 51 52 49 52 52 48 44 48 49 54 57 57 58 57 64 63 58 61 65 62 59 58 58 58 57 58 48 46 37 32 33 26 47 58 59 55 55 55
49 49 49 49 49 49 49 50 50 51 53 49 52 49 49 36 52 52 55 57 59 61 59 62 62 65 64 59 47 44 40 43 48 57 55 54 42 34 30 30 42 50 55 53 50 48 55
49 49 49 49 49 49 49 50 51 51 52 49 50 50 50 46 47 59 55 58 53 52 49 54 59 60 62 51 39 37 33 43 43 48 53 52 47 35 31 28 24 43 55 60 57 37 54
48 48 49 49 48 49 50 51 51 51 51 49 48 51 49 47 56 57 54 55 60 50 46 50 53 52 56 35 35 33 35 51 38 37 35 33 34 30 26 25 35 54 58 58 37 39 53
48 48 48 48 48 49 50 51 50 51 51 49 46 51 50 48 52 59 64 60 57 53 45 51 49 48 44 38 37 34 33 40 41 47 40 37 32 27 32 28 29 58 55 45 48 52 54
48 49 49 49 49 49 49 49 49 50 50 50 45 53 55 48 50 59 61 60 62 61 54 51 53 52 51 44 41 37 37 34 38 33 51 37 42 37 40 37 50 55 53 54 54 51 52

GFSGBSN_sfc_temp_045.txt.gz
Temp
61 61 61 60 60 61 61 61 61 60 60 60 59 59 60 60 60 59 58 58 58 58 58 58 58 59 53 52 58 69 68 67 67 67 65 63 61 59 55 58 59 57 60 61 63 61 60
61 60 60 60 60 60 61 61 60 60 59 59 59 59 59 59 59 59 58 58 57 57 57 58 58 58 50 50 71 71 69 67 67 64 63 65 65 65 60 61 57 61 59 59 59 60 61
61 60 60 59 59 59 59 59 59 59 60 59 59 59 59 59 59 58 58 57 57 56 57 58 58 56 50 57 68 67 71 68 68 67 66 68 68 63 62 61 64 63 57 58 58 59 60
60 60 60 59 59 58 58 58 58 59 59 59 59 59 58 58 58 57 57 57 56 57 57 58 58 51 49 68 65 68 66 70 72 70 68 70 70 65 62 65 61 57 54 49 58 59 63
59 59 59 59 59 58 58 58 58 58 58 59 59 58 58 57 56 56 56 56 56 57 58 57 50 49 51 69 66 73 73 71 72 70 68 77 67 60 61 54 49 50 48 47 54 61 60
59 59 59 59 58 58 58 58 58 57 58 58 58 58 58 57 56 56 55 56 56 55 56 59 58 48 59 64 70 74 72 74 69 67 65 63 57 53 50 49 41 44 45 42 49 56 57
59 59 59 58 58 58 58 58 58 57 57 57 58 58 58 58 57 56 53 52 52 50 52 54 56 56 62 69 72 70 73 70 67 64 53 56 50 46 50 51 53 52 50 50 54 60 58
58 58 58 58 58 58 59 59 58 57 57 57 57 58 58 58 57 56 51 48 55 56 49 58 60 60 66 68 61 68 74 64 60 54 53 52 47 55 58 56 55 52 51 49 56 59 56
55 57 57 58 58 58 58 59 58 57 57 57 57 57 57 57 56 53 50 53 62 59 47 55 60 60 63 66 60 62 69 63 56 52 52 48 53 59 58 54 53 51 49 53 52 56 53
55 54 56 57 57 57 57 57 57 57 57 56 56 56 56 56 52 52 50 58 58 57 42 50 56 61 65 66 60 70 70 65 56 54 53 51 57 56 54 53 54 46 56 55 53 49 44
55 55 54 56 56 56 56 56 57 57 57 56 56 56 55 56 52 51 58 58 57 54 29 57 59 72 67 62 63 64 71 65 56 54 54 51 53 52 51 55 58 52 56 54 52 49 45
54 55 54 54 56 56 55 55 55 56 56 56 55 56 55 53 51 52 57 57 55 40 30 52 61 58 58 60 61 64 65 66 62 55 53 52 56 56 56 61 59 59 54 51 48 45 37
54 54 54 54 53 55 55 55 55 55 55 56 55 55 54 58 50 55 58 56 41 32 54 52 54 57 55 54 56 58 57 54 50 45 43 51 53 55 59 53 58 54 47 36 33 32 34
54 54 54 54 54 54 55 55 55 54 55 55 54 54 54 58 53 53 57 49 34 44 47 57 57 55 52 55 55 56 53 49 52 51 44 43 41 54 59 54 51 49 48 36 32 29 34
54 53 53 53 54 53 54 54 54 55 54 54 54 50 52 55 55 52 50 39 38 45 55 53 55 49 49 54 54 53 50 50 54 54 46 42 44 53 57 58 58 49 44 50 38 34 30
53 53 53 53 53 53 53 54 54 54 54 54 46 47 50 57 57 51 43 43 47 54 58 55 48 51 46 49 50 50 49 55 54 57 56 50 43 52 54 57 57 54 55 42 39 33 30
53 53 53 52 52 53 52 54 53 53 54 54 46 41 52 58 56 45 37 43 49 58 58 51 49 48 51 49 50 47 51 56 57 55 56 51 48 46 52 49 50 49 47 46 45 38 32
52 52 52 52 52 52 52 53 53 52 53 51 41 37 52 56 43 43 39 46 51 55 57 54 53 52 51 51 49 49 50 55 59 56 52 52 46 39 48 53 55 52 49 47 34 37 34
52 52 52 52 52 52 52 52 53 52 53 47 40 43 53 55 38 40 45 47 51 53 52 52 51 54 54 50 47 49 51 58 57 56 51 52 43 35 42 48 50 49 50 50 45 38 36
51 51 51 51 52 51 51 52 52 52 52 48 42 37 45 47 49 44 42 43 44 54 52 53 51 53 51 50 52 49 50 55 56 57 52 53 45 43 38 43 49 43 49 49 46 32 36
51 51 51 51 51 50 51 52 52 52 51 47 42 42 45 39 41 44 45 44 43 45 51 53 49 49 49 44 48 48 50 51 54 51 51 53 44 45 46 49 49 49 49 48 45 45 38
51 50 50 50 51 50 51 51 51 52 52 43 39 42 43 42 47 44 45 42 44 47 49 48 48 52 52 48 50 48 50 49 50 50 50 51 42 44 39 46 47 45 49 48 47 47 46
50 50 49 50 50 50 50 51 51 52 49 42 45 47 44 45 43 42 43 44 45 49 50 53 53 52 48 52 55 57 55 54 55 51 47 47 41 36 36 39 40 34 42 47 48 49 49
50 49 49 50 50 50 50 50 50 51 49 45 48 48 43 37 43 43 45 47 46 49 47 52 54 50 55 58 55 54 52 52 52 50 51 43 40 34 30 32 25 45 49 50 46 45 46
49 49 49 50 50 50 50 50 50 50 51 43 48 46 43 34 44 47 45 46 49 51 49 51 54 60 58 53 45 41 37 41 44 47 48 48 37 32 30 30 37 44 46 47 45 41 47
48 48 50 50 50 49 50 49 49 50 52 46 45 49 45 40 43 50 45 48 44 44 45 49 56 58 54 45 36 36 34 40 39 43 47 44 41 36 28 27 25 41 48 52 50 35 49
48 49 49 49 49 49 49 49 49 50 50 46 45 49 46 40 45 50 46 46 51 46 43 46 52 49 52 37 32 33 33 45 36 36 34 32 31 31 24 25 33 45 51 52 38 39 48
48 48 49 49 48 48 49 49 48 49 49 46 45 49 46 41 45 48 48 47 49 50 43 46 47 45 39 37 36 34 31 38 36 41 38 37 31 26 26 23 30 49 49 43 45 45 48
47 48 49 48 48 48 48 49 49 49 49 48 43 50 50 43 44 49 49 51 49 52 52 46 49 47 47 41 37 36 33 30 35 31 43 38 40 36 38 36 46 46 48 47 48 48 47

GFSGBSN_sfc_temp_048.txt.gz
Temp
60 61 61 60 60 60 60 61 60 59 59 59 60 60 60 60 60 59 58 58 58 58 58 58 58 59 53 51 57 66 66 66 64 65 62 61 59 57 52 55 55 52 58 59 61 58 57
60 60 60 60 60 60 60 60 59 59 59 59 59 59 59 59 59 59 58 57 57 57 57 58 58 58 50 49 67 68 65 65 66 62 61 62 62 62 57 56 54 58 56 56 60 59 59
59 59 59 59 59 60 59 59 58 58 58 59 59 59 59 59 59 59 58 57 57 57 57 58 58 55 50 55 66 64 66 65 66 66 62 65 65 60 60 57 61 60 54 57 57 58 58
59 59 59 59 59 58 58 58 58 58 58 58 59 59 58 58 58 57 57 57 56 57 57 58 58 51 49 66 62 65 64 67 68 67 66 68 66 61 58 61 59 54 53 48 56 56 58
59 59 59 59 58 58 58 58 58 58 58 58 58 58 58 57 57 57 56 56 56 57 57 57 50 48 50 67 63 70 70 69 68 67 66 74 64 57 58 51 48 49 42 45 53 59 56
59 59 59 59 59 58 58 58 58 57 57 57 57 57 57 57 56 56 55 56 56 55 56 58 57 47 58 60 67 69 68 70 66 63 62 60 55 51 48 46 41 44 45 48 49 53 57
58 57 59 58 58 58 59 59 58 58 57 57 57 57 57 57 57 56 54 54 53 50 52 53 54 54 59 66 68 66 68 68 64 61 51 54 49 44 49 50 51 49 48 48 49 57 54
57 57 57 59 58 58 58 58 58 57 57 57 57 57 57 57 57 56 51 48 55 55 47 56 57 57 63 64 59 64 70 62 58 52 52 50 45 53 54 53 51 50 48 47 54 56 53
56 56 56 56 57 58 58 58 57 57 57 57 57 57 57 57 56 53 50 53 61 58 46 54 57 57 60 63 58 59 66 61 54 51 50 46 51 57 54 51 50 48 47 48 48 52 50
56 55 56 56 56 57 58 58 57 57 56 58 56 56 55 55 52 51 50 59 59 57 41 49 53 58 61 62 57 66 67 63 53 52 51 50 54 55 51 51 52 44 53 52 51 48 40
55 55 55 55 55 55 56 57 57 57 56 56 56 55 55 55 53 49 56 58 58 55 28 54 55 68 62 60 61 61 68 63 54 53 52 49 49 49 50 52 55 51 54 51 49 44 41
55 55 55 55 55 55 54 56 56 56 56 56 56 55 55 54 52 52 58 57 55 40 30 50 58 55 55 57 58 60 61 64 59 53 50 50 53 53 53 56 57 57 51 48 45 43 36
54 54 54 54 54 55 54 55 55 55 55 55 55 55 54 58 52 53 57 53 41 32 52 50 52 55 52 51 54 56 54 52 48 43 42 48 50 53 56 50 53 50 45 34 32 31 33
54 54 54 54 54 54 54 53 55 55 55 54 54 54 53 56 57 53 55 46 34 43 44 55 55 53 49 52 53 53 51 47 49 49 41 41 39 51 55 53 49 47 46 34 31 28 35
54 54 53 54 54 54 54 53 53 54 54 54 54 48 47 52 57 55 48 38 41 43 51 51 53 47 47 51 52 51 48 47 51 52 45 40 42 51 54 55 54 47 42 48 36 33 29
53 53 53 53 53 53 53 53 53 54 54 54 48 46 45 54 57 51 42 41 45 52 54 53 46 49 43 47 48 48 47 52 52 54 53 49 41 48 53 55 54 51 53 40 37 32 30
53 53 53 53 53 53 53 53 53 53 54 53 46 41 46 55 54 46 38 41 48 56 55 49 46 46 48 46 49 45 48 52 55 51 54 48 47 44 49 48 48 47 44 43 43 36 32
52 52 53 53 52 52 52 53 53 53 53 50 44 33 49 54 41 44 41 44 49 53 54 51 50 49 48 49 46 47 48 53 56 54 50 50 44 38 46 50 53 50 47 45 34 36 33
51 52 52 53 52 52 52 52 52 52 53 46 40 41 52 52 36 38 44 46 48 50 50 50 48 51 51 48 44 48 48 55 54 54 50 50 41 35 40 46 48 46 48 47 42 37 34
51 51 51 52 52 52 52 52 52 51 53 47 40 33 42 45 48 42 41 42 42 51 50 51 49 50 49 48 49 46 49 53 53 54 52 54 43 41 38 42 45 41 46 45 43 32 35
51 50 51 51 51 51 52 52 52 52 52 46 40 37 42 35 38 41 44 44 42 42 51 51 46 47 46 44 45 44 48 50 51 50 50 51 43 43 44 46 47 46 46 44 43 42 38
51 51 50 51 51 51 51 51 51 51 52 43 37 37 42 42 43 39 42 42 42 44 46 46 45 48 49 44 48 46 49 47 48 48 48 48 42 41 38 44 44 42 45 45 44 43 43
51 51 50 50 50 51 51 51 51 51 50 41 43 42 41 44 41 38 39 42 43 47 49 51 50 49 46 50 55 56 54 53 50 47 45 46 40 36 36 38 40 33 42 45 45 45 46
51 51 50 50 50 50 51 51 51 51 51 45 44 42 39 35 40 40 42 45 44 46 44 51 52 48 52 58 55 53 50 50 50 47 49 41 39 34 29 31 26 43 46 47 45 46 46
51 50 50 50 50 50 51 51 50 51 51 45 46 43 42 33 41 43 44 44 46 48 46 48 53 56 57 55 45 41 37 39 41 45 44 44 37 32 31 30 37 42 45 44 44 44 46
50 50 50 49 49 50 49 49 50 51 51 46 43 44 44 39 39 47 44 46 41 42 41 46 53 55 53 44 39 35 32 39 38 41 44 43 39 36 28 27 25 40 47 50 49 36 46
50 49 49 49 49 49 49 49 50 50 51 45 44 47 43 39 45 47 43 43 47 43 39 42 47 46 50 32 31 34 37 42 35 36 34 32 31 30 22 25 33 44 48 50 37 38 46
49 49 48 48 48 49 50 49 50 50 51 46 42 46 43 41 43 47 45 45 47 47 37 41 42 44 38 36 36 36 30 37 36 40 38 37 32 27 26 24 31 48 47 42 45 42 46
48 47 47 48 48 49 49 49 49 49 50 49 41 46 46 43 43 48 47 48 47 49 48 44 44 44 46 40 35 33 31 28 35 33 42 37 41 36 38 38 46 46 46 47 47 46 45

GFSGBSN_sfc_temp_051.txt.gz
Temp
60 61 60 61 61 61 61 61 60 59 59 59 59 59 60 60 61 60 59 58 58 58 58 58 59 59 57 58 61 70 66 66 67 69 69 68 67 66 62 63 63 61 64 64 66 63 63
60 59 59 60 60 61 61 60 59 58 58 58 58 59 59 59 60 59 59 58 57 57 58 58 59 58 55 55 73 70 67 67 70 70 68 69 69 69 66 64 63 65 62 62 63 63 63
60 60 59 59 59 60 60 59 59 58 58 58 58 58 59 59 59 59 58 58 57 57 58 58 58 57 53 59 70 69 68 71 70 71 69 70 72 69 68 64 68 66 61 63 63 64 63
59 60 60 59 58 58 58 59 59 59 58 58 58 58 57 58 58 57 57 57 57 57 58 58 58 55 53 68 68 67 69 70 71 72 73 74 72 69 66 68 65 61 60 56 63 64 63
59 58 59 59 59 58 58 58 58 59 58 58 57 57 57 57 57 57 56 56 57 57 57 57 53 54 54 69 67 72 72 72 69 70 71 75 71 64 65 60 57 57 54 54 58 64 62
58 59 59 58 59 58 58 57 57 58 57 57 57 57 57 56 56 56 55 56 57 56 57 58 57 53 60 65 69 72 71 73 71 68 67 67 63 61 58 58 49 52 54 56 56 61 61
58 58 58 58 57 58 59 58 57 57 57 57 57 57 56 56 57 56 56 55 55 52 52 55 57 57 62 68 70 70 71 71 70 68 60 60 59 54 57 57 57 56 55 55 57 62 60
57 57 57 58 57 57 58 60 57 57 57 57 57 57 57 57 57 55 55 52 55 55 47 57 57 58 63 67 60 66 72 66 64 58 59 57 53 59 59 58 56 56 54 54 58 61 59
56 56 57 57 57 58 57 58 58 57 57 57 57 57 57 56 55 54 54 54 61 59 47 54 57 57 60 64 59 61 69 65 60 55 56 53 58 59 58 57 55 56 54 54 55 59 59
55 55 56 56 57 57 57 56 57 57 57 56 57 57 55 55 52 53 51 59 60 58 42 50 53 58 61 63 59 68 70 67 60 57 55 56 59 57 56 55 57 52 58 57 56 55 51
55 55 55 55 56 55 56 56 55 57 57 57 55 57 55 55 51 50 57 59 59 55 32 55 54 68 62 61 63 62 69 67 57 56 57 55 54 54 54 56 59 56 59 57 56 53 52
55 55 55 55 55 55 55 55 55 55 56 56 56 56 55 53 53 55 57 59 56 42 31 51 57 54 54 59 61 63 65 66 63 57 57 57 61 59 60 60 60 60 57 53 52 51 43
54 54 54 54 54 54 55 55 55 54 55 55 55 55 54 56 51 55 58 55 40 34 52 50 51 55 54 54 56 58 56 55 54 48 48 54 56 60 61 57 60 58 53 44 42 41 41
54 54 54 54 54 54 54 54 54 54 54 55 54 54 54 55 57 56 55 45 33 43 45 55 55 53 50 54 55 56 53 52 55 54 48 48 46 56 59 59 56 54 54 44 36 37 43
54 54 54 54 54 54 54 54 54 54 53 54 54 50 49 51 56 54 48 36 40 44 51 51 54 49 49 53 55 54 51 53 56 56 51 44 47 58 58 60 61 53 50 54 42 39 40
54 53 53 53 53 53 53 53 54 54 53 53 47 46 47 52 55 50 42 41 44 53 55 54 46 51 45 49 50 51 48 54 54 57 60 53 47 54 58 61 59 56 58 47 45 37 35
53 53 53 53 53 53 53 53 53 53 53 53 45 40 50 53 53 44 36 41 48 54 56 51 48 47 50 48 51 48 50 56 58 55 59 54 53 50 55 54 54 52 51 48 50 45 40
52 52 53 53 52 53 53 53 53 53 53 50 43 34 48 53 38 42 39 46 50 52 55 53 53 50 50 51 48 48 49 56 58 57 53 56 50 43 51 56 59 56 53 52 44 42 41
51 52 52 52 52 52 52 52 52 53 52 45 38 39 48 50 34 37 44 45 50 49 51 51 50 52 53 50 46 50 50 57 55 56 54 54 47 43 47 51 55 53 53 51 48 44 40
51 51 51 52 52 51 52 51 52 52 53 46 39 32 40 42 47 43 40 41 42 51 50 53 51 52 51 49 51 50 50 55 54 57 51 56 48 47 43 48 52 47 50 51 51 42 44
51 51 51 51 51 51 51 51 52 52 52 46 39 36 42 33 37 41 44 43 41 42 50 51 48 50 49 45 48 47 52 53 54 51 54 56 48 47 49 51 51 52 51 49 49 50 46
50 50 50 51 51 51 51 51 51 52 52 43 36 37 41 42 42 39 41 41 41 44 47 46 46 48 50 46 49 47 51 52 51 51 51 52 48 46 45 49 50 48 51 50 50 50 49
49 50 50 51 51 51 51 50 51 51 51 41 43 44 43 42 39 37 38 42 44 47 48 52 50 49 46 50 55 55 55 55 55 52 48 48 44 42 41 44 46 39 46 50 50 52 53
50 50 50 51 51 51 50 50 51 51 50 45 44 44 39 35 37 38 41 43 44 47 44 50 52 49 53 59 58 56 54 52 51 51 53 46 44 41 37 37 33 51 52 54 52 52 54
49 49 50 51 51 50 50 50 51 51 51 45 46 42 40 34 41 41 42 42 46 48 47 49 52 55 56 54 45 44 42 42 44 47 48 50 42 37 36 38 44 49 51 51 50 54 55
50 50 51 50 49 50 50 50 51 51 51 46 46 45 43 38 38 46 43 44 42 42 42 46 54 56 53 44 41 36 36 41 41 44 47 43 44 43 34 35 34 47 54 54 57 45 54
50 50 50 49 49 49 49 50 51 51 51 48 44 48 43 38 43 45 43 43 48 44 41 43 48 48 52 37 35 35 37 46 39 37 37 38 37 38 33 36 41 50 53 55 44 49 53
49 49 48 49 49 49 49 50 50 51 51 49 42 47 45 40 43 45 45 45 47 47 39 43 45 45 40 36 36 37 35 41 41 43 41 41 38 35 35 34 37 52 51 48 55 52 53
49 49 49 49 49 49 49 50 50 51 51 49 40 46 46 40 42 48 48 49 50 55 48 46 46 45 47 42 39 38 35 35 41 39 45 40 45 43 45 45 53 52 56 55 54 55 51

GFSGBSN_sfc_temp_054.txt.gz
Temp
61 61 60 60 60 61 61 61 60 59 59 58 58 59 59 60 61 60 59 59 59 59 59 59 59 59 66 68 73 79 67 68 77 79 79 78 75 75 70 73 73 70 73 75 75 72 73
60 61 60 60 60 60 60 60 59 59 59 58 58 58 59 59 60 60 59 58 58 58 58 59 59 58 64 62 81 79 78 78 81 80 79 79 78 78 74 73 71 73 73 72 72 72 72
60 59 60 59 59 59 60 59 59 59 60 58 58 57 58 58 59 59 58 58 58 57 58 59 59 63 61 66 81 81 79 80 83 82 78 81 80 76 76 72 75 74 68 71 72 72 70
59 59 59 58 59 59 58 58 58 59 59 59 58 57 57 57 57 57 57 57 57 57 58 58 58 63 62 77 82 77 82 80 82 83 81 82 81 77 74 77 74 70 69 64 71 72 71
58 58 59 59 58 58 58 58 58 59 58 58 58 57 56 56 56 56 56 57 57 58 58 58 60 61 63 72 71 81 82 78 79 79 80 80 79 74 74 69 66 68 61 62 66 73 71
58 59 59 58 58 58 57 58 58 58 58 58 57 58 57 56 56 56 55 56 59 57 61 63 64 58 68 71 77 79 83 82 77 76 74 74 75 70 71 67 57 60 61 65 62 70 70
58 58 58 58 58 58 58 57 58 57 57 58 58 58 57 56 57 56 59 69 64 61 60 64 65 66 70 77 78 78 80 77 78 75 68 72 67 63 67 67 67 66 64 63 68 70 67
57 57 57 58 58 58 58 58 57 57 57 58 58 57 57 57 56 56 60 61 62 61 56 67 65 67 71 72 68 75 81 72 70 66 69 65 62 69 69 67 64 64 63 63 66 68 66
56 56 57 57 57 57 58 58 57 56 57 57 57 57 57 58 56 57 63 63 69 67 56 62 66 65 67 70 67 72 76 75 70 66 66 64 66 67 66 65 62 64 62 62 63 67 70
55 55 56 56 56 57 57 57 57 57 55 56 56 57 56 56 54 63 61 68 69 66 52 59 59 65 66 71 64 79 79 76 68 65 67 66 71 65 64 63 66 60 68 65 64 62 57
55 55 55 56 56 56 55 56 56 56 56 55 56 56 55 55 57 60 65 69 67 63 39 63 60 73 69 68 70 70 81 74 67 65 65 62 64 63 61 64 67 62 66 64 64 62 60
55 55 55 55 55 55 55 55 55 55 56 55 55 56 55 55 56 64 68 67 64 50 38 57 62 59 57 63 66 71 70 75 76 68 67 68 70 68 68 68 68 68 64 63 63 62 50
54 54 55 55 55 55 55 55 55 55 55 54 54 55 55 61 56 67 65 62 47 42 59 57 57 59 59 59 63 66 64 62 61 55 56 64 64 69 68 64 67 66 61 50 47 48 46
54 54 54 54 54 54 54 54 54 54 54 54 53 54 54 59 63 63 60 49 40 53 55 61 60 59 55 61 63 64 63 60 67 66 61 55 52 64 69 66 63 63 62 51 40 43 51
54 54 54 54 54 54 54 54 54 54 54 54 53 50 50 53 60 57 49 39 46 53 60 57 59 54 53 57 62 62 61 61 65 67 58 56 57 67 67 69 69 60 56 64 52 49 48
54 54 54 53 53 54 54 54 54 54 54 53 48 46 48 54 59 48 42 43 53 62 62 60 53 58 52 53 53 58 59 65 64 69 72 62 54 63 64 68 66 64 68 53 56 41 41
54 54 54 53 53 53 53 53 53 53 54 53 48 40 55 54 54 41 36 46 55 63 63 57 57 55 56 55 57 56 57 62 68 65 71 67 62 56 62 60 61 59 58 59 60 55 46
49 52 53 53 53 53 53 53 53 53 53 51 43 34 55 57 36 38 39 50 55 59 62 59 58 57 55 57 56 58 57 63 69 70 60 67 62 53 58 64 66 68 63 62 51 48 52
52 51 52 52 53 53 53 53 53 53 52 49 38 39 50 54 32 33 44 49 55 56 58 57 55 58 58 54 52 58 60 68 67 66 64 65 58 50 53 58 62 61 64 64 62 57 52
51 52 52 52 52 52 52 52 52 52 52 50 38 33 39 43 53 42 41 45 47 57 58 59 58 59 56 53 55 54 57 60 63 68 55 63 62 56 50 56 63 56 60 63 60 51 53
50 51 51 51 51 52 52 52 52 52 51 48 39 37 41 32 40 46 46 48 46 48 57 59 55 56 55 50 52 52 56 57 59 55 63 65 56 60 62 64 64 62 62 62 59 60 54
50 50 50 50 51 51 52 52 51 51 51 44 35 43 46 45 45 45 46 44 47 51 53 52 53 55 57 53 55 49 54 56 58 59 61 64 56 59 55 62 61 58 62 63 63 63 61
50 50 50 50 50 51 51 51 51 50 50 43 47 54 51 45 44 41 44 45 47 52 56 59 57 54 52 56 60 60 60 60 61 59 57 57 57 53 49 57 56 44 55 61 62 64 63
50 50 50 50 50 51 51 51 50 50 50 51 49 51 44 41 43 42 46 49 49 52 50 57 59 54 58 63 62 61 58 59 60 60 62 56 55 54 47 42 35 59 65 67 64 66 68
49 50 50 50 50 50 50 51 50 50 50 50 53 51 48 38 47 46 46 47 51 53 53 55 59 62 62 58 51 46 47 46 54 59 58 61 56 48 42 45 55 55 58 59 59 61 70
49 49 49 49 50 50 50 50 50 50 51 49 55 56 51 45 44 51 45 49 47 48 50 54 62 62 61 51 48 42 41 46 46 49 53 55 55 52 44 42 37 58 68 69 66 53 71
48 49 49 49 49 50 50 50 50 50 50 48 48 56 51 45 52 53 44 46 53 53 49 53 54 53 60 48 40 42 43 53 43 44 40 44 45 43 46 43 53 64 66 66 50 56 70
48 48 49 49 49 50 50 50 50 50 49 50 48 55 52 47 51 53 55 50 53 53 47 53 51 52 50 44 45 46 43 48 50 55 48 47 45 41 47 40 40 62 61 58 67 68 70
49 49 49 49 50 50 49 50 49 50 50 51 42 52 55 48 43 48 51 52 50 62 57 55 54 55 55 50 49 51 42 42 50 43 55 46 53 52 52 55 66 64 69 70 70 71 66

GFSGBSN_sfc_temp_057.txt.gz
Temp
60 61 61 61 61 60 61 61 60 59 60 59 59 58 59 60 60 60 59 59 59 59 59 59 60 60 68 73 77 84 68 69 80 83 82 82 79 79 75 78 78 75 78 80 82 79 79
60 60 60 60 60 61 61 60 60 59 59 59 59 58 58 59 59 59 59 59 58 59 59 59 60 58 69 65 89 89 86 80 85 84 84 85 82 84 78 78 76 79 78 79 80 80 79
59 59 59 59 58 59 60 59 59 59 59 59 59 58 58 58 58 58 58 58 58 58 58 59 59 67 66 70 89 90 86 86 88 87 83 87 86 81 82 75 82 79 73 77 75 79 77
59 59 59 59 59 58 58 59 59 59 59 59 59 59 58 57 57 57 57 57 57 58 58 59 59 69 63 87 91 86 88 85 88 89 87 89 87 82 79 82 78 73 74 65 55 66 77
59 59 59 59 58 58 58 57 58 59 59 59 59 58 58 57 56 56 56 57 57 58 59 59 64 66 66 74 77 86 88 83 86 86 86 86 83 78 80 71 69 72 62 63 64 77 75
59 58 59 59 58 58 58 58 57 58 58 58 58 58 58 57 56 56 55 56 61 57 61 70 71 63 71 74 83 86 88 86 81 80 78 76 77 72 74 71 59 64 64 68 62 63 74
58 59 58 58 58 58 58 58 58 57 57 58 58 58 58 57 56 56 58 71 66 62 67 66 71 70 75 83 84 83 87 82 82 77 67 74 69 65 71 73 72 70 68 67 64 66 71
57 57 57 58 58 58 58 58 57 57 57 57 57 58 57 57 57 56 60 66 70 67 60 72 72 73 78 79 72 80 86 74 72 67 73 71 63 73 75 72 69 68 66 66 72 74 71
56 56 57 57 57 57 58 58 57 57 57 56 57 57 57 57 57 58 63 69 76 72 59 67 74 72 74 77 70 76 80 77 71 67 70 66 71 75 70 69 66 67 65 66 66 70 73
55 55 56 56 57 57 57 57 57 57 57 56 55 56 56 55 54 65 65 74 76 71 54 63 66 71 75 76 67 81 82 76 73 67 70 69 75 70 69 66 69 62 72 69 67 65 58
55 55 55 55 55 55 56 56 56 56 56 56 55 55 55 54 59 64 73 75 74 66 41 68 69 80 76 69 75 74 85 78 69 69 71 65 69 67 65 67 72 66 70 68 68 65 64
55 55 55 55 55 55 55 55 55 55 56 55 55 55 55 55 58 61 69 72 67 51 41 62 68 63 64 67 73 78 76 80 80 71 72 70 78 74 72 73 72 74 68 67 67 64 52
55 55 55 55 55 55 55 55 55 55 55 55 55 55 55 63 53 68 61 57 49 43 65 61 61 65 64 63 66 70 67 63 63 57 58 66 68 73 74 67 71 69 64 51 46 49 49
54 54 54 55 55 55 54 54 54 54 54 54 54 53 53 61 66 60 53 45 41 55 58 66 66 65 60 66 65 66 64 61 66 67 62 57 54 68 73 69 66 65 64 52 40 44 51
54 54 54 54 54 54 54 54 54 54 54 54 53 57 50 58 63 57 43 35 46 57 66 63 64 59 60 65 65 65 63 62 66 70 60 59 59 74 74 74 72 65 59 69 56 56 50
54 54 54 54 54 54 54 54 54 54 54 53 53 54 54 56 62 54 38 36 51 64 67 66 57 62 58 60 61 62 62 68 66 72 75 67 57 69 70 73 73 68 71 56 58 41 41
53 54 54 53 54 53 54 53 53 53 53 53 49 41 58 61 54 44 33 44 53 65 69 63 60 60 62 61 62 61 63 67 70 70 73 71 63 61 67 63 64 63 61 63 64 58 45
53 53 53 53 53 53 53 53 53 53 53 50 45 35 57 57 36 40 38 49 53 59 64 65 66 63 63 63 61 61 60 65 70 71 64 70 64 56 59 71 74 68 65 64 53 52 56
52 51 52 52 50 53 53 53 53 53 53 47 39 41 56 54 32 37 47 50 56 56 59 61 61 64 66 62 57 62 64 69 70 68 66 69 61 51 56 63 68 64 67 67 65 62 51
52 52 52 52 52 51 52 53 53 52 52 48 39 33 40 43 50 45 45 47 50 56 57 61 61 65 62 59 63 60 62 64 68 68 60 66 63 57 51 58 65 59 64 67 64 53 54
51 51 51 51 52 51 50 52 52 52 52 47 39 39 43 33 37 46 50 50 50 48 57 59 55 61 60 56 59 57 61 62 62 59 64 66 57 61 63 66 67 65 64 64 62 63 55
51 51 50 50 51 51 51 49 51 52 51 43 35 46 49 48 44 46 47 47 50 52 55 53 52 57 62 58 60 56 59 59 57 62 62 68 57 61 58 65 65 61 66 66 67 66 65
50 50 50 50 50 51 52 52 52 51 50 42 42 57 52 46 43 43 46 48 50 55 58 62 59 56 57 61 64 64 62 61 60 57 61 62 59 56 50 62 61 52 61 64 66 69 67
50 50 50 50 50 50 51 51 51 51 50 45 46 57 46 42 42 46 49 52 52 55 53 60 63 57 62 68 65 64 60 60 58 59 63 58 58 57 49 45 38 59 71 70 66 68 72
50 50 50 50 50 50 50 50 51 51 51 46 53 55 49 40 48 48 49 51 54 55 53 58 63 67 66 62 50 48 48 46 51 55 58 62 57 50 44 46 55 62 65 65 64 64 73
49 50 50 50 50 50 50 49 50 51 51 47 53 61 53 46 47 54 50 52 49 50 52 56 66 69 63 52 48 42 42 49 46 49 59 59 59 51 48 43 39 57 69 75 73 56 74
49 49 48 49 50 50 50 49 50 51 50 47 49 60 55 47 54 54 46 49 56 54 51 54 59 57 60 48 41 44 46 57 45 43 42 45 48 44 46 45 54 68 71 76 52 56 75
48 48 48 49 49 50 50 50 50 50 50 48 51 59 54 49 54 57 58 52 55 57 49 55 53 53 51 43 45 47 47 53 50 55 50 45 44 42 47 44 41 68 68 60 68 74 75
48 48 48 48 49 49 50 50 50 50 50 49 48 57 59 50 48 57 54 55 56 62 60 58 55 56 58 52 52 53 46 47 51 45 62 48 55 51 55 55 67 68 68 74 77 75 75

GFSGBSN_sfc_temp_060.txt.gz
Temp
60 61 60 60 60 61 61 61 60 60 59 60 60 59 59 59 60 59 59 59 59 59 60 60 60 60 65 70 74 78 69 69 79 80 79 80 77 77 72 77 79 75 77 80 81 81 80
60 59 59 59 59 59 60 61 60 59 59 60 59 60 59 59 59 59 58 58 58 58 59 59 60 58 66 59 89 90 86 80 83 81 80 82 80 82 77 76 75 78 78 78 75 75 75
60 60 59 59 59 59 59 58 59 59 59 59 60 59 60 59 58 58 58 58 58 58 59 59 60 64 63 64 86 91 89 85 86 85 80 85 86 80 79 74 81 79 71 74 67 70 68
60 59 59 59 58 58 58 58 58 59 59 59 59 59 59 59 57 57 57 57 57 58 59 59 60 64 60 83 89 87 89 86 89 89 86 89 88 80 76 80 76 71 71 62 64 70 74
59 59 59 59 58 58 58 57 58 58 58 58 59 59 58 58 57 56 56 56 57 58 59 60 61 63 62 79 77 85 88 82 85 86 86 88 83 75 75 68 65 68 60 65 62 69 68
59 59 59 59 58 58 58 58 57 57 57 57 58 58 58 58 57 56 55 56 60 60 63 69 69 62 69 71 83 84 88 86 82 80 77 76 73 67 69 65 54 61 63 66 63 66 68
58 58 58 58 58 58 58 58 58 57 57 57 57 58 58 57 57 56 57 64 62 59 64 64 68 66 74 82 86 81 85 81 81 76 65 71 63 59 66 70 71 69 65 64 66 72 68
57 57 57 58 58 58 58 58 57 57 57 57 57 57 57 57 57 57 59 58 70 69 57 71 70 70 76 80 70 78 86 72 71 64 69 66 59 68 74 73 69 67 64 64 70 72 69
56 56 56 57 57 57 57 58 57 57 57 56 56 56 57 57 56 56 57 61 76 74 57 64 71 71 73 76 69 73 80 74 68 64 66 61 67 74 71 69 65 66 63 64 64 65 71
55 55 56 56 56 56 57 57 57 57 56 56 56 56 55 56 52 62 59 70 71 72 48 58 67 71 75 75 66 79 83 76 70 64 66 66 73 71 68 65 68 61 71 69 67 62 56
55 55 55 55 55 55 55 56 56 56 56 56 55 55 55 54 59 59 65 65 75 65 34 69 71 82 77 69 73 71 82 76 66 67 68 63 67 67 64 66 71 64 71 68 66 62 61
55 55 55 55 55 55 55 55 55 55 55 56 55 55 55 53 57 61 67 62 64 45 36 61 67 64 65 68 69 75 72 79 77 68 70 69 77 73 71 72 72 73 68 66 65 61 49
54 54 55 55 55 55 55 55 54 55 55 55 55 55 55 59 51 66 61 54 44 39 62 60 61 65 62 62 63 67 65 64 61 55 56 65 66 74 75 67 71 68 62 49 43 45 45
54 54 54 54 55 55 54 54 54 54 54 54 54 53 55 59 62 60 53 43 37 51 53 70 69 65 58 64 62 63 64 60 66 65 59 54 50 66 72 67 64 63 61 50 39 35 45
54 54 54 54 54 54 54 54 54 54 54 54 54 55 54 58 60 57 44 33 41 52 62 59 64 60 59 64 64 61 62 61 66 67 57 54 55 71 72 72 70 63 57 66 55 49 43
54 54 54 54 54 54 54 54 54 54 54 53 50 52 52 61 60 51 38 35 47 58 63 64 54 62 56 60 60 60 60 67 65 70 71 63 53 66 71 73 72 66 70 55 57 40 39
53 53 53 53 53 53 54 54 54 54 53 53 47 41 55 61 55 42 33 38 47 59 62 56 55 57 60 60 62 60 60 67 70 69 70 67 61 60 69 64 61 62 59 61 61 56 44
52 53 53 53 53 53 53 53 53 53 53 50 44 35 54 58 37 39 36 44 51 55 61 59 59 59 57 62 59 59 60 65 74 71 62 66 61 52 59 70 71 68 62 62 51 49 53
52 52 52 53 53 53 53 53 53 53 53 47 39 40 52 54 32 34 43 45 49 51 55 58 56 59 61 59 53 60 62 71 71 70 65 66 58 49 54 62 68 62 64 64 63 61 52
52 52 52 52 52 52 52 52 52 52 53 47 39 33 40 43 50 43 41 43 44 53 54 59 58 62 58 55 59 57 60 68 69 69 57 62 60 55 46 52 62 58 62 64 60 48 52
51 51 51 52 52 52 52 52 52 52 52 47 39 35 44 34 37 44 46 47 44 45 53 57 56 57 55 47 49 52 60 60 67 60 66 63 54 58 60 63 64 62 62 62 61 59 48
51 51 51 51 51 51 52 52 51 52 52 44 33 39 48 48 45 42 44 45 46 49 51 50 51 56 57 50 51 49 55 53 54 64 62 64 54 57 52 61 62 58 63 64 64 64 64
50 50 50 50 50 51 51 52 51 50 51 44 41 50 48 44 42 39 41 45 47 52 54 58 56 55 55 56 58 48 52 54 64 61 57 58 56 52 45 57 58 48 59 63 65 68 66
50 50 50 50 51 51 51 51 51 51 50 43 43 51 40 38 42 42 45 47 48 51 50 57 60 55 62 69 57 55 49 54 58 60 61 55 56 53 43 42 37 58 69 69 64 67 70
50 50 50 50 50 50 50 50 51 51 50 46 46 49 44 36 47 46 47 47 50 53 52 55 60 65 68 58 47 40 39 42 51 57 57 59 53 39 40 42 52 59 64 63 61 61 71
50 50 50 50 50 50 50 50 50 51 50 46 45 53 49 41 43 52 48 50 46 48 50 54 63 66 63 54 43 34 33 45 39 49 57 53 54 46 41 37 36 53 66 72 70 51 70
50 50 50 50 50 50 50 49 50 50 51 48 44 49 49 44 50 53 46 47 54 51 49 53 56 53 55 46 40 39 41 52 43 42 40 40 40 38 40 37 48 64 68 70 49 52 71
49 49 49 49 49 49 49 49 49 50 50 48 44 49 46 44 51 50 50 48 52 54 46 54 51 51 42 41 42 44 42 48 48 54 46 42 38 37 41 36 36 66 66 57 62 67 72
49 48 47 48 49 49 49 48 49 49 49 50 43 49 52 47 46 55 55 54 59 55 52 55 53 48 51 46 49 49 44 45 49 41 60 44 51 45 46 48 63 63 64 67 68 67 69

GFSGBSN_sfc_temp_066.txt.gz
Temp
60 60 60 60 60 60 60 60 59 58 58 59 59 60 60 60 60 59 58 57 57 58 58 58 59 59 56 53 58 71 68 68 69 70 68 67 63 60 57 59 61 59 63 66 68 67 63
59 59 59 59 59 60 60 59 59 58 58 58 58 58 59 59 60 59 59 58 57 57 57 58 59 59 52 46 71 74 70 68 70 68 67 67 65 66 62 61 57 63 63 64 65 66 64
59 59 59 58 58 58 59 58 58 58 58 58 58 58 58 58 59 59 58 58 57 57 57 58 59 59 53 51 67 69 72 68 70 70 67 70 70 63 63 60 65 64 58 61 61 61 60
59 59 59 59 58 57 57 57 58 58 58 58 58 58 57 57 57 57 57 57 57 57 58 58 59 57 48 67 65 66 66 66 71 73 72 73 71 66 62 65 62 58 54 48 58 60 64
59 59 59 58 58 58 58 57 57 58 58 57 57 57 57 56 56 56 56 56 57 58 58 58 54 51 46 68 64 68 70 68 72 72 71 78 69 62 61 52 48 49 43 49 55 61 61
59 59 59 58 58 58 58 58 57 57 57 57 57 57 56 56 56 55 55 56 58 57 56 61 60 48 56 61 69 72 69 71 69 68 65 64 59 54 51 47 41 43 46 45 49 56 57
58 58 58 58 58 58 58 58 58 57 57 57 57 57 56 56 56 56 53 52 51 49 51 51 53 53 61 69 73 69 72 69 67 62 54 58 50 49 50 52 55 54 51 49 55 60 56
56 57 57 57 57 57 58 58 57 57 57 57 56 56 56 56 56 55 52 46 51 49 42 56 57 58 63 67 59 65 70 62 59 53 56 53 49 58 58 57 55 54 53 52 56 62 58
56 56 56 56 57 57 57 58 57 56 56 56 56 56 56 55 55 51 48 50 59 54 41 52 59 58 60 63 56 59 65 62 57 52 54 50 55 62 59 56 54 55 52 53 53 57 56
56 55 55 56 56 56 56 56 56 56 56 56 55 55 55 55 49 49 47 57 58 54 35 45 53 58 62 63 54 69 70 64 58 54 55 52 62 59 56 55 56 49 60 59 57 50 43
55 55 55 54 55 55 55 55 55 55 56 56 55 55 55 55 47 46 54 58 58 50 24 53 56 69 64 58 60 61 71 62 55 57 56 51 55 55 54 56 60 55 62 59 58 51 45
54 54 54 54 54 54 54 54 54 55 55 55 55 55 54 50 45 48 56 57 50 36 25 47 60 55 55 58 60 63 60 64 64 58 58 57 64 59 59 63 62 64 58 56 53 47 37
53 53 53 54 54 54 54 54 54 54 54 54 54 54 53 53 42 49 55 49 36 28 51 49 53 57 54 52 56 57 55 52 48 45 46 55 56 61 63 56 60 58 50 37 35 34 34
53 53 53 53 53 53 54 54 54 54 54 54 54 53 53 52 48 49 49 40 28 41 44 55 54 55 49 53 53 55 51 46 54 50 47 45 41 56 61 58 54 52 51 37 33 29 36
53 53 53 53 53 53 54 54 54 54 53 54 53 49 47 49 48 47 40 30 33 41 50 49 52 46 47 54 54 52 50 49 53 55 44 44 45 59 62 63 61 53 46 56 43 40 33
53 52 52 52 53 53 53 53 54 54 53 53 47 46 46 51 48 45 35 33 38 48 50 49 41 47 42 47 45 45 47 54 54 57 59 52 43 57 61 61 62 59 59 44 42 34 31
52 52 52 52 52 52 52 53 53 53 53 53 46 40 49 50 47 39 30 35 41 49 49 44 43 41 44 45 48 47 45 52 55 58 59 56 49 48 56 54 52 52 48 48 48 43 33
51 51 51 52 52 52 53 53 53 53 53 50 44 34 47 52 34 36 32 38 45 44 49 46 47 44 42 45 43 45 47 52 59 58 51 56 50 43 49 58 62 59 54 51 39 39 39
50 51 51 51 51 52 51 52 52 52 53 47 39 38 47 48 28 30 37 39 41 41 43 43 43 47 47 42 38 45 48 56 56 54 51 53 46 38 43 51 58 52 54 56 50 45 40
50 50 50 51 51 51 51 51 51 52 52 48 36 32 39 40 39 35 35 36 37 46 42 43 42 46 43 40 44 40 44 53 54 53 51 52 49 46 40 45 50 47 52 57 53 36 40
50 50 50 50 51 51 52 52 52 52 52 47 37 34 38 31 33 36 38 38 36 36 44 45 40 40 39 36 39 40 45 47 53 52 52 50 43 49 52 54 55 53 52 54 50 49 42
49 49 49 50 50 50 51 51 51 51 52 45 32 35 39 35 40 35 36 34 35 39 40 39 38 43 43 37 40 37 43 44 46 50 48 49 40 46 45 52 55 52 55 53 52 52 51
49 49 49 50 50 51 51 51 51 51 50 43 42 42 43 40 36 34 33 35 38 40 42 44 44 41 40 43 46 47 48 47 47 45 44 43 40 38 37 47 50 40 49 51 52 54 53
49 50 50 50 50 51 51 51 51 51 50 47 44 44 37 32 35 35 38 40 38 40 37 45 46 41 47 53 49 47 46 47 47 46 49 42 40 38 31 37 32 49 58 56 54 57 60
49 50 50 50 50 50 50 50 51 51 51 44 45 43 38 33 36 38 39 40 41 42 41 42 46 50 51 46 38 37 34 37 40 45 45 47 40 32 31 34 42 48 53 54 53 50 58
49 49 49 49 49 50 50 50 50 50 51 45 44 46 42 36 35 43 40 41 36 36 37 41 50 52 47 39 34 29 26 33 34 39 46 43 42 36 32 29 31 43 54 60 59 41 58
49 49 49 49 49 49 49 50 50 50 50 47 44 46 40 33 41 43 38 38 44 39 35 39 42 43 46 32 27 27 30 41 32 31 31 33 32 32 32 32 35 47 54 59 43 44 56
48 48 49 49 49 49 49 49 50 50 50 47 44 46 41 33 38 46 47 41 43 43 35 39 39 40 36 31 30 29 26 35 35 40 36 33 32 31 32 31 28 53 55 47 49 54 57
48 48 49 49 49 49 49 49 49 49 50 49 42 46 47 41 39 47 50 51 53 51 45 42 41 42 41 34 32 32 28 28 34 31 45 34 41 36 38 38 51 53 54 53 55 53 55

GFSGBSN_sfc_temp_072.txt.gz
Temp
60 59 59 59 59 59 59 59 59 58 57 57 57 58 58 59 59 59 58 57 57 58 58 58 58 58 55 48 53 64 68 67 64 65 64 62 58 57 53 54 55 52 56 58 61 60 57
59 59 59 59 59 59 59 58 58 57 57 57 57 57 57 58 58 58 57 57 57 57 57 58 58 58 50 44 65 64 64 62 63 62 62 63 61 62 57 55 54 57 57 57 58 60 58
59 59 59 58 58 58 58 57 57 57 57 57 57 57 57 57 57 57 57 56 56 56 57 58 58 56 49 50 61 61 63 61 62 63 61 64 64 59 58 53 59 57 52 54 54 55 55
59 59 59 58 58 57 57 57 57 57 57 57 57 57 56 56 56 56 56 55 56 56 57 58 58 53 45 64 59 59 57 60 64 64 63 64 64 60 57 59 56 51 49 43 52 54 56
58 58 58 58 57 57 57 57 57 57 57 57 57 56 56 55 55 55 55 55 56 57 57 57 52 50 44 65 59 63 62 61 63 64 63 72 63 56 55 50 45 44 39 42 49 55 53
58 57 57 58 57 57 57 57 57 57 56 56 56 56 56 55 55 55 54 55 56 55 55 57 57 46 53 58 64 65 61 64 61 61 60 57 54 48 46 44 37 40 40 38 42 48 49
57 57 57 57 57 57 57 57 57 56 56 56 56 56 56 55 55 55 52 50 46 44 46 45 47 48 56 64 68 62 64 61 59 56 49 52 46 43 45 48 49 47 44 42 45 52 49
56 57 57 56 56 56 57 57 56 56 56 56 55 55 55 55 55 54 49 44 46 49 38 50 48 49 56 59 52 60 64 56 54 48 51 47 44 53 53 51 50 48 45 44 49 54 51
55 55 56 56 56 56 56 56 56 55 55 55 55 55 55 55 54 49 46 47 56 55 40 45 50 50 55 57 51 54 59 57 52 48 48 47 50 57 53 48 48 46 46 43 46 49 50
55 54 55 55 55 55 55 55 55 55 55 55 55 55 54 54 48 46 45 54 56 55 33 39 44 50 57 55 47 62 64 60 54 49 50 48 57 52 50 49 50 43 51 50 48 44 38
54 54 54 54 55 54 54 54 54 54 55 54 54 54 54 54 45 43 49 55 56 49 22 50 50 61 58 53 53 56 66 56 50 51 51 46 49 51 47 50 53 49 53 50 48 43 39
53 54 54 54 54 53 53 53 53 54 54 54 54 54 54 49 47 48 48 52 49 34 24 43 53 50 49 52 51 56 54 57 58 53 49 50 55 53 55 57 55 56 49 48 45 41 32
53 53 53 53 53 53 53 53 53 53 53 53 53 54 52 50 41 47 47 44 32 25 45 43 45 49 48 47 49 51 49 45 45 43 42 47 50 55 57 50 52 50 44 33 31 31 32
53 53 53 53 53 53 53 53 53 53 53 53 53 53 52 49 47 47 43 36 27 37 37 48 46 48 44 49 48 50 46 41 48 48 42 41 38 51 56 54 49 47 44 33 31 28 34
52 53 53 52 52 53 52 52 52 52 53 53 53 49 48 48 47 46 35 26 30 36 43 41 45 40 42 47 47 47 44 43 48 50 44 40 40 54 56 57 58 46 40 49 38 34 32
53 52 52 52 52 52 52 52 52 52 52 52 46 46 46 48 50 43 31 29 36 44 43 42 35 41 36 40 41 43 44 49 47 52 52 46 39 51 55 56 53 51 52 39 36 31 30
52 52 52 52 51 51 52 52 52 52 52 52 45 40 47 50 48 37 27 28 37 45 46 39 37 36 38 38 41 41 43 48 50 50 51 48 44 43 52 47 46 45 44 43 43 37 32
51 51 50 51 51 51 51 52 51 52 52 49 43 34 46 50 34 34 30 33 42 41 45 43 42 40 38 39 38 39 41 45 51 50 44 47 42 37 45 53 54 50 47 47 37 35 35
50 50 50 50 50 50 51 51 51 51 51 45 39 36 46 48 30 30 35 35 37 38 40 39 38 39 41 38 34 39 43 50 51 49 46 47 38 31 37 46 50 46 48 49 45 41 40
49 49 49 50 50 50 51 51 51 51 52 46 32 31 37 40 38 35 33 31 32 40 38 40 38 40 38 36 39 36 39 46 48 51 49 50 44 40 32 36 43 39 46 50 48 37 37
49 49 49 50 50 50 50 50 51 51 51 45 32 32 37 30 33 36 37 34 31 32 39 40 36 36 35 30 33 34 40 43 46 49 50 48 37 40 42 44 44 44 44 46 45 46 41
49 49 49 49 49 50 50 50 50 50 50 42 31 34 38 32 39 35 35 33 32 34 36 35 34 37 37 33 34 33 37 36 38 44 44 45 37 37 36 43 44 41 44 46 46 46 47
49 49 49 49 49 49 50 50 50 50 49 41 39 40 40 36 35 32 33 35 35 39 40 42 41 38 35 38 41 41 43 42 41 38 37 40 37 34 31 40 40 33 40 43 46 49 48
49 49 49 49 49 49 50 50 49 50 49 44 42 42 36 32 34 34 38 38 38 39 37 42 43 39 44 46 45 42 40 41 40 40 42 39 37 34 29 33 25 41 48 50 45 48 52
49 49 50 49 49 48 48 48 49 49 50 45 45 42 38 32 35 36 37 37 40 42 39 41 44 48 49 42 34 32 31 32 35 39 41 44 37 30 25 28 35 40 48 48 43 44 51
49 49 49 49 49 49 48 48 49 49 50 46 44 46 41 35 34 41 37 37 34 35 36 39 47 49 46 37 31 27 23 30 30 35 42 40 39 32 31 25 23 37 49 53 51 38 51
48 48 49 49 49 49 49 49 48 49 49 46 44 47 40 35 41 42 37 36 40 38 34 38 40 39 43 31 29 27 27 35 28 31 32 33 33 31 31 29 33 42 48 52 33 37 45
49 48 48 48 49 49 49 49 49 49 49 46 44 47 40 34 39 44 45 40 42 41 34 38 37 36 33 28 29 29 25 31 31 34 32 31 29 31 32 29 26 47 46 41 44 46 47
49 49 48 48 48 48 49 49 50 48 49 48 40 45 45 39 38 43 45 47 50 49 44 43 40 37 36 30 28 30 25 25 31 26 37 29 34 31 33 33 44 46 46 50 50 52 50

GFSGBSN_sfc_temp_075.txt.gz
Temp
60 59 59 59 59 59 59 59 58 57 57 57 57 57 58 58 59 58 57 57 57 58 58 58 58 59 56 53 57 68 67 68 68 69 69 67 65 63 60 61 62 59 64 64 67 66 64
59 59 59 59 59 59 59 59 58 57 57 57 57 57 57 57 58 58 57 57 56 57 57 58 58 58 52 47 70 67 66 67 69 69 68 68 67 67 64 62 61 64 63 65 65 66 65
59 59 59 58 58 58 58 57 57 57 57 57 57 57 57 57 57 57 57 56 56 56 57 58 58 56 48 52 67 65 64 66 67 68 66 68 70 67 65 61 65 64 59 62 64 66 64
59 58 58 58 57 57 57 57 57 57 57 57 57 57 56 56 56 56 55 55 55 56 57 58 58 54 45 63 65 62 64 63 66 67 66 70 71 66 65 66 62 59 57 53 61 62 60
58 58 57 57 57 57 57 57 57 57 57 57 57 56 56 55 55 55 55 55 56 57 57 57 52 50 47 65 59 66 65 62 64 66 67 72 68 62 62 58 55 53 50 50 56 62 60
58 57 57 57 56 56 56 57 56 56 56 56 56 56 56 55 55 54 54 55 56 56 57 57 56 46 55 58 65 66 64 65 63 62 62 62 59 56 54 55 46 49 48 51 53 59 59
58 58 58 57 56 56 57 56 56 56 56 56 56 56 55 55 55 54 53 50 48 47 49 47 48 50 55 62 68 64 65 63 64 60 53 56 52 48 52 55 56 55 51 52 55 58 57
56 56 56 57 56 56 56 56 56 55 55 55 55 55 55 55 55 54 51 46 48 48 39 50 48 49 55 58 50 60 67 59 56 52 54 52 47 55 56 55 55 54 51 52 56 58 57
55 55 56 56 56 56 56 56 55 55 55 55 55 55 55 55 54 50 47 48 56 54 39 46 50 48 52 56 50 53 62 59 55 51 52 50 53 57 55 52 51 52 50 52 52 55 58
55 55 55 55 55 56 56 55 55 54 54 54 54 54 54 54 49 48 45 53 56 54 34 40 44 49 55 57 47 61 65 62 55 51 52 52 59 54 53 52 54 47 55 54 53 51 46
54 55 54 54 55 55 54 54 54 54 54 54 54 54 54 54 46 45 51 53 55 49 25 49 49 62 58 53 55 55 65 60 54 52 52 49 51 52 49 52 55 52 56 54 54 51 49
54 54 54 54 54 54 54 53 53 53 53 53 53 53 53 50 49 51 51 50 49 34 23 43 52 50 48 52 53 57 55 61 61 54 52 53 59 57 57 57 58 59 55 53 51 49 40
53 53 53 54 53 53 54 53 53 53 53 53 53 53 52 52 46 50 49 45 32 26 45 42 44 49 47 47 49 52 48 47 47 43 42 50 53 57 59 53 56 56 50 41 38 38 39
53 53 53 53 53 53 54 53 53 52 52 52 52 52 51 51 50 50 45 37 25 37 38 48 46 46 43 50 49 50 46 43 50 50 47 43 39 53 59 55 51 50 50 42 35 35 42
52 52 52 52 52 53 53 53 52 52 52 52 52 47 47 49 50 49 38 24 32 38 43 40 43 41 42 47 47 48 46 45 50 52 46 43 43 56 57 60 59 49 45 55 44 42 40
52 52 52 52 52 52 52 52 52 52 52 52 46 45 45 50 50 44 32 28 35 45 44 42 35 40 36 41 42 45 46 48 47 53 55 50 42 53 56 59 59 55 57 44 44 35 35
51 51 51 52 51 51 52 52 52 52 52 51 44 39 48 51 48 37 28 31 37 45 45 40 37 37 38 38 41 42 42 48 49 50 53 53 48 47 53 51 50 50 49 49 50 44 40
50 50 50 51 51 50 51 51 51 51 51 48 41 33 46 49 35 34 30 35 42 41 46 43 43 41 39 41 40 41 42 46 51 52 46 49 45 40 46 54 57 55 52 51 42 40 41
50 50 50 50 51 51 50 51 51 51 51 43 37 37 46 47 30 31 34 34 39 39 41 41 39 41 43 39 37 41 43 50 50 49 46 50 43 37 41 49 52 48 51 53 49 46 42
50 50 50 50 50 50 50 50 50 50 51 44 34 30 37 40 40 37 32 33 32 41 40 42 40 41 40 38 42 38 40 47 49 50 50 51 44 37 35 38 44 41 46 49 48 41 43
50 49 49 49 50 50 50 50 50 50 51 44 34 32 36 30 32 35 38 37 33 33 40 42 38 39 37 33 35 37 42 43 47 48 49 50 40 42 42 46 46 45 44 46 44 46 41
49 49 49 49 49 50 50 50 50 50 50 40 32 33 37 35 38 34 35 32 33 35 37 35 35 38 39 35 38 37 40 40 39 45 44 45 38 41 38 46 47 42 46 48 48 48 48
49 49 49 49 49 49 50 50 50 50 49 39 41 40 38 36 36 33 33 35 35 38 40 43 41 38 37 39 43 44 45 44 44 40 39 39 39 36 34 42 42 36 44 47 50 52 50
49 49 49 49 49 49 49 49 49 50 49 42 40 40 34 30 33 34 37 38 38 39 37 42 43 40 44 49 47 46 42 41 42 41 43 38 37 36 32 34 27 45 53 52 48 51 54
49 50 50 49 49 49 49 48 49 49 50 43 44 40 36 31 35 35 38 37 40 41 40 41 44 48 49 45 34 33 34 35 38 40 40 42 39 33 31 31 39 46 51 49 47 48 50
49 49 49 49 49 49 49 48 48 49 50 45 43 45 40 34 33 41 38 39 35 34 36 40 46 49 44 35 32 28 27 33 33 37 42 41 42 34 31 28 27 43 51 54 55 40 51
48 49 49 49 49 49 49 48 48 48 49 45 43 46 41 34 40 42 37 36 42 38 35 38 38 37 42 34 29 29 30 37 32 33 32 33 34 31 32 29 37 46 51 54 38 43 52
49 50 49 50 49 48 49 48 48 48 48 45 42 47 41 34 39 45 46 41 41 39 34 38 35 35 35 31 31 31 30 35 35 38 36 35 33 32 33 30 29 50 50 45 51 53 52
48 49 49 49 49 48 49 49 48 48 49 48 41 46 47 39 38 44 47 48 50 48 43 41 41 38 39 35 34 35 31 32 35 31 40 35 39 38 39 40 49 51 51 55 55 53 54

GFSGBSN_sfc_temp_078.txt.gz
Temp
59 60 60 60 59 59 59 59 59 58 57 57 57 58 58 58 58 58 57 57 57 57 58 58 58 59 63 64 68 79 69 69 78 78 78 76 74 74 70 73 74 69 74 77 78 77 76
59 59 59 59 59 59 59 59 58 58 57 57 57 57 57 58 58 58 57 57 56 56 57 58 58 58 60 54 80 78 75 76 79 78 78 78 76 79 72 73 71 74 74 75 77 76 76
59 59 59 58 58 58 58 57 57 57 57 57 57 57 57 57 57 57 57 56 56 56 57 58 58 62 55 60 77 76 73 76 76 78 75 79 80 74 75 70 76 73 67 73 74 76 74
59 58 59 58 58 57 57 57 57 57 57 57 57 57 56 56 56 56 56 55 55 56 57 58 58 60 53 72 74 69 72 73 77 76 75 78 79 74 72 75 70 67 68 62 71 73 74
58 58 58 58 57 57 56 56 57 57 57 57 56 56 56 55 55 55 55 55 55 57 58 58 57 56 56 69 62 71 73 69 74 74 75 76 75 71 71 65 63 65 61 63 66 74 72
58 58 58 57 57 56 57 57 56 56 56 56 56 56 56 55 55 54 54 55 58 58 62 63 62 51 62 61 68 70 72 69 67 69 68 68 69 63 64 63 52 59 60 64 63 70 70
57 58 58 58 57 57 57 57 56 56 56 56 56 56 56 55 55 54 57 63 61 57 58 54 57 55 61 64 69 69 69 66 68 65 60 65 60 55 60 64 66 67 63 63 68 70 65
56 56 56 56 56 56 56 56 56 55 55 55 55 55 55 55 55 54 60 55 50 51 42 56 57 58 61 63 54 64 72 61 61 57 63 59 54 63 65 66 63 63 60 61 67 68 64
55 55 56 56 57 56 57 56 55 55 55 54 54 55 55 54 54 57 56 54 59 57 45 49 58 56 56 61 54 59 65 64 60 57 59 57 62 64 62 59 58 61 59 60 60 66 68
55 55 55 56 56 56 56 56 55 55 54 54 54 54 54 54 52 59 56 59 60 58 38 47 51 55 57 60 52 63 67 64 61 56 59 59 66 60 58 57 61 56 65 62 60 59 54
54 54 54 54 55 54 54 55 55 54 54 54 53 53 53 54 55 55 57 62 59 54 33 52 53 66 62 56 59 57 67 62 54 56 55 55 58 58 55 56 63 58 66 61 62 59 58
53 53 54 54 54 54 54 54 54 54 53 53 53 53 53 56 55 59 62 60 57 39 32 47 55 53 52 55 55 58 58 66 65 56 57 56 65 62 62 62 63 65 60 59 59 57 46
53 53 53 54 54 53 54 54 54 53 53 53 53 53 53 58 48 61 60 56 40 35 52 46 47 52 51 51 51 53 50 47 48 41 44 53 54 62 63 57 61 62 57 48 44 44 44
52 52 52 52 53 53 53 53 53 53 53 53 52 51 54 57 60 56 56 45 32 42 44 53 49 50 46 51 52 53 47 48 51 53 50 44 42 54 60 59 54 55 56 49 40 43 50
52 51 52 52 53 53 52 53 53 52 52 52 51 55 53 58 58 52 45 32 40 42 48 45 49 45 46 51 50 52 50 47 54 55 47 47 48 62 62 62 62 52 49 60 51 52 46
51 52 51 52 52 52 52 52 53 52 52 52 48 48 53 60 57 45 35 35 42 49 48 47 40 44 40 46 47 50 49 52 51 55 60 52 46 58 60 65 65 62 65 49 51 38 39
51 51 52 51 52 51 51 51 51 52 52 52 46 42 56 59 52 39 31 38 44 52 49 43 41 41 43 42 47 47 47 51 53 55 58 55 50 50 56 54 55 56 54 57 58 53 44
50 51 51 51 50 51 51 51 51 51 51 49 43 34 53 53 36 36 33 42 45 48 51 47 46 45 43 44 44 45 44 49 55 57 51 56 52 48 51 60 63 60 56 57 49 47 51
50 50 50 51 51 51 51 51 50 51 51 49 39 42 50 47 31 32 36 41 46 46 47 46 44 46 48 44 41 46 47 54 54 53 50 54 49 43 47 55 60 57 59 59 58 56 49
50 50 50 50 51 51 50 50 51 50 51 47 36 32 40 41 41 42 36 38 39 47 47 48 46 46 45 43 48 43 45 52 54 53 48 52 46 43 41 44 50 46 50 53 52 46 49
49 49 49 50 50 50 50 50 50 50 50 46 35 34 43 31 35 36 41 43 40 40 45 47 43 44 43 40 42 42 46 48 52 51 53 52 44 45 47 49 50 49 49 51 49 51 45
49 49 49 49 49 49 50 50 50 49 50 43 33 35 38 38 39 36 35 38 41 44 43 41 41 45 45 40 43 41 46 46 44 50 48 51 46 48 45 51 52 49 53 54 54 55 54
49 49 49 48 49 49 49 49 50 49 49 41 44 43 39 38 41 36 34 42 42 45 46 48 45 43 42 45 50 51 51 50 48 45 44 44 44 43 39 47 49 41 49 53 56 59 57
49 49 50 49 49 49 49 49 49 49 50 49 47 42 34 32 35 40 43 42 39 43 42 45 47 43 47 55 52 51 49 49 50 48 49 44 43 41 39 38 30 51 59 60 57 59 62
49 49 49 50 50 49 49 49 49 49 50 47 49 43 37 32 41 41 42 42 45 45 43 43 46 49 51 45 38 38 40 40 44 48 47 49 45 38 35 38 45 51 55 54 52 53 58
49 49 49 49 49 49 49 49 49 48 49 47 48 49 42 34 38 46 42 41 38 41 40 42 46 50 46 37 33 32 32 39 38 42 49 48 47 40 36 33 31 47 56 60 60 47 60
48 49 49 49 49 49 49 48 49 48 49 47 46 50 42 34 44 48 42 42 45 44 39 41 39 38 42 35 33 34 35 44 36 36 32 35 36 32 35 34 42 54 59 60 43 46 59
48 49 49 50 50 50 49 48 48 49 48 45 43 49 43 35 42 49 49 44 46 44 38 39 36 36 35 32 36 37 36 42 41 44 39 38 35 34 36 32 31 56 56 48 54 59 59
49 49 49 49 49 50 49 48 48 49 48 47 39 47 48 39 40 51 53 54 53 51 44 42 43 42 45 40 42 43 38 41 42 37 50 39 46 42 45 45 55 55 56 58 56 54 56

GFSGBSN_sfc_temp_081.txt.gz
Temp
60 60 60 60 60 60 60 60 59 58 58 58 58 58 58 58 58 58 57 57 57 57 58 58 58 59 64 68 71 88 72 71 80 80 80 80 77 77 72 77 79 75 78 81 83 83 82
60 59 60 59 59 59 59 59 58 58 57 57 57 57 57 58 58 57 57 57 56 57 57 58 58 58 61 56 84 87 83 83 84 81 81 82 79 82 77 77 76 79 79 79 82 81 82
59 59 59 59 59 58 58 57 57 57 57 57 57 57 57 57 57 57 57 56 56 56 57 57 58 63 60 63 85 86 82 82 84 83 79 84 85 79 79 73 80 78 72 76 78 80 79
59 59 59 58 58 58 57 57 57 57 57 57 57 57 56 56 56 56 56 55 55 56 57 57 59 63 56 79 83 81 80 78 82 84 81 84 85 78 76 79 75 71 71 64 76 79 80
58 59 58 58 57 57 57 57 57 57 57 57 56 56 56 55 55 55 55 55 55 56 58 59 60 61 59 73 70 77 78 73 76 79 80 81 79 72 74 66 64 67 61 65 70 79 78
58 58 58 58 58 57 57 57 57 56 56 56 56 56 56 55 55 55 54 54 59 59 61 69 69 56 65 67 74 75 79 76 70 71 70 70 71 66 67 65 51 56 62 66 67 77 75
57 57 57 57 57 57 57 57 57 56 56 56 56 56 55 55 55 55 57 67 64 61 64 61 64 62 68 73 76 73 73 68 69 65 57 66 58 59 63 66 66 66 67 68 73 77 72
56 56 57 57 57 57 57 57 56 55 55 55 55 55 55 55 55 55 60 60 57 57 49 63 63 64 68 72 61 68 76 64 58 52 62 60 54 66 69 68 66 64 63 65 71 75 69
55 55 56 56 56 56 57 57 56 55 55 55 54 54 54 54 54 57 61 60 66 64 51 59 63 63 64 67 60 63 69 63 56 54 57 54 61 67 65 64 62 63 61 63 64 72 71
55 55 54 55 55 56 56 56 56 55 55 54 54 54 54 54 53 64 58 65 68 64 43 55 57 62 64 63 56 70 72 62 52 48 58 58 65 64 61 61 63 55 67 66 65 63 56
54 53 54 54 54 54 54 54 55 55 55 54 54 54 53 53 57 56 61 68 67 57 37 58 58 71 66 59 63 61 70 63 51 51 58 52 58 59 59 61 64 59 68 67 66 62 60
53 54 54 54 54 54 54 54 54 54 54 53 53 53 53 58 57 61 65 66 61 39 36 53 60 57 57 61 60 63 61 65 61 50 53 55 64 63 62 66 65 66 64 64 64 61 49
53 53 53 53 53 53 54 53 53 54 54 53 53 53 53 59 51 66 64 59 44 39 57 51 52 56 57 56 57 58 55 52 45 40 40 47 53 62 64 58 64 62 59 48 46 46 45
53 53 52 52 53 52 53 53 52 53 53 53 52 52 56 62 63 62 56 49 35 48 49 57 55 56 52 57 56 55 54 50 52 51 46 39 37 56 63 58 56 58 58 49 39 43 49
52 52 51 52 52 52 52 52 51 53 53 52 52 57 57 61 60 59 46 36 44 49 54 50 54 50 51 55 54 54 54 51 56 54 45 42 45 58 60 61 59 53 51 62 49 53 48
52 52 51 52 51 51 52 52 52 52 53 52 54 50 54 63 59 52 37 38 48 54 53 53 46 50 45 49 51 52 53 55 52 58 59 52 42 57 60 64 61 57 61 46 49 39 39
51 51 51 51 52 51 51 51 51 52 52 52 51 40 60 64 55 41 30 42 49 57 55 49 48 46 48 46 50 49 48 54 57 54 60 54 48 46 59 56 54 54 52 52 54 52 43
50 50 51 51 50 51 51 51 51 51 51 50 49 35 58 56 38 37 37 46 51 52 56 53 52 50 48 48 47 48 41 50 57 57 51 58 50 45 52 63 66 62 57 56 45 45 51
50 50 50 50 50 51 51 50 51 51 50 52 41 45 57 51 33 37 43 46 50 50 52 51 49 52 54 48 43 49 49 55 57 54 50 53 51 41 41 53 60 57 61 61 60 57 46
50 50 50 50 50 50 51 50 51 51 51 49 41 34 46 44 41 40 40 42 42 51 52 54 52 54 50 47 51 46 49 54 55 55 49 53 49 48 43 48 54 52 57 61 57 48 50
50 50 50 50 50 50 50 51 51 50 50 48 40 36 46 35 39 41 43 41 44 43 51 53 49 49 48 43 46 46 51 52 53 52 55 53 44 48 51 53 53 52 53 56 54 55 48
49 49 49 49 49 50 50 50 50 50 50 45 34 38 47 44 46 44 41 38 41 48 49 46 45 50 51 45 45 43 49 50 48 52 51 54 45 48 45 52 54 51 55 56 56 56 57
50 50 49 49 48 49 50 50 50 50 49 40 49 49 44 42 44 39 40 44 41 48 51 54 50 48 45 50 52 53 54 52 52 48 47 47 47 46 40 50 49 43 52 54 56 60 59
49 50 50 50 50 50 49 49 50 50 50 45 51 48 38 34 41 44 46 44 43 44 42 52 53 47 52 58 57 54 52 51 50 51 53 45 45 46 40 43 32 52 63 62 59 62 64
49 49 50 50 50 50 49 48 49 49 50 49 51 46 42 35 45 45 46 43 39 44 45 48 51 53 53 49 42 39 41 41 44 50 51 52 46 41 36 39 47 54 58 57 56 58 63
49 49 50 50 50 49 50 49 48 49 50 50 51 51 42 37 40 49 46 48 42 42 44 47 53 54 49 43 37 33 34 41 40 44 53 51 50 42 40 34 32 50 61 65 63 49 63
48 49 49 49 49 49 49 49 48 48 49 48 49 52 44 36 48 50 46 46 52 47 40 46 44 40 43 36 33 35 37 48 38 37 38 39 39 35 37 36 45 55 61 63 44 46 59
48 48 48 49 49 49 49 49 49 48 48 45 45 53 47 40 47 52 53 47 51 44 36 43 39 38 35 34 37 40 39 44 45 48 43 39 35 34 38 32 32 61 60 50 53 59 61
48 49 49 49 49 50 50 49 49 49 48 48 39 51 52 43 46 54 55 57 55 52 44 43 46 41 46 41 44 45 39 44 45 37 52 37 47 43 46 46 58 60 53 59 60 58 59

GFSGBSN_sfc_temp_084.txt.gz
Temp
60 60 60 60 59 59 60 60 59 58 58 58 58 58 58 58 58 58 57 57 57 57 57 58 58 58 59 62 64 83 70 71 80 78 76 75 73 74 69 73 76 73 76 80 81 82 81
59 59 59 59 59 59 59 59 58 58 58 57 57 57 57 58 58 58 57 56 56 56 57 57 58 58 56 49 79 84 86 84 83 81 78 78 76 79 74 74 73 77 78 78 80 80 80
59 59 59 59 58 59 59 58 58 58 57 57 57 57 57 57 57 57 56 56 56 56 56 57 58 60 55 57 80 82 83 81 83 83 78 82 82 77 77 71 79 77 70 74 77 78 76
58 58 59 58 57 58 58 57 57 57 58 57 57 56 56 56 56 56 55 55 55 56 56 57 58 60 53 76 81 79 80 77 82 83 80 81 81 75 74 78 74 69 69 61 72 76 78
58 58 58 58 58 57 57 57 57 57 57 57 56 56 56 55 55 55 55 55 55 56 57 58 57 58 56 76 71 78 80 73 78 79 78 81 77 70 71 63 60 64 56 60 65 76 76
58 58 57 57 57 57 57 57 57 57 56 56 56 56 56 55 55 54 54 54 58 59 62 67 65 57 63 65 76 77 80 77 71 71 70 68 65 59 62 59 49 55 57 61 62 72 76
56 57 57 57 57 57 56 57 57 56 56 56 56 55 55 55 55 54 55 60 64 57 61 59 63 61 68 76 78 73 78 72 72 66 57 64 52 48 55 62 63 63 60 59 66 75 72
56 56 56 56 56 57 57 57 56 56 56 55 55 55 55 55 54 54 56 57 59 58 47 61 63 64 69 71 61 68 77 64 61 55 61 56 49 59 62 64 63 61 56 58 66 72 71
55 55 56 56 55 56 56 57 56 56 55 55 55 54 54 54 54 55 57 59 68 63 48 57 66 65 67 69 60 62 69 66 61 55 54 47 53 59 56 58 57 59 56 58 59 67 72
54 54 55 54 54 54 55 55 55 55 56 55 54 54 54 53 51 59 58 67 69 61 41 54 58 64 66 65 58 71 72 66 59 52 51 45 54 52 49 50 55 51 64 63 61 59 53
54 54 53 54 54 54 54 54 54 54 55 55 54 54 53 53 53 53 59 66 67 58 34 59 60 73 69 60 64 64 72 66 55 51 49 46 48 50 47 53 56 52 63 59 58 56 57
53 53 53 53 54 53 54 53 53 54 54 54 53 53 53 56 56 59 63 63 58 36 33 54 62 59 59 62 62 65 63 67 65 55 54 50 56 50 52 57 61 58 55 55 56 56 46
52 53 53 53 53 53 52 53 53 53 53 54 53 53 53 58 49 58 62 54 36 35 58 53 54 58 58 57 60 60 55 52 47 40 40 47 49 54 57 50 58 58 50 35 35 40 41
52 52 52 52 52 53 52 53 52 52 53 53 53 52 54 58 60 59 56 43 33 49 53 60 56 57 53 59 58 58 56 51 53 49 45 36 36 50 55 53 50 53 52 38 33 37 44
52 52 51 52 51 52 53 51 53 52 51 53 52 53 54 57 60 56 45 32 42 48 56 53 54 50 53 57 56 56 53 53 55 53 42 39 40 58 56 57 54 48 46 56 44 45 38
51 52 52 52 51 51 51 51 51 51 50 51 50 51 52 61 60 50 38 36 46 56 56 54 45 52 48 52 51 54 52 54 54 58 58 49 37 53 57 59 58 53 57 41 42 33 32
51 51 51 51 51 51 51 52 51 51 52 52 47 41 56 61 55 41 33 40 47 56 58 50 49 49 50 49 51 51 44 49 55 55 58 53 47 45 50 48 46 49 44 43 45 44 34
50 50 51 50 50 51 50 51 51 51 51 49 45 33 56 57 37 37 34 44 47 52 58 54 53 50 49 51 48 50 44 49 56 55 49 55 48 40 44 54 61 56 51 47 36 38 44
50 50 50 50 50 51 50 50 51 50 50 46 40 43 55 51 33 34 42 44 48 48 52 51 49 53 54 50 44 50 51 55 56 53 48 50 46 37 42 49 57 53 53 52 48 46 37
50 50 50 50 50 51 51 50 50 51 50 44 38 33 45 44 45 41 38 41 42 52 51 53 52 55 51 48 52 47 49 54 56 54 50 51 46 43 34 37 43 46 52 54 51 41 40
50 49 49 49 49 50 51 51 51 50 51 44 37 36 45 34 38 38 42 40 41 43 51 53 49 50 49 43 46 46 51 53 57 51 53 51 40 45 48 45 45 46 44 45 50 49 43
50 50 49 48 49 50 50 50 50 50 50 40 33 37 46 41 44 42 42 39 39 44 47 45 46 50 51 45 47 44 48 48 45 52 50 52 41 45 43 51 51 48 49 52 48 49 54
50 50 49 49 49 49 50 49 50 50 49 39 42 48 45 39 42 40 39 44 44 47 49 50 50 49 47 50 48 51 53 51 50 48 47 46 44 42 37 48 47 40 49 53 55 58 57
49 49 50 50 50 50 49 48 49 50 49 48 44 47 37 33 39 40 46 46 45 47 44 50 45 42 51 56 56 54 53 53 52 50 52 44 43 43 36 41 29 49 60 60 56 59 61
49 49 50 50 50 50 50 49 48 49 50 49 50 44 42 33 41 43 45 46 48 47 45 45 45 51 56 51 42 39 40 41 44 48 48 50 45 38 34 36 44 50 57 56 54 54 61
49 49 49 49 49 49 49 49 49 48 50 49 50 50 43 36 37 47 45 48 43 41 38 45 54 56 52 43 37 31 31 38 38 43 50 49 49 40 38 31 29 48 59 64 63 45 58
48 48 48 49 49 49 49 49 49 49 49 48 48 51 42 34 44 46 42 43 49 45 40 42 45 44 46 35 32 33 34 46 36 37 37 38 39 34 35 33 42 56 60 62 43 43 57
48 48 48 49 49 49 49 49 49 49 49 46 45 52 44 38 42 49 51 46 48 47 38 43 36 39 35 32 33 37 36 42 42 46 42 39 34 33 36 33 30 60 58 48 51 56 57
48 48 48 49 49 49 49 49 49 49 49 48 40 50 51 41 44 53 54 56 53 51 39 41 39 40 44 39 42 42 36 41 42 36 51 38 45 40 42 42 56 57 54 58 58 56 56

GFSGBSN_sfc_temp_087.txt.gz
Temp
59 59 59 59 59 59 60 60 59 58 57 57 57 57 58 58 58 58 57 57 57 57 57 57 58 58 53 52 56 74 69 69 70 72 69 67 63 61 57 63 64 63 66 71 73 74 72
59 59 59 59 59 59 60 59 58 57 57 57 57 57 57 57 57 57 57 56 56 56 57 57 58 58 50 43 69 75 75 74 73 72 70 70 67 69 64 65 63 68 68 69 72 71 72
59 58 58 58 58 58 58 58 57 57 57 57 57 57 56 57 57 56 56 56 56 56 56 57 58 56 49 48 67 69 70 69 72 72 68 73 73 66 65 62 70 68 61 66 68 67 66
58 58 58 58 57 57 57 57 57 57 57 57 57 56 56 56 55 55 55 55 55 56 56 57 58 54 44 66 65 68 69 69 74 74 72 72 72 65 61 66 65 60 60 53 63 67 69
58 58 58 57 57 57 57 57 56 57 57 57 56 56 55 55 55 54 54 55 55 56 57 57 52 48 46 70 63 68 69 67 70 72 71 77 68 59 60 52 48 51 45 50 57 68 67
58 57 57 57 57 57 57 57 56 56 56 56 56 56 55 55 54 54 54 54 56 56 58 62 59 47 56 59 70 72 71 72 66 64 63 61 56 49 50 48 40 44 47 49 51 62 66
56 57 57 57 56 56 57 57 57 55 55 56 56 56 55 55 54 54 52 49 51 47 54 51 52 52 61 68 72 67 72 68 64 58 48 55 45 40 47 52 55 56 53 52 56 66 64
56 56 56 56 56 56 56 56 56 56 56 56 55 55 55 54 54 54 49 44 53 51 41 54 56 56 62 65 56 63 68 57 56 47 52 48 43 52 56 57 55 52 48 46 57 64 62
54 54 54 55 56 55 56 55 55 54 54 54 55 54 54 54 53 49 48 53 61 59 39 48 57 56 59 63 56 57 62 57 53 49 49 43 50 56 54 53 49 46 47 47 51 59 62
55 54 54 54 54 54 54 54 55 55 54 54 54 54 53 53 48 50 49 61 61 58 35 45 55 61 65 63 55 66 65 58 54 48 49 44 51 49 48 47 49 42 54 56 52 45 38
54 53 53 53 53 53 54 54 54 54 54 54 53 54 53 53 44 44 54 59 62 53 23 54 56 70 66 57 59 59 65 58 49 49 46 43 46 44 42 47 48 45 54 52 47 44 46
53 52 53 53 53 53 53 53 53 52 53 53 53 53 53 49 45 49 55 56 52 33 24 50 57 54 55 57 58 59 57 59 57 49 48 47 54 49 47 50 50 52 45 47 47 44 34
53 53 52 52 53 53 53 53 52 52 52 52 53 53 51 52 42 55 54 47 32 26 55 49 50 56 54 52 55 55 51 45 40 36 36 44 46 51 54 45 50 46 41 33 31 31 30
52 53 53 52 52 52 52 52 52 51 52 52 52 52 50 51 52 53 46 38 26 43 48 57 55 53 48 54 54 53 47 41 46 44 37 34 32 47 54 47 43 45 41 34 28 28 34
52 52 52 52 52 52 52 51 52 52 52 51 51 44 45 49 51 48 40 28 32 43 52 50 51 45 46 54 52 52 47 45 48 47 36 36 38 52 53 51 51 42 38 48 36 40 33
52 52 52 52 51 51 51 52 52 51 51 50 41 41 43 52 50 44 35 32 39 51 51 52 42 47 42 49 48 44 46 49 50 52 50 44 36 49 53 54 53 45 48 38 36 29 28
52 51 51 51 51 51 51 51 51 52 50 50 42 36 46 52 48 39 30 33 43 50 52 48 45 42 44 45 47 46 41 48 51 50 52 49 42 41 49 43 43 43 37 40 41 40 32
51 51 50 50 50 51 51 51 50 51 50 47 39 28 46 50 34 36 32 39 46 47 51 49 50 47 44 45 43 45 43 47 52 50 43 48 43 36 41 52 52 46 41 42 35 35 39
50 50 50 50 50 50 50 51 50 50 50 39 36 34 46 45 27 31 36 38 44 44 45 47 46 49 49 44 39 46 47 53 52 49 44 46 40 32 38 45 52 45 45 46 44 41 35
50 50 50 50 50 50 50 50 50 50 50 42 34 25 34 37 36 35 34 37 38 48 46 48 47 49 46 43 47 43 46 51 51 51 50 49 41 38 31 35 36 38 44 46 41 35 37
50 50 50 50 50 50 50 50 50 50 50 41 34 31 36 21 32 34 36 36 35 38 48 49 45 45 43 38 41 40 45 48 52 50 49 46 36 41 44 47 40 38 38 41 39 42 36
50 50 49 50 50 49 49 50 50 50 49 38 32 30 37 34 38 37 37 34 37 40 42 41 41 45 45 40 41 38 42 43 41 48 45 47 38 40 38 47 48 41 45 44 42 42 44
49 50 50 50 50 50 49 50 50 50 48 38 38 38 34 33 34 33 31 38 39 42 44 47 46 38 38 42 45 44 45 45 45 42 40 41 39 37 33 43 43 36 45 45 46 48 48
49 49 50 50 50 50 50 49 49 49 48 39 38 37 32 24 31 34 39 42 41 43 39 45 45 39 46 46 50 48 48 47 45 44 46 39 38 39 30 35 26 45 56 56 52 53 55
49 49 49 50 50 50 49 49 49 48 50 42 41 36 32 23 35 37 39 41 42 45 41 41 44 46 45 43 36 34 33 35 40 44 43 44 38 29 27 30 39 46 52 52 49 47 52
48 49 49 49 49 49 49 50 49 49 49 45 43 42 36 30 30 41 38 40 34 34 36 40 45 45 44 35 32 26 24 32 33 39 46 44 41 33 29 27 23 42 55 59 57 38 53
48 48 48 48 48 49 49 49 50 49 49 45 43 47 38 31 37 39 34 35 38 38 33 37 39 38 41 31 25 25 27 41 30 31 31 33 32 30 29 27 35 51 56 59 39 37 50
47 47 48 48 49 49 49 49 49 49 49 45 42 47 41 34 39 42 44 38 40 36 29 37 34 36 34 28 27 28 26 34 35 40 36 33 30 28 30 26 26 53 54 43 45 51 52
47 48 48 48 48 48 49 49 49 49 49 48 40 47 47 37 38 45 47 48 46 47 38 38 37 35 38 32 32 32 28 33 33 29 43 30 38 32 35 34 43 47 47 49 53 49 50

GFSGBSN_sfc_temp_090.txt.gz
Temp
59 59 59 59 59 59 59 60 59 58 57 57 57 58 58 58 58 58 57 56 57 57 57 57 58 58 54 48 51 68 68 70 68 67 65 64 60 58 54 57 57 55 60 64 66 68 67
59 59 58 58 58 59 59 59 58 57 57 57 57 57 57 57 57 57 57 56 56 56 57 57 57 58 47 38 65 69 68 68 68 67 66 66 64 64 58 58 57 62 62 63 66 66 67
58 58 58 58 58 57 57 57 57 57 57 57 57 57 56 57 57 56 56 56 55 56 56 57 57 56 48 44 60 62 63 63 67 67 64 68 68 63 60 57 64 63 57 61 62 61 61
58 58 58 58 57 57 57 57 57 57 57 57 57 57 56 55 55 55 55 55 55 56 56 57 57 54 43 61 59 59 60 63 68 67 68 69 68 62 59 62 61 55 53 46 59 61 62
57 58 58 57 57 57 57 57 57 57 57 56 57 56 55 55 55 54 54 54 55 56 57 57 52 50 42 64 59 63 64 62 65 66 66 74 64 57 57 50 46 47 42 47 51 60 60
57 57 57 57 57 57 57 57 56 56 56 56 56 56 55 55 54 54 53 54 55 56 55 58 56 44 51 56 65 68 64 66 62 60 60 58 54 48 46 44 38 41 42 42 43 52 59
56 56 56 56 56 56 57 57 56 55 55 56 56 56 55 55 54 54 51 47 48 47 50 46 48 48 55 63 67 63 66 64 61 55 46 51 43 39 45 48 49 49 47 45 48 56 52
55 55 55 55 55 56 56 56 55 55 55 55 55 55 55 54 54 53 48 42 49 51 40 52 51 52 57 59 51 58 64 54 52 45 48 45 39 48 51 51 50 49 44 43 49 57 55
55 55 55 55 55 55 55 55 55 54 55 55 55 55 54 53 53 47 44 49 59 58 39 45 52 51 53 58 50 53 59 55 49 46 46 40 47 53 50 47 47 45 42 43 45 53 54
54 53 54 54 54 54 54 54 54 54 54 54 54 54 53 53 45 44 46 56 57 56 31 41 47 54 58 59 49 61 62 57 51 46 47 44 49 47 44 44 46 40 49 49 49 41 34
53 53 53 53 53 53 53 53 53 53 53 53 53 53 53 53 41 39 51 54 55 50 20 50 53 67 62 55 56 56 62 55 47 46 46 43 44 42 41 43 48 43 51 49 47 41 39
53 53 53 53 53 53 53 53 53 53 53 52 53 53 53 47 40 44 53 53 49 32 23 46 55 53 52 54 55 58 56 58 56 47 46 46 50 46 45 49 48 51 47 45 46 41 31
53 53 53 53 53 53 53 53 52 52 52 52 52 52 50 49 37 51 51 44 31 26 48 46 47 52 50 49 51 52 49 45 40 35 35 41 42 47 50 42 46 45 39 31 29 30 29
52 52 52 52 52 52 52 52 51 52 52 52 52 51 48 48 44 49 44 36 24 39 43 54 52 51 46 52 51 49 45 39 42 41 35 30 31 44 49 44 40 41 39 33 26 27 32
52 52 52 52 52 52 51 51 52 51 51 51 50 40 40 46 45 46 36 27 30 39 46 43 49 44 45 51 50 48 43 41 45 44 36 33 35 47 50 50 48 39 35 43 34 36 32
52 51 52 52 51 51 51 51 51 51 52 50 38 38 39 46 45 42 32 30 36 47 46 46 39 44 38 45 45 44 44 47 46 48 46 41 33 46 47 48 48 44 44 35 35 28 27
51 51 51 51 51 51 51 51 51 50 51 50 40 35 42 45 43 36 27 32 39 48 49 42 42 41 42 41 44 41 40 45 49 47 48 42 39 38 45 42 40 39 37 37 39 37 30
51 50 50 51 50 50 50 51 51 50 50 45 39 28 42 47 29 30 28 35 44 44 47 45 46 46 42 42 42 42 40 46 50 49 42 44 39 31 37 49 52 46 39 38 34 32 36
51 50 50 50 50 50 50 50 50 50 49 39 35 31 41 44 24 28 35 37 41 41 42 43 41 45 45 42 37 42 43 49 50 46 42 44 39 29 34 43 48 39 43 42 40 38 34
50 50 50 50 50 50 50 50 50 50 50 39 32 26 30 34 35 32 32 33 35 46 44 46 44 46 42 39 43 40 42 48 49 48 49 47 39 35 29 34 38 34 37 40 39 34 34
50 50 50 49 49 50 50 49 49 50 50 38 33 24 34 28 31 30 33 35 34 36 44 45 42 43 40 35 37 37 43 44 48 48 46 43 33 39 41 43 41 40 39 40 37 38 35
49 49 49 49 49 50 50 49 49 50 49 36 29 29 33 31 36 32 33 33 32 38 39 39 37 40 39 34 35 34 39 39 39 44 41 44 33 37 35 44 43 41 42 42 40 40 41
49 49 49 49 49 50 50 49 50 49 46 37 33 34 31 31 31 29 31 36 37 41 43 45 43 40 36 39 40 43 44 44 42 39 38 39 36 33 30 41 40 34 42 42 45 44 42
49 49 49 49 50 50 50 50 49 49 48 36 34 33 27 22 28 31 36 38 38 40 37 42 43 39 45 48 47 45 44 45 43 42 43 37 35 34 28 33 25 43 52 52 45 48 49
49 49 49 49 49 50 49 49 49 49 49 37 37 34 30 20 30 33 35 37 37 38 39 40 43 43 44 43 35 32 32 34 37 41 40 41 35 27 26 27 36 43 50 48 44 43 50
48 48 49 49 49 49 49 49 49 49 49 44 42 38 34 30 27 38 33 36 30 30 32 38 42 42 41 35 30 27 24 31 31 36 43 41 38 30 26 25 21 39 51 56 53 35 51
48 48 48 48 48 48 48 49 49 49 49 45 42 44 35 28 32 35 31 32 36 33 30 33 36 36 38 29 24 26 26 37 28 30 31 31 29 28 27 24 32 46 48 54 37 36 49
47 47 48 48 48 48 49 49 49 49 49 46 42 46 39 30 36 39 40 34 37 36 30 34 30 35 33 29 28 27 24 31 31 37 34 32 29 28 27 27 24 45 49 38 42 48 48
47 47 47 47 48 48 49 49 49 49 49 48 40 46 46 35 36 43 43 44 43 42 36 37 35 35 36 32 31 30 25 26 30 26 40 31 35 31 33 32 42 45 43 47 48 45 45

GFSGBSN_sfc_temp_093.txt.gz
Temp
59 59 59 58 58 58 59 59 58 58 57 57 57 57 58 58 58 58 57 56 56 57 57 57 57 58 51 44 48 63 68 68 66 64 62 60 57 56 51 53 55 52 55 59 61 61 59
58 58 58 58 58 58 58 58 57 57 57 57 57 57 57 57 57 57 56 56 56 56 56 57 57 57 48 36 61 64 63 64 65 62 62 62 60 61 56 55 54 58 59 59 60 60 60
58 58 58 58 58 57 57 57 57 57 57 57 57 56 56 57 56 56 56 56 55 55 56 56 57 55 47 43 57 59 59 58 63 65 61 65 65 60 57 54 61 60 55 57 56 57 58
58 58 58 57 57 57 57 57 57 56 57 57 57 56 56 55 55 55 55 55 55 55 56 57 57 53 42 60 56 55 56 56 60 63 63 66 65 59 56 59 58 53 51 43 55 58 60
57 57 57 57 56 56 56 56 56 56 56 56 56 56 56 55 54 54 54 54 54 56 56 56 51 48 41 62 55 59 59 58 62 62 62 71 63 55 53 47 43 44 39 42 49 59 58
57 56 56 56 56 56 56 56 56 56 55 55 56 56 55 54 54 54 53 53 55 55 56 56 55 43 49 55 63 65 60 62 60 60 59 57 50 46 43 42 35 38 39 35 42 50 52
56 56 56 56 55 56 56 56 56 55 55 55 55 55 55 55 54 54 51 44 45 44 48 45 47 46 52 60 64 61 63 60 59 53 45 48 42 38 42 45 47 47 43 41 43 54 51
55 55 55 55 55 55 56 56 55 54 54 54 55 55 55 54 54 53 45 43 47 47 39 50 50 51 54 58 48 55 61 54 51 43 45 42 37 45 49 48 47 45 42 41 47 53 51
54 54 54 54 54 55 55 54 54 54 54 54 54 54 54 54 53 45 42 47 56 53 38 44 51 50 51 54 47 50 56 52 47 44 43 38 44 50 48 44 43 41 40 41 43 48 48
54 53 53 53 54 54 53 54 54 54 54 53 53 53 53 53 45 40 43 53 53 52 31 38 43 49 54 55 46 59 59 54 48 44 44 42 47 46 42 41 43 36 47 47 45 40 34
54 53 53 53 53 53 53 53 53 53 53 53 53 53 52 52 40 37 46 52 54 45 18 47 48 61 56 52 54 51 59 53 44 45 44 41 42 41 40 42 45 41 48 45 44 37 35
53 53 53 53 53 53 53 53 53 52 52 52 52 52 52 46 38 42 48 50 46 30 21 42 52 48 48 52 53 54 54 56 52 45 44 44 47 46 45 47 46 49 44 43 41 38 30
52 52 52 52 52 52 52 52 52 52 52 52 52 52 49 47 37 44 46 42 27 23 44 42 44 49 48 47 49 50 47 43 38 34 34 40 41 45 48 41 44 43 38 25 28 28 27
52 52 52 52 52 52 52 52 52 52 51 51 51 50 46 47 42 44 42 34 22 35 38 47 45 47 43 48 47 47 44 38 40 39 33 31 30 41 47 43 38 37 39 30 25 25 30
52 52 52 52 52 52 52 52 52 51 51 51 50 39 38 40 44 41 34 24 29 36 39 36 42 41 43 49 47 45 41 38 42 42 35 32 34 45 47 47 46 38 35 43 34 35 30
52 52 52 51 52 51 51 51 51 51 51 50 37 36 36 42 43 38 29 28 35 43 42 40 36 43 36 41 42 41 41 44 43 46 44 40 33 43 45 47 45 41 44 34 35 27 27
51 51 51 51 51 51 51 51 51 51 51 50 40 32 40 43 42 36 22 29 37 46 44 34 38 39 40 38 42 40 40 45 47 45 47 42 37 36 42 39 36 38 37 37 37 35 29
51 51 50 50 50 50 51 51 50 50 50 43 37 28 40 45 26 29 22 33 40 42 45 36 42 43 40 41 40 41 37 43 51 47 41 44 39 30 35 45 47 42 40 39 32 32 34
51 50 50 50 50 51 50 50 50 49 50 37 33 34 40 41 25 18 30 35 40 39 40 35 35 44 44 40 37 42 43 49 50 47 42 44 37 28 31 38 42 39 40 39 39 37 32
50 50 50 50 50 50 50 50 50 49 50 37 32 23 29 34 35 30 28 32 32 44 42 43 40 44 41 38 42 40 42 47 49 47 49 46 37 33 25 31 38 34 39 40 37 32 34
50 50 50 50 50 50 50 50 49 49 50 37 33 25 31 25 30 28 32 34 32 34 42 44 41 39 36 31 34 34 40 43 46 47 44 41 32 35 38 40 40 39 39 41 38 37 33
50 50 49 49 50 50 50 50 50 49 49 35 29 29 33 31 35 32 32 32 32 34 38 37 37 39 38 33 34 31 36 38 37 43 40 41 32 33 32 39 39 36 41 42 42 41 40
49 49 49 49 50 50 50 50 50 49 45 32 32 33 31 29 30 30 29 30 31 34 39 43 41 37 35 38 39 41 41 41 41 39 37 37 34 31 28 36 36 31 39 42 43 45 42
49 49 49 49 50 50 50 50 50 49 47 36 33 31 25 20 29 31 33 36 35 36 35 41 42 38 42 46 45 43 43 42 40 41 41 35 34 32 26 31 20 39 49 46 44 43 45
48 49 49 49 49 49 49 49 49 49 49 38 37 33 28 21 29 31 32 35 36 38 37 39 40 41 42 41 34 32 32 33 36 39 38 39 33 26 24 25 33 39 45 43 40 42 48
48 48 49 49 49 49 49 49 49 49 50 44 40 38 32 25 25 35 32 34 30 29 31 36 41 41 41 33 29 26 25 31 31 36 40 36 36 29 25 23 18 36 45 50 48 34 47
48 48 48 48 48 48 48 49 49 49 50 45 42 41 35 27 31 33 30 30 34 32 30 32 36 36 38 29 28 25 27 35 28 30 30 28 28 26 26 26 30 43 43 49 33 33 46
47 47 47 48 48 48 48 49 49 49 49 46 42 45 38 26 33 37 38 33 34 35 30 33 30 33 32 25 26 27 25 31 31 34 31 29 25 24 27 26 22 42 43 36 41 43 45
46 47 47 47 47 47 48 48 49 49 49 48 40 45 46 36 33 39 41 42 40 39 33 34 33 34 36 32 31 31 24 25 29 24 37 27 33 30 31 30 41 43 41 43 43 40 40

GFSGBSN_sfc_temp_096.txt.gz
Temp
58 58 58 58 58 58 58 58 57 57 57 57 57 57 57 57 58 57 57 56 56 57 57 57 57 57 51 41 44 60 64 64 63 62 59 59 55 54 49 51 52 49 51 56 58 59 58
58 58 58 57 57 57 57 57 57 57 56 56 56 56 56 57 57 57 56 56 56 56 56 56 57 57 48 36 58 59 58 58 61 59 59 60 57 59 53 52 51 55 55 57 57 58 58
57 57 57 57 57 57 57 56 56 56 56 56 56 56 56 56 56 56 55 55 55 55 55 56 57 53 46 42 56 58 58 54 57 59 57 61 62 56 55 51 57 55 50 53 53 55 55
57 57 57 56 56 56 56 56 56 56 56 56 56 55 55 55 55 55 55 54 54 55 55 56 57 52 40 59 55 53 52 52 56 57 59 61 61 56 53 56 54 48 47 41 52 55 58
57 56 56 56 55 55 55 56 55 56 55 55 55 55 55 55 54 54 54 54 54 55 56 56 50 46 39 60 53 57 56 53 57 57 57 67 59 52 51 45 41 42 35 40 46 55 55
56 56 56 55 55 55 55 55 55 55 55 55 55 55 55 54 54 54 53 53 54 54 56 56 55 42 47 51 60 62 56 59 58 56 55 53 49 44 42 41 34 36 37 34 40 49 51
55 55 55 55 55 55 55 55 55 54 54 54 54 54 54 54 54 53 50 41 43 41 45 41 44 43 48 58 62 59 60 58 58 53 45 48 41 37 43 44 45 44 41 39 41 51 49
55 54 54 54 54 55 55 55 54 54 54 54 54 54 54 54 53 53 43 39 45 43 34 45 45 46 52 56 46 54 59 52 51 44 47 43 38 46 47 47 45 43 40 38 44 50 48
54 54 53 53 54 54 54 54 53 53 53 53 53 53 53 53 53 44 38 41 53 50 36 42 48 47 49 52 44 48 54 53 48 44 43 39 44 48 46 43 41 39 37 38 40 45 45
54 53 53 53 53 53 53 53 53 53 53 53 53 52 52 52 44 39 38 48 50 51 30 36 41 46 51 50 41 56 58 54 47 43 43 41 46 46 43 41 42 34 44 44 42 37 30
53 53 53 53 53 53 53 53 53 53 53 52 52 52 52 52 39 37 44 46 49 44 17 43 45 57 53 46 50 48 58 52 44 45 44 40 41 41 39 41 44 39 45 42 41 35 33
52 52 52 52 52 52 52 52 52 52 52 52 52 52 52 44 38 41 43 46 42 28 18 38 48 44 42 46 49 51 50 54 52 45 44 43 46 45 44 45 45 46 42 41 39 35 26
52 52 52 52 52 52 52 52 52 52 52 52 51 51 49 46 36 41 43 38 27 21 40 38 38 44 43 44 47 48 45 42 39 34 34 39 40 43 47 40 43 42 36 23 26 27 26
52 52 52 52 52 52 52 52 52 52 51 51 51 50 45 46 41 42 38 31 19 33 35 42 40 40 38 45 45 46 43 37 40 39 34 30 29 40 45 42 37 36 36 26 23 25 29
52 52 51 51 51 52 52 51 51 51 51 51 49 37 36 38 41 40 29 20 26 32 35 34 37 37 39 45 44 44 40 38 41 41 34 31 32 43 45 46 44 36 33 40 33 34 29
52 51 51 51 51 51 51 51 51 51 51 51 36 34 34 41 41 36 24 25 30 41 37 35 30 36 32 39 38 38 39 43 42 45 44 39 32 42 43 45 44 40 43 32 34 26 23
51 51 51 50 50 50 51 51 51 51 50 50 35 31 39 40 41 33 21 24 34 42 39 33 32 32 32 37 39 37 38 43 45 43 46 41 37 35 42 38 35 36 36 36 36 34 29
50 50 50 50 50 50 50 51 51 50 49 42 36 26 39 45 30 25 19 30 39 36 39 35 34 34 32 36 37 35 36 42 49 47 41 43 36 31 35 43 45 41 38 39 32 30 33
50 50 50 50 50 50 50 50 50 50 49 36 30 30 37 42 23 26 28 32 37 37 39 35 33 35 36 34 32 36 37 45 48 46 42 43 35 29 32 37 42 38 41 40 37 36 30
50 50 50 50 50 50 50 50 50 50 48 36 32 23 26 36 35 29 28 28 31 41 39 41 35 35 35 34 40 35 35 44 47 46 48 46 36 33 26 30 36 33 37 41 37 31 32
50 50 50 49 50 50 50 50 50 49 49 36 33 24 30 22 29 28 30 30 30 32 39 40 33 34 35 31 33 33 39 40 44 46 43 41 32 35 36 38 38 36 36 38 37 37 32
50 50 49 49 49 49 50 50 50 49 48 33 23 27 33 29 31 28 30 28 30 32 33 33 34 37 38 34 33 31 35 36 37 42 39 41 32 33 32 38 37 34 37 38 39 39 39
49 50 49 49 49 49 50 50 49 50 45 30 31 32 30 28 29 28 28 29 29 32 35 40 39 37 35 37 38 38 39 40 38 36 35 36 34 30 28 33 33 28 34 37 39 41 39
48 49 49 49 49 49 49 50 49 49 45 36 32 31 24 20 27 30 31 34 34 35 32 39 39 36 39 42 42 41 39 40 39 39 40 34 33 32 26 30 18 35 44 44 41 43 44
48 49 49 49 49 49 49 49 49 49 48 41 37 34 29 23 29 30 31 32 34 35 34 36 38 39 40 38 33 32 31 33 36 38 36 38 33 27 24 25 31 35 40 39 37 39 46
48 48 49 48 48 49 49 48 49 49 49 43 41 41 35 25 24 32 30 31 28 28 30 34 40 41 39 32 28 26 24 30 30 34 37 35 35 30 25 22 16 33 41 44 44 32 43
48 48 48 48 48 48 48 48 48 48 49 45 41 44 36 27 30 32 29 32 34 30 30 32 34 36 36 27 25 25 26 34 28 29 30 28 28 26 25 26 29 38 40 44 30 32 42
48 47 47 47 48 48 48 48 48 48 49 45 41 44 37 26 30 35 36 32 32 33 29 32 28 32 30 27 26 27 25 30 30 33 31 29 26 23 28 24 21 40 40 33 38 39 40
47 47 46 47 47 48 48 48 48 49 49 48 40 44 44 35 32 36 39 41 39 37 32 32 32 34 34 31 31 31 27 26 28 25 35 26 32 30 31 30 39 41 39 41 41 37 36

GFSGBSN_sfc_temp_099.txt.gz
Temp
58 58 58 57 57 57 58 57 57 56 56 56 56 57 57 57 57 57 57 56 56 56 56 57 57 57 54 44 47 62 62 62 65 63 62 62 59 58 54 56 57 54 57 60 63 65 64
57 57 57 57 57 57 57 56 56 56 56 56 56 56 56 56 56 56 56 56 55 55 56 56 57 57 47 35 60 62 60 60 61 62 62 63 62 63 59 58 57 60 59 61 62 63 63
57 57 57 56 56 56 56 56 56 56 56 56 56 55 55 55 56 55 55 55 55 55 55 56 57 54 46 43 60 62 60 58 60 61 59 64 66 62 60 56 62 60 55 58 59 61 61
57 56 56 56 56 55 55 56 56 56 56 55 55 55 55 55 55 54 54 54 54 55 56 56 57 52 41 59 61 56 58 56 58 59 58 63 65 62 59 62 59 55 54 49 57 59 62
56 56 55 55 55 55 55 55 55 55 55 55 55 55 55 54 54 54 54 54 54 55 56 56 52 47 41 60 54 59 58 53 58 57 59 67 63 59 58 53 50 49 46 46 52 60 60
56 56 55 55 55 55 55 55 55 54 54 54 54 54 54 54 54 53 53 53 55 55 56 58 55 42 49 50 59 62 59 57 57 55 56 56 56 51 50 50 40 44 44 47 48 57 58
55 55 54 55 55 55 55 55 54 54 54 54 54 54 54 54 54 53 50 46 43 45 46 39 42 45 47 55 61 59 61 58 58 55 48 53 48 44 47 51 50 50 47 46 50 57 54
54 54 54 54 54 54 54 54 54 54 54 54 54 53 53 53 53 52 45 41 43 41 33 44 44 45 50 55 46 54 61 52 52 47 50 47 43 50 52 51 50 49 46 45 49 54 52
54 53 53 53 54 54 54 54 54 53 53 53 53 53 53 52 52 45 42 43 50 48 34 40 46 46 47 50 43 48 55 54 50 46 46 43 47 52 50 47 45 46 44 44 45 50 52
53 53 53 53 53 53 53 53 53 53 53 52 52 52 52 52 45 42 41 48 49 47 30 38 41 46 51 51 41 55 58 56 50 46 46 45 51 47 46 46 48 41 49 48 46 44 38
52 52 52 53 53 52 52 52 53 52 52 52 52 52 52 51 43 39 46 47 49 44 18 44 46 58 53 46 50 48 59 54 47 46 47 44 44 44 43 46 49 45 50 47 46 43 41
52 52 52 52 52 52 52 52 52 52 52 52 52 52 52 45 42 44 45 46 43 28 18 37 47 43 42 46 47 50 50 56 55 47 48 46 51 50 49 48 49 50 46 45 44 42 32
52 52 52 52 52 52 52 52 52 52 52 52 51 51 49 47 39 45 45 40 27 19 41 36 37 42 42 40 44 45 43 43 42 37 37 42 44 48 50 43 47 46 41 32 29 28 32
52 52 52 51 52 52 52 52 52 51 51 51 51 50 45 46 44 44 41 32 18 32 34 40 39 38 36 45 45 45 42 40 44 43 39 35 32 43 48 46 42 42 41 34 28 29 34
52 52 51 51 51 51 51 51 51 51 51 51 48 40 39 42 43 42 34 21 26 32 35 32 36 34 33 45 45 44 42 42 44 46 38 36 35 46 48 48 48 39 37 43 32 36 32
51 51 51 51 50 51 51 51 51 51 51 50 39 37 38 42 43 37 27 25 30 38 38 35 28 33 27 34 35 42 41 45 44 47 49 42 34 44 45 50 47 45 46 34 35 26 26
51 51 51 51 50 50 50 51 51 51 50 48 37 32 41 43 44 34 21 25 31 40 39 32 30 29 31 31 33 41 38 45 48 46 49 45 41 37 45 42 39 40 38 37 37 34 28
50 50 50 50 50 50 50 50 51 50 49 42 35 25 41 43 29 28 25 31 37 37 42 38 35 33 30 32 34 37 36 41 48 49 43 45 40 34 37 45 48 45 41 41 33 30 34
50 50 50 50 50 50 50 50 50 50 48 37 30 31 40 41 22 25 31 31 35 34 37 37 34 35 33 31 30 36 38 45 47 47 44 46 38 31 32 40 45 41 42 42 36 36 32
50 50 49 50 50 50 50 50 50 50 48 37 30 23 30 36 34 29 29 30 31 40 38 40 36 35 34 33 35 33 34 42 46 46 47 47 39 36 31 34 39 36 39 42 39 31 35
50 50 50 49 49 49 50 50 50 49 48 37 33 25 30 22 28 29 31 31 29 30 38 37 33 34 33 30 33 33 36 40 45 46 45 44 34 38 39 40 40 39 39 40 38 39 33
49 50 50 49 49 49 49 50 50 50 47 34 26 28 32 30 31 29 30 30 30 30 32 32 33 37 37 33 33 32 35 36 37 44 42 44 35 38 35 40 40 37 40 41 41 41 41
49 49 49 49 49 49 49 50 49 49 46 33 33 34 33 29 30 29 28 29 30 33 36 36 36 37 36 36 37 39 42 41 41 40 39 39 37 34 30 36 37 32 37 41 43 45 44
49 49 49 50 49 49 49 49 49 49 46 39 35 34 28 24 29 30 31 33 32 35 33 37 39 35 40 43 43 42 41 41 42 42 43 37 37 35 30 33 22 39 46 46 43 45 47
48 48 49 49 49 49 49 49 49 49 48 42 38 35 32 23 30 32 32 32 34 36 35 36 39 41 42 40 36 35 35 37 38 39 39 42 37 31 28 28 34 39 41 40 39 40 45
48 48 49 48 49 48 48 48 49 48 49 42 41 42 36 29 29 34 31 33 30 31 32 36 41 43 40 35 32 28 26 31 32 35 40 38 39 35 30 24 21 35 41 46 45 35 42
48 48 48 48 48 48 48 48 48 48 49 44 41 44 37 30 34 34 32 32 37 33 31 34 36 36 39 31 30 28 28 35 29 30 31 32 32 29 29 28 33 38 42 45 33 32 39
46 48 48 48 48 48 48 48 48 48 49 45 41 44 38 31 34 36 38 35 35 34 30 35 33 35 34 30 30 29 29 32 32 35 33 32 30 28 30 27 24 41 43 35 36 37 37
47 47 47 47 47 47 47 48 48 48 49 48 39 44 44 35 35 38 40 43 42 41 36 35 35 33 34 31 31 32 30 31 30 28 38 30 32 30 33 31 37 39 36 37 38 34 34

GFSGBSN_sfc_temp_102.txt.gz
Temp
59 58 58 58 57 57 58 57 57 57 57 56 56 57 57 57 57 57 56 56 56 56 57 57 57 57 57 54 57 76 66 69 75 72 69 69 67 67 64 68 69 65 69 72 73 73 72
57 57 58 57 57 57 57 57 57 56 56 56 56 56 56 56 56 56 56 56 55 55 56 56 57 57 54 43 71 72 69 68 70 71 71 71 69 72 67 67 65 69 69 71 71 71 71
57 57 56 56 56 56 56 56 56 56 56 56 56 55 55 55 55 55 55 55 55 55 56 56 57 59 48 51 71 73 70 68 69 68 67 73 74 69 68 64 70 68 62 67 68 69 67
57 56 56 56 55 55 55 56 56 56 55 55 55 55 55 55 55 54 54 54 54 55 56 57 57 55 48 65 71 67 69 67 69 69 67 71 69 68 68 71 65 62 63 57 67 68 69
57 56 56 55 55 55 55 55 55 55 55 55 55 55 54 54 54 54 53 54 54 56 57 57 57 51 49 64 59 67 69 62 66 67 67 69 68 64 65 59 58 60 55 56 60 69 68
56 56 55 55 55 55 55 55 54 54 54 54 54 54 54 54 54 53 53 53 56 57 60 63 58 46 55 57 62 66 70 65 60 61 58 58 61 58 59 57 47 53 53 57 57 66 66
55 55 55 55 55 55 55 55 54 54 54 54 54 54 54 53 53 53 55 61 55 54 52 47 51 51 55 64 68 64 67 63 61 59 52 57 50 50 56 58 57 58 57 57 62 65 60
55 54 54 54 54 54 54 55 54 54 54 54 53 53 53 53 53 52 58 51 47 45 34 50 51 51 55 58 50 60 68 56 56 51 55 50 48 58 61 59 55 55 54 55 60 63 60
54 53 53 53 54 53 54 54 53 53 53 53 53 53 53 52 53 54 53 52 58 55 38 47 54 52 54 56 48 51 63 60 55 52 51 48 56 60 57 54 51 54 52 54 53 59 62
54 53 53 53 53 53 53 53 53 53 53 53 53 52 52 51 51 54 53 57 59 55 32 44 49 53 56 55 47 60 64 61 56 52 51 51 58 53 52 51 53 49 59 55 54 51 48
53 52 52 52 53 52 52 53 53 53 52 52 52 52 52 50 51 50 54 58 57 46 24 49 50 61 56 49 53 56 63 60 53 53 51 47 50 50 50 52 56 52 56 55 54 52 51
52 52 52 52 52 52 52 52 52 52 52 52 52 52 52 54 54 55 57 56 52 34 25 42 52 49 49 49 51 57 54 62 63 54 54 51 56 55 53 56 56 57 53 52 52 50 41
52 52 52 52 52 52 52 52 52 52 52 52 51 51 52 55 49 56 55 51 34 27 47 40 40 47 45 43 49 50 47 47 48 41 42 49 49 53 55 48 54 54 49 38 34 33 40
52 52 51 51 51 51 51 51 51 51 51 51 51 50 52 55 55 53 51 41 24 37 38 46 44 45 39 40 47 49 47 45 54 52 46 39 35 47 52 52 48 49 50 43 34 37 44
52 52 51 51 51 51 51 51 51 51 51 51 50 55 55 54 53 53 45 30 32 36 40 37 41 37 33 38 38 48 47 48 52 54 43 41 40 52 54 55 56 47 42 51 39 43 40
52 51 51 51 51 51 51 51 51 51 51 50 52 51 50 52 52 50 39 29 35 42 42 40 27 34 26 35 33 45 46 52 50 55 57 50 37 50 50 55 53 51 54 39 42 32 32
51 51 51 51 50 50 50 51 51 51 50 48 51 46 50 53 52 45 31 34 38 44 44 33 31 29 31 31 32 35 45 51 54 53 55 53 48 41 49 47 46 46 44 44 46 41 35
51 50 51 50 50 50 50 50 50 50 49 50 48 37 51 52 39 40 34 36 40 41 45 41 40 35 30 32 30 32 40 47 52 56 48 51 47 39 43 51 56 51 48 47 40 33 40
50 50 50 50 50 50 50 50 50 50 49 52 44 46 53 48 32 34 40 39 41 40 40 37 35 37 36 31 29 37 41 50 53 53 48 51 45 36 36 45 51 46 48 47 40 41 37
50 50 50 50 50 50 50 50 50 50 48 52 41 33 46 44 40 36 34 35 36 44 41 40 36 35 33 33 36 34 37 46 50 50 47 52 46 43 39 41 47 41 45 48 45 38 41
50 50 50 50 49 49 50 50 50 50 49 52 40 35 39 33 38 37 38 38 35 31 38 37 35 36 33 31 33 32 36 39 44 47 46 48 40 44 45 46 46 46 45 45 44 45 39
50 49 49 49 49 49 49 50 50 50 48 50 35 41 43 41 39 36 35 36 35 32 31 33 34 39 40 36 33 32 34 37 37 44 43 45 38 44 40 46 45 42 45 46 46 47 47
50 49 49 49 49 49 49 50 50 50 50 48 47 47 44 37 39 37 35 34 34 38 41 44 40 41 40 38 42 44 44 43 44 43 44 44 42 41 35 42 42 37 44 45 47 50 49
50 49 49 49 49 49 49 49 49 49 50 50 51 50 42 36 40 38 37 39 38 40 37 43 44 40 45 48 51 50 48 46 47 48 49 44 43 43 36 38 28 42 51 50 47 49 47
48 49 49 49 49 49 49 49 49 49 49 51 51 48 45 35 40 39 39 39 41 44 42 41 44 47 48 47 43 40 42 42 43 47 47 49 45 37 34 35 39 42 44 44 43 43 43
48 49 49 49 48 49 48 49 49 49 49 45 45 51 46 39 41 40 39 40 39 39 41 42 49 50 48 44 40 33 31 37 37 40 48 46 47 42 37 30 27 38 47 52 50 38 43
48 48 48 49 48 48 48 48 48 49 49 45 42 46 39 37 46 42 41 39 44 41 39 42 42 43 47 40 37 34 35 41 35 35 36 39 39 35 35 33 37 43 49 52 36 32 39
47 48 48 48 48 48 48 48 48 49 49 45 42 46 42 37 45 44 45 42 44 43 36 42 41 42 39 35 34 34 34 38 39 40 37 37 36 35 36 31 27 38 48 38 35 36 36
47 45 46 48 48 48 48 47 48 48 49 47 40 46 46 37 44 47 49 50 50 48 42 45 40 39 41 35 34 35 34 36 34 33 44 32 34 33 32 29 34 35 33 35 36 33 34

GFSGBSN_sfc_temp_108.txt.gz
Temp
61 60 59 59 58 58 58 57 57 57 56 56 56 56 56 57 57 56 56 56 56 56 56 57 57 57 58 56 59 78 67 69 75 76 71 71 68 65 61 66 70 67 71 75 78 78 78
60 59 59 58 58 58 57 57 57 56 56 56 56 56 56 56 56 56 55 55 55 55 56 56 57 57 54 45 74 80 80 78 76 74 72 72 70 73 67 66 66 71 72 73 77 77 78
59 59 58 58 57 57 57 56 56 56 56 55 56 55 55 55 55 55 55 55 55 55 55 56 57 59 53 53 76 77 78 76 77 75 70 75 76 70 70 65 72 71 65 70 73 75 73
58 58 58 57 56 56 56 56 56 55 55 55 55 55 55 55 54 54 54 54 54 55 56 57 57 58 50 71 76 74 75 72 75 75 73 73 74 69 67 70 67 63 64 57 68 72 74
57 58 57 56 56 56 56 56 55 55 55 55 55 55 54 54 54 54 54 54 54 55 56 58 57 55 51 72 66 73 74 67 71 73 73 75 70 63 64 57 54 59 52 56 60 72 71
57 56 56 56 56 56 56 55 55 54 54 54 54 54 54 54 54 53 53 53 57 58 62 66 64 53 59 59 72 72 76 72 67 67 64 64 61 54 55 54 44 50 53 56 57 67 69
56 55 56 56 56 56 55 55 54 54 54 54 54 54 54 54 54 53 54 61 57 57 60 54 57 57 62 70 73 68 72 68 66 62 51 58 50 46 51 55 57 58 57 57 62 69 66
54 54 55 55 56 55 55 55 54 54 54 54 54 54 54 54 53 53 55 56 56 56 43 56 57 57 62 64 55 61 70 56 56 50 56 52 46 55 58 58 56 55 54 55 62 67 66
52 53 54 55 55 55 55 54 54 53 53 53 53 53 53 53 53 55 60 59 66 62 44 50 59 60 61 65 56 57 65 60 53 50 51 48 53 59 56 55 54 55 53 53 54 62 66
52 52 53 54 54 54 54 54 53 53 53 53 53 53 53 52 51 60 59 64 64 61 36 47 54 57 61 61 54 67 68 60 54 48 52 52 59 56 54 52 56 49 61 59 56 52 46
52 52 52 53 54 53 53 53 53 53 53 53 52 53 53 53 52 56 60 64 63 55 26 55 55 63 62 55 49 54 68 59 49 50 51 47 50 53 52 54 59 55 61 56 55 51 50
52 52 52 52 52 53 53 53 52 52 52 52 52 52 52 59 55 62 63 61 56 32 27 46 55 51 51 54 55 56 57 58 55 52 53 53 61 56 58 61 61 63 55 53 52 49 38
51 51 52 52 52 53 53 52 52 52 52 52 52 52 52 59 54 62 60 55 32 28 49 43 44 48 47 46 43 46 46 43 38 39 39 49 47 48 63 55 60 56 48 33 30 31 33
51 52 52 52 52 52 53 52 52 52 52 52 52 51 56 63 62 60 56 40 28 41 41 48 46 46 41 37 39 43 39 38 49 46 45 38 33 46 59 56 52 50 47 34 29 30 37
52 52 52 52 52 52 52 52 51 52 52 52 51 58 57 59 61 59 47 34 36 41 46 42 43 37 36 42 39 36 39 43 50 52 41 32 36 50 56 61 57 48 41 51 38 44 38
52 52 52 52 52 52 52 51 51 52 52 52 54 57 58 60 61 54 42 37 42 48 49 45 31 35 28 34 31 33 39 53 52 56 54 43 33 43 52 53 57 50 54 37 37 29 28
51 52 52 51 51 51 51 51 51 51 52 52 51 51 56 61 58 49 35 41 46 53 51 42 38 32 32 31 32 34 39 52 58 50 49 39 36 42 49 42 41 39 40 43 45 42 32
51 52 51 51 51 51 51 51 51 51 52 49 54 43 58 60 41 45 42 46 48 49 52 47 43 36 32 33 32 31 33 40 62 51 41 49 41 37 42 54 56 46 43 43 37 39 43
50 51 51 51 51 51 51 50 51 51 51 53 51 52 59 56 37 41 47 47 50 47 46 44 39 39 37 32 29 32 36 49 54 53 46 49 39 32 34 43 50 45 50 52 47 43 41
50 51 51 51 51 51 51 50 50 51 51 50 46 38 50 53 50 43 42 43 43 50 47 47 44 42 40 33 36 32 35 47 52 50 47 52 44 40 31 37 47 42 47 50 49 38 42
50 51 50 50 50 50 50 50 50 50 50 50 46 41 48 38 43 44 45 45 42 40 47 47 42 44 39 32 33 33 36 43 50 49 49 43 35 35 38 47 50 45 46 49 45 47 41
50 50 50 50 50 50 50 50 50 50 50 50 34 45 49 48 47 44 42 42 41 43 44 41 42 44 43 38 37 34 38 40 41 47 45 46 36 42 32 43 44 37 48 50 47 46 43
50 50 50 50 50 50 50 50 50 50 49 49 57 56 50 45 47 44 42 43 43 47 48 50 47 44 43 43 47 50 52 51 49 45 41 40 42 39 34 46 44 36 44 43 43 43 41
50 50 50 50 50 50 50 49 50 50 49 51 52 54 46 39 45 46 45 47 46 48 44 50 50 44 49 55 56 55 54 53 53 51 49 40 42 43 34 39 26 40 51 47 41 41 44
49 50 50 50 50 50 50 49 49 50 50 51 52 49 46 39 47 47 45 46 48 51 49 50 50 52 54 51 45 40 42 43 47 51 50 51 46 39 35 35 38 42 43 40 39 33 41
49 49 50 50 49 49 49 49 49 49 50 52 50 54 49 41 40 48 45 48 43 44 46 50 53 57 52 49 42 35 32 38 37 41 54 52 51 42 39 33 27 32 39 48 48 28 38
48 49 49 49 49 49 49 49 49 49 50 52 50 53 47 38 49 48 42 42 48 46 44 48 47 47 50 41 37 34 34 45 34 36 38 39 39 36 36 34 32 34 41 48 32 27 36
48 48 49 49 49 48 49 49 49 49 50 49 49 54 48 41 47 50 50 45 46 46 39 45 44 43 40 36 36 36 36 40 36 42 39 35 32 32 34 30 25 36 41 32 32 35 36
48 48 48 48 48 48 48 48 48 49 49 49 43 53 53 42 46 50 52 54 53 51 45 47 44 43 43 38 38 37 34 39 39 29 45 31 36 33 30 28 34 37 34 37 39 36 36

GFSGBSN_sfc_temp_111.txt.gz
Temp
62 61 60 60 59 59 58 58 57 57 56 56 56 56 56 57 57 57 56 56 56 56 56 57 57 57 53 47 50 67 67 67 66 67 63 61 58 57 52 55 57 56 62 66 69 70 70
61 60 60 59 59 59 58 57 57 56 56 56 56 56 56 56 56 56 55 55 55 55 56 56 57 57 48 37 64 69 69 67 67 64 63 62 59 62 59 58 55 61 62 64 67 68 70
60 60 59 58 58 58 58 57 56 56 56 55 55 55 55 55 55 55 55 55 55 55 55 56 57 55 47 44 62 64 65 63 66 66 62 66 64 59 58 56 64 62 56 61 63 66 65
60 59 59 58 57 57 56 56 56 55 55 55 55 55 55 54 54 54 54 54 54 55 56 57 57 51 43 64 61 63 63 62 68 67 65 65 65 58 54 59 57 53 54 47 59 64 66
58 58 58 57 57 56 56 56 55 55 55 55 55 54 54 54 54 54 54 54 54 55 56 57 50 48 43 66 60 65 65 62 65 66 64 71 64 54 53 45 43 47 41 46 52 63 63
58 58 58 56 56 56 56 56 55 54 54 54 54 54 54 54 53 53 53 54 56 56 58 62 59 45 53 54 65 66 68 68 62 61 59 57 52 47 46 41 31 39 42 45 47 56 62
57 58 56 55 55 56 56 55 54 54 54 54 54 54 54 54 54 53 50 48 46 45 50 45 50 51 55 61 65 60 64 61 59 54 44 51 42 38 42 45 47 47 46 46 52 60 59
57 55 55 55 55 55 55 55 54 54 54 54 54 53 54 53 53 53 48 47 50 48 37 51 52 52 57 59 50 56 63 51 50 42 47 44 39 48 51 50 47 46 43 43 51 59 60
55 55 55 54 54 54 55 55 54 53 53 53 53 53 53 53 53 50 48 52 56 53 36 44 54 55 56 59 50 52 56 49 44 44 44 38 44 53 51 47 45 45 43 45 46 54 59
53 53 53 54 54 54 54 54 53 53 53 53 53 53 53 52 48 48 48 56 55 51 25 42 52 56 60 60 50 63 58 50 41 39 43 43 50 50 49 46 47 40 51 52 50 49 38
52 52 53 53 54 54 53 53 53 53 53 53 52 53 52 52 43 45 52 54 53 46 21 50 53 64 60 51 52 54 62 55 41 38 44 37 44 45 45 47 51 45 53 52 52 40 39
51 52 52 53 53 52 52 52 52 52 52 52 52 52 52 52 44 49 53 51 46 29 22 43 51 47 46 50 47 51 52 55 52 42 44 41 52 51 50 51 48 55 51 45 45 42 29
50 51 51 52 52 52 52 52 52 52 52 52 52 52 50 53 43 52 51 43 29 21 46 40 40 46 44 42 42 43 41 38 34 30 32 39 43 51 53 43 48 50 42 27 27 24 26
50 50 51 52 52 52 52 52 52 52 52 52 52 51 50 53 50 50 44 35 24 38 38 46 44 43 38 40 39 39 36 33 42 39 32 28 26 44 50 44 43 45 40 27 24 24 30
50 51 52 52 52 52 52 52 52 51 52 52 51 45 45 48 51 47 37 22 29 38 43 41 41 34 32 38 36 35 35 36 42 42 31 29 35 47 49 49 49 43 37 45 33 38 31
51 52 51 52 52 52 52 52 51 51 52 52 41 43 45 51 51 43 32 33 39 47 48 44 31 35 26 32 30 33 35 43 42 47 48 37 29 40 47 51 51 46 52 35 34 27 26
52 50 51 51 51 51 51 51 51 51 52 51 40 38 47 52 48 37 23 33 43 51 48 40 34 31 31 31 32 34 36 43 44 46 47 42 34 35 43 42 40 39 38 39 39 35 28
51 51 51 51 51 51 51 51 51 51 51 47 40 32 48 49 32 34 26 41 47 47 49 44 41 35 32 33 30 28 32 35 44 48 41 41 33 32 36 44 49 42 42 42 32 30 34
50 51 51 51 51 51 51 51 50 51 51 41 37 38 47 46 24 25 40 44 48 44 44 41 40 38 37 30 27 28 34 42 45 46 40 42 35 30 32 37 43 38 41 43 42 37 32
50 50 50 50 51 51 51 51 50 50 51 42 35 28 37 39 39 35 35 38 40 48 45 45 43 38 34 28 34 31 34 43 47 47 48 46 39 33 28 32 40 37 42 44 38 32 33
49 50 50 50 50 50 51 50 50 50 50 41 34 30 39 25 31 35 37 40 38 37 45 44 37 39 34 26 30 29 34 39 45 47 45 41 33 34 36 40 37 34 35 36 37 41 32
50 50 50 50 50 50 50 50 50 50 50 39 27 34 39 37 41 37 37 37 38 40 38 36 37 40 39 33 34 31 36 37 37 43 41 43 33 33 31 38 39 34 41 41 39 37 37
50 50 50 50 50 50 50 50 50 50 48 39 43 43 38 39 37 32 32 37 39 42 44 46 42 39 36 39 43 44 45 44 44 42 38 38 36 32 28 37 40 31 36 36 36 38 37
50 50 50 50 50 50 50 50 50 49 48 44 41 40 34 28 34 39 43 43 42 43 40 46 43 38 44 49 48 48 47 48 48 45 46 39 38 38 30 36 25 32 42 40 34 35 38
49 50 50 50 50 50 50 49 49 49 50 45 43 39 35 27 39 43 42 42 43 44 42 44 44 46 47 45 38 36 35 37 42 45 45 46 40 34 28 28 32 35 36 33 35 30 36
49 49 50 49 49 49 49 49 49 49 50 43 42 44 38 31 32 45 39 41 34 33 36 41 47 47 44 38 33 30 27 34 33 40 49 46 43 36 32 27 22 30 35 41 42 24 35
49 49 49 49 49 49 49 49 49 50 50 44 42 44 39 29 42 41 35 34 40 36 33 38 39 39 41 29 30 28 30 41 29 31 31 32 31 28 29 27 28 31 36 42 28 25 35
48 48 48 49 49 48 48 49 49 49 50 44 41 45 41 35 39 43 45 37 38 37 27 35 32 34 30 28 28 29 28 34 33 37 35 29 28 25 28 26 21 34 37 29 32 35 35
48 48 48 48 48 48 48 48 49 49 49 47 41 47 46 36 36 43 45 46 44 43 37 37 36 37 35 28 29 32 31 31 32 26 39 27 33 27 28 26 32 35 33 35 35 33 34

GFSGBSN_sfc_temp_114.txt.gz
Temp
62 62 62 60 60 59 59 58 57 57 56 56 56 56 56 56 56 56 56 56 56 56 56 56 57 57 50 44 46 62 67 66 65 64 60 58 54 51 47 50 52 51 56 60 62 63 64
61 62 60 60 59 59 59 58 57 56 56 56 56 56 56 56 56 56 56 55 55 55 56 56 56 57 46 38 62 64 63 63 63 59 58 58 55 57 51 50 51 55 56 56 60 60 62
61 61 60 59 59 59 58 57 57 56 56 55 55 55 55 55 55 55 55 55 55 55 55 56 57 55 45 43 59 60 59 56 59 60 56 60 60 54 52 48 55 55 50 55 57 59 58
61 60 60 58 58 58 58 56 56 56 55 55 55 55 55 54 54 54 54 54 54 55 55 56 57 52 42 60 57 59 58 60 63 62 60 62 60 55 51 53 51 47 47 41 54 56 60
60 59 59 58 57 57 56 56 56 56 55 55 55 54 54 54 54 54 54 54 54 55 56 56 49 45 41 62 58 62 60 58 62 63 61 68 58 51 48 40 37 40 35 40 45 55 56
59 58 58 57 57 56 56 56 55 55 55 54 54 54 54 54 54 53 53 53 55 56 57 58 57 42 49 51 61 62 61 62 57 56 55 53 48 44 42 34 28 34 36 39 40 47 54
59 58 58 57 56 56 56 56 55 54 54 54 54 54 54 54 54 53 51 48 46 43 47 42 46 46 49 56 61 57 61 57 55 49 39 46 38 35 41 42 43 42 39 38 44 52 50
57 57 57 57 56 56 56 56 55 54 54 54 54 53 54 54 53 53 50 48 48 45 35 48 49 49 54 55 48 55 59 48 47 38 42 39 34 44 48 48 44 41 38 37 45 51 50
56 56 56 56 56 55 56 55 54 54 53 53 53 53 53 53 53 50 48 48 53 50 33 43 51 51 54 56 50 51 54 48 41 38 38 34 39 48 45 43 41 41 38 38 39 47 51
55 55 55 54 54 54 54 55 54 53 53 53 53 53 53 52 49 47 46 53 51 49 28 44 48 54 57 56 47 60 56 49 42 37 41 36 42 42 42 40 45 33 46 45 43 40 32
54 53 53 53 53 53 54 54 53 53 53 53 52 52 52 53 44 45 50 51 51 45 22 47 49 61 57 48 49 50 58 50 41 41 40 37 41 40 35 42 48 39 44 45 44 39 40
53 53 53 52 52 52 52 52 52 52 52 52 52 52 52 49 44 48 50 49 46 29 22 41 48 46 44 47 47 50 49 51 49 41 40 39 48 44 42 47 48 49 43 45 39 35 28
52 53 52 51 50 51 51 51 51 52 52 52 52 52 50 52 44 50 48 43 29 21 43 38 38 44 42 40 41 43 40 37 32 27 28 38 39 44 49 41 47 43 35 21 25 24 26
51 51 50 50 51 51 51 51 52 52 51 52 51 51 49 51 49 47 44 34 25 36 36 44 43 42 35 38 38 39 35 31 39 37 32 25 25 39 48 43 39 40 38 27 22 23 28
50 49 49 50 51 50 51 51 52 51 51 51 51 44 44 48 48 46 37 22 29 36 42 39 39 32 30 37 37 35 34 35 40 40 29 26 30 44 48 49 45 38 33 42 32 33 28
49 49 50 50 50 50 51 51 51 51 51 51 42 43 44 49 48 42 30 33 37 45 45 42 28 34 27 32 31 30 35 41 38 42 44 38 28 42 44 46 49 41 46 30 30 21 18
49 50 50 50 51 51 51 51 51 51 51 50 41 38 46 49 46 36 23 32 41 47 46 37 33 32 29 30 32 30 35 40 41 39 44 41 36 36 38 40 36 38 38 36 36 31 22
51 50 50 51 51 51 51 51 50 51 51 46 39 32 46 47 31 29 25 39 46 44 46 42 40 36 31 31 30 29 31 35 45 44 38 42 33 28 35 42 47 40 39 40 27 28 34
50 51 50 51 51 51 51 50 50 51 50 41 37 37 45 45 25 24 36 41 44 42 41 39 36 38 35 29 22 27 33 43 45 44 41 42 34 29 31 35 42 39 42 45 38 34 32
50 51 51 51 51 51 51 50 50 50 51 42 35 28 35 38 35 34 33 36 36 44 42 43 39 36 31 24 29 26 31 41 45 44 47 45 37 31 26 32 35 34 40 42 38 31 29
50 50 50 50 50 50 50 50 50 50 50 41 32 30 36 25 30 34 35 37 35 35 42 41 34 35 30 21 27 25 33 38 42 46 43 40 31 33 36 36 36 33 35 36 35 33 29
50 50 50 50 50 50 50 50 50 50 49 39 28 33 36 35 39 35 34 35 36 37 36 34 34 37 35 31 31 28 35 35 34 41 38 42 32 32 31 35 35 31 33 34 35 34 32
50 50 50 50 50 50 50 49 49 49 47 38 38 39 36 35 34 30 29 35 36 38 42 43 38 36 33 36 41 42 42 41 41 38 37 36 34 31 27 33 34 27 30 31 32 33 34
49 50 50 50 50 50 50 49 49 49 48 40 38 37 32 26 32 35 40 41 39 40 36 41 40 37 42 46 44 44 42 43 43 44 44 38 36 35 28 31 21 29 36 37 32 33 34
49 50 50 50 50 50 49 49 49 49 50 42 40 37 32 25 34 38 39 38 39 39 38 39 41 44 43 40 35 33 33 36 40 44 44 44 38 31 28 28 28 32 32 30 31 28 34
49 50 50 49 49 49 49 49 49 49 49 42 40 40 35 30 30 40 36 37 30 30 32 38 43 43 40 34 29 27 26 32 32 37 44 42 40 33 30 25 19 26 32 38 38 24 34
49 49 49 49 49 49 49 49 49 49 50 42 40 41 36 28 35 37 33 32 37 33 30 33 36 36 37 26 26 25 27 37 28 29 30 30 30 26 28 26 26 30 35 40 26 24 34
48 49 49 49 49 48 48 48 49 49 49 43 39 42 38 30 34 40 42 35 35 33 25 32 30 33 29 25 26 26 26 32 31 35 32 29 26 24 27 23 20 32 34 29 31 33 34
48 48 48 48 48 48 48 48 48 49 48 46 38 43 42 34 34 40 42 44 43 42 34 34 36 35 32 26 31 29 27 29 29 23 37 26 29 26 27 25 31 33 32 34 35 33 33

GFSGBSN_sfc_temp_117.txt.gz
Temp
62 62 62 61 61 60 60 59 58 57 57 56 56 56 56 56 57 56 56 56 56 56 56 56 57 57 50 43 46 59 65 64 63 61 56 55 51 48 44 47 49 47 52 56 58 58 58
62 61 61 61 60 60 60 59 58 57 56 56 56 55 55 56 56 56 55 55 55 55 55 56 56 57 46 41 58 60 59 60 61 57 56 56 53 54 49 48 46 51 51 53 55 55 55
62 61 61 60 60 59 59 58 57 57 56 56 55 55 55 55 55 55 55 55 55 55 55 56 56 54 45 45 57 56 57 57 58 58 54 58 57 51 49 45 52 51 44 48 51 53 53
61 61 61 60 59 58 58 58 57 57 56 56 55 55 54 54 54 54 54 54 54 55 56 56 56 52 41 59 57 57 57 57 60 58 57 59 58 52 48 50 48 43 42 35 48 50 53
61 61 60 59 58 58 58 57 57 57 56 55 55 55 54 54 54 54 54 54 54 56 57 56 48 44 40 61 56 61 58 56 59 58 57 65 55 48 46 38 34 36 31 35 41 50 50
61 61 60 59 58 58 57 56 56 56 56 55 55 54 54 54 53 53 53 53 54 56 56 56 53 41 48 51 57 59 58 60 54 53 52 49 45 38 37 35 27 31 31 33 34 43 46
61 60 59 59 58 57 57 56 55 55 55 54 54 54 54 53 54 53 49 47 44 44 45 43 44 45 48 53 57 54 58 54 52 47 37 43 34 29 34 38 41 40 37 35 39 46 43
60 60 59 57 57 56 56 56 55 55 54 54 54 53 53 53 53 53 46 45 46 45 36 46 46 46 51 52 46 52 56 46 44 37 39 35 31 41 43 43 40 39 35 34 40 46 44
59 58 58 57 56 56 55 55 55 54 54 54 53 53 53 52 53 48 44 46 52 51 34 43 49 48 52 52 47 48 52 47 41 36 36 32 39 45 42 39 37 37 35 36 35 42 44
58 57 56 56 55 55 55 54 54 54 53 53 52 52 52 52 47 42 43 50 50 50 28 43 48 52 54 53 45 58 54 48 40 35 38 35 43 40 38 37 39 31 42 43 38 36 27
57 56 55 55 55 54 54 52 52 52 52 52 52 52 52 52 41 43 47 49 50 45 24 46 48 59 54 46 47 47 54 47 38 39 39 34 38 38 36 39 43 35 44 43 38 34 32
56 55 54 54 53 53 52 52 52 52 52 52 52 52 52 48 41 46 48 46 45 30 25 39 46 43 43 44 44 48 46 48 47 39 39 38 46 41 40 44 44 45 41 40 38 33 21
54 53 53 52 52 52 52 52 52 52 51 51 52 52 50 50 43 46 46 43 29 23 42 37 38 42 39 37 39 40 38 35 30 27 28 35 36 41 44 36 42 40 35 23 18 18 23
53 52 52 52 52 51 50 51 51 51 51 51 51 51 49 49 47 45 43 35 27 35 35 43 41 39 33 36 36 37 34 31 40 34 29 24 25 36 43 38 35 36 35 26 20 23 27
52 51 50 50 50 50 50 51 51 51 51 51 51 43 44 46 47 45 36 23 30 35 41 38 38 31 29 35 34 32 33 36 36 39 28 28 29 42 45 45 44 37 31 41 30 34 26
49 49 49 49 49 50 50 50 50 51 51 51 42 42 44 48 48 41 31 33 37 44 44 40 28 32 22 29 25 29 33 41 37 43 43 37 28 41 43 45 45 43 42 29 29 24 21
48 49 50 49 49 49 50 50 50 51 51 50 41 39 45 47 46 35 23 32 40 46 45 37 31 28 27 25 29 31 34 40 43 43 44 40 35 34 40 38 37 37 33 35 38 34 25
49 49 49 49 50 50 50 50 50 50 51 46 40 32 44 46 31 28 26 37 45 42 44 40 38 35 28 28 31 30 30 36 44 44 37 41 34 28 33 41 45 40 37 37 27 28 32
49 50 50 50 50 50 50 50 50 50 50 41 37 37 44 44 26 24 35 40 43 40 40 38 34 35 33 23 22 26 32 42 43 41 38 42 34 27 32 37 44 38 40 38 37 35 28
49 50 50 51 50 50 50 50 50 50 50 42 35 28 35 38 35 34 33 35 35 42 40 40 37 34 29 23 29 25 29 40 43 42 47 43 35 31 26 30 34 33 39 39 37 28 26
50 50 50 50 50 50 50 50 50 50 50 42 34 30 36 25 29 34 35 37 34 33 40 39 32 33 28 19 24 24 30 37 41 44 40 40 31 32 32 33 34 33 37 35 33 32 27
50 50 50 50 50 50 50 50 50 50 49 40 32 34 35 34 38 35 34 33 34 35 34 32 32 36 33 30 30 28 31 35 32 38 37 41 32 32 29 34 33 28 30 32 32 31 29
50 50 50 50 50 50 50 50 49 49 48 38 37 38 36 34 33 31 29 34 35 36 39 40 36 33 32 35 38 40 40 39 40 36 34 35 34 31 27 33 33 25 27 29 30 32 34
50 50 50 50 50 50 49 49 49 49 47 41 38 37 33 27 32 34 38 38 36 37 35 39 37 34 40 43 41 41 38 38 39 40 39 35 35 34 28 31 19 27 33 34 30 31 32
49 50 50 50 50 50 49 49 49 49 49 42 39 37 33 27 33 36 37 36 36 37 36 37 39 41 41 37 33 33 32 35 39 42 40 41 35 30 27 25 27 29 30 29 30 27 32
49 50 50 49 49 49 48 49 49 49 49 42 39 39 36 31 30 38 34 35 30 29 32 35 41 40 38 32 29 26 25 30 29 34 42 39 38 33 30 24 19 26 31 35 36 23 33
49 49 49 49 49 48 48 48 49 49 49 43 39 40 37 30 35 37 32 32 35 31 29 31 34 34 35 25 25 24 26 35 25 27 28 30 30 26 28 24 26 29 32 36 25 24 33
48 49 49 49 48 48 48 48 48 49 49 43 39 41 38 30 34 38 40 34 34 31 25 32 28 31 27 24 25 25 25 30 30 32 30 27 26 24 27 23 19 32 34 28 30 32 33
48 48 48 48 48 48 48 48 48 49 49 46 38 42 41 35 35 38 41 43 41 40 33 35 35 32 31 25 30 27 25 28 28 22 35 25 29 26 26 24 30 32 31 33 34 30 30

GFSGBSN_sfc_temp_120.txt.gz
Temp
63 63 62 62 61 61 61 60 59 58 57 57 57 56 56 56 56 56 56 55 55 56 56 56 56 57 49 45 46 58 63 61 60 59 54 52 48 45 41 43 45 43 46 50 51 52 52
62 61 62 61 61 61 61 60 59 57 57 56 56 56 56 56 56 56 55 55 55 55 55 56 56 56 45 41 55 57 57 57 57 54 53 53 50 51 45 44 42 47 47 47 49 49 50
63 62 61 61 60 60 60 59 58 57 57 56 56 55 55 55 55 55 55 55 54 54 55 56 56 53 43 47 54 54 56 53 54 56 51 55 55 51 48 44 49 48 42 47 47 45 46
63 62 61 60 60 59 59 59 58 57 57 56 56 55 54 54 54 54 54 54 54 55 55 56 56 48 43 57 53 55 51 55 56 56 56 58 56 50 46 48 46 41 39 33 44 47 48
61 62 62 61 60 58 58 58 57 57 57 56 56 55 54 54 54 54 54 54 54 56 56 56 46 43 43 60 54 57 55 54 56 55 55 63 53 46 44 37 32 33 29 32 38 46 45
60 61 63 60 59 58 58 57 56 56 56 56 55 54 54 54 53 53 53 53 55 54 54 55 52 40 48 49 55 56 55 56 52 52 51 48 41 37 34 32 26 26 28 28 31 38 43
59 60 61 60 59 59 58 57 56 56 56 55 55 54 54 53 53 53 48 47 43 41 43 41 42 43 47 52 54 52 54 51 49 45 36 41 33 29 33 36 39 36 34 32 37 44 41
58 59 60 61 59 59 58 57 55 54 55 55 54 54 53 53 53 53 43 42 42 43 35 44 44 45 49 50 44 49 54 45 42 36 38 34 30 39 41 39 37 35 32 31 38 43 42
57 57 59 61 59 58 57 56 54 54 54 54 54 53 53 52 52 48 43 43 48 47 35 42 46 46 49 49 44 46 50 45 39 35 34 30 36 42 40 37 34 34 32 33 33 39 42
58 57 58 61 59 57 56 55 54 54 53 52 52 53 52 52 47 41 41 47 48 46 29 39 44 49 52 50 43 53 51 47 39 34 36 34 40 39 36 34 36 28 39 38 36 33 25
58 57 58 58 57 56 55 54 54 53 53 52 52 52 52 52 42 41 47 47 47 44 24 42 44 55 51 45 46 47 52 45 37 37 36 33 35 35 34 37 39 34 41 38 36 33 33
57 57 58 57 56 54 54 54 53 52 52 52 51 52 51 47 42 45 46 46 46 31 25 38 43 41 40 42 42 46 45 47 45 37 36 37 42 38 37 41 41 42 37 37 36 33 23
57 57 58 56 55 53 53 52 52 52 52 52 52 52 49 49 42 44 44 42 30 23 40 35 36 40 36 36 37 39 36 33 30 28 28 33 35 38 42 34 38 36 30 19 17 16 22
57 57 56 54 53 53 52 51 51 51 52 51 51 50 50 47 46 44 43 34 26 34 34 41 39 37 31 35 35 35 33 30 35 36 29 23 25 35 41 36 32 32 31 23 19 22 24
56 55 54 53 52 52 51 50 50 50 51 51 50 41 42 44 46 45 36 21 29 33 40 37 36 30 29 34 32 31 31 31 36 37 29 29 27 41 43 44 41 34 29 39 30 31 27
51 52 51 51 50 50 49 49 49 50 51 51 42 41 43 45 47 42 31 33 34 42 42 39 28 31 22 28 24 28 30 37 36 41 43 36 27 40 43 44 42 40 43 29 28 21 20
48 47 48 48 48 48 48 48 49 50 51 50 40 37 44 46 47 35 25 33 39 45 44 36 31 28 27 24 25 30 31 38 43 40 41 38 34 34 39 36 33 34 32 34 35 32 23
48 48 47 47 48 47 48 48 50 51 51 47 40 31 43 46 33 30 29 38 45 41 43 39 37 33 26 27 25 24 27 35 45 42 35 41 34 28 34 44 43 39 36 35 25 26 29
48 47 47 48 48 48 48 49 50 50 50 41 36 36 44 43 28 26 35 39 42 40 39 37 34 34 30 23 18 20 30 40 42 40 36 39 33 27 29 37 40 36 38 38 36 33 27
49 48 48 48 49 49 49 50 50 50 51 42 35 28 36 38 35 35 34 34 36 42 40 39 36 33 28 19 25 19 28 38 41 42 45 42 34 28 22 27 33 30 36 39 36 25 24
49 49 49 49 50 50 50 50 50 50 50 41 32 31 37 28 30 34 36 36 34 34 39 38 32 33 28 19 22 23 29 34 40 43 41 38 31 32 31 31 31 30 31 35 31 30 25
49 49 50 50 50 50 50 50 50 50 49 38 32 33 35 34 36 34 35 34 34 34 34 32 33 34 33 30 30 26 30 31 32 38 36 41 30 32 28 33 30 26 28 30 31 29 27
49 50 50 50 50 50 50 49 49 49 47 38 37 39 37 33 33 32 31 34 35 36 37 39 35 32 32 33 36 37 38 38 39 35 32 34 32 30 25 32 34 25 26 27 29 30 31
49 50 50 50 50 49 49 49 49 49 47 41 38 37 34 28 33 34 37 38 36 36 35 38 36 33 38 39 39 37 35 35 36 37 38 33 32 32 28 30 19 27 33 32 29 29 30
49 50 50 50 49 49 49 48 49 49 48 41 38 38 35 28 34 35 36 36 36 36 35 36 37 39 38 35 33 32 31 33 35 39 37 39 32 30 25 24 26 29 29 29 29 26 30
49 50 50 50 49 48 48 48 49 49 49 41 38 39 38 34 31 38 34 35 31 29 32 34 38 39 37 31 28 26 23 29 29 32 39 38 34 32 28 25 19 25 31 36 34 23 31
49 49 49 49 48 48 48 48 49 49 49 42 39 40 39 31 34 36 32 32 34 31 29 30 32 33 33 24 25 24 26 32 25 26 27 29 30 26 27 24 25 29 32 36 24 22 31
48 48 48 48 48 48 48 48 48 49 49 43 38 40 39 32 34 38 40 34 33 31 25 31 28 29 26 23 25 25 25 28 27 31 28 26 25 24 27 23 20 31 33 28 30 32 32
48 48 48 48 48 48 48 48 48 49 48 46 38 41 41 35 35 38 39 41 40 39 32 31 31 31 30 24 24 26 25 26 28 20 32 25 28 26 25 23 30 31 30 33 31 28 29

GFSGBSN_sfc_temp_123.txt.gz
Temp
63 63 63 62 62 61 61 61 60 59 58 58 58 57 57 57 57 56 56 55 55 56 56 56 56 57 53 54 54 63 62 62 64 64 60 58 55 54 49 51 53 50 52 54 56 56 57
61 62 62 62 62 61 61 61 60 59 58 57 57 57 56 56 56 56 55 55 55 55 55 56 56 56 51 50 62 60 59 62 63 62 60 60 57 57 52 50 49 52 52 53 55 55 55
61 61 61 61 61 61 61 60 59 59 58 57 57 56 56 56 55 55 55 55 54 54 55 55 56 54 49 53 61 59 59 60 61 62 59 61 61 57 54 49 54 52 47 52 55 54 53
59 60 60 61 60 60 60 59 59 58 57 56 57 56 55 55 54 54 54 54 54 55 56 56 56 52 50 61 60 60 60 62 62 62 60 62 61 57 54 55 51 47 47 40 49 53 53
58 58 59 59 60 60 59 59 58 58 57 57 57 56 55 54 54 54 54 54 54 56 56 56 50 49 51 62 59 62 62 59 60 61 60 63 59 53 51 46 42 41 38 40 44 53 52
58 58 58 58 59 60 59 59 58 58 57 56 56 56 54 54 53 53 53 53 56 55 55 56 53 47 55 53 58 59 61 60 56 56 56 54 50 47 45 44 33 37 37 40 39 47 49
58 58 58 58 58 60 59 59 58 57 56 55 55 55 55 54 53 53 50 50 48 46 48 48 48 48 51 56 57 58 60 57 56 52 44 47 43 39 42 44 45 43 40 37 42 48 44
57 56 57 57 58 59 61 61 58 56 55 55 55 55 54 54 53 53 49 47 49 51 45 47 47 48 51 53 49 54 60 51 48 42 44 41 37 45 44 43 40 40 36 36 42 47 45
56 55 56 57 58 58 60 61 57 55 55 54 54 53 54 53 53 50 48 49 52 52 44 45 48 49 52 53 48 50 56 50 45 39 40 37 42 45 42 41 38 39 36 36 36 43 46
54 54 54 56 57 58 59 58 56 55 54 53 54 53 53 52 49 48 47 52 51 51 39 42 45 52 52 52 47 57 56 51 44 39 40 39 44 41 39 37 40 34 42 40 38 37 30
53 54 55 56 56 57 57 58 55 54 54 53 52 53 52 53 46 46 51 50 50 48 31 44 46 59 54 49 48 50 56 50 41 41 40 40 38 38 37 39 42 37 44 41 40 36 35
53 53 55 56 56 56 57 58 54 53 53 52 52 52 52 47 45 50 50 51 49 38 29 39 46 44 44 45 45 49 48 51 49 41 41 40 46 43 42 43 44 45 40 41 40 36 26
51 52 55 57 56 56 57 54 53 53 52 52 52 52 50 49 43 49 49 46 36 31 42 36 38 42 40 38 40 42 39 38 36 33 33 37 39 43 44 38 42 41 35 28 27 25 27
49 54 56 56 56 56 55 53 52 52 51 51 51 51 51 49 49 48 47 38 30 36 36 42 40 39 36 37 37 37 36 35 38 37 32 30 31 40 44 42 40 37 37 30 21 25 29
49 56 56 56 56 56 53 52 51 51 51 51 50 43 45 46 48 48 40 30 35 36 41 38 38 33 33 36 35 34 34 35 38 39 31 31 31 44 45 46 45 37 34 42 32 34 28
49 54 56 54 54 52 52 51 51 51 51 50 42 42 44 47 47 45 35 35 37 44 43 40 31 34 28 31 31 32 33 40 39 43 42 35 29 42 45 47 46 43 46 32 34 22 22
49 47 50 52 51 51 51 51 51 50 50 50 43 38 44 47 48 38 28 35 40 45 45 38 34 32 31 29 30 32 33 40 43 42 44 38 34 37 42 39 38 37 36 38 38 34 26
49 48 47 46 49 49 50 49 49 49 50 48 40 32 44 46 35 33 32 40 44 42 45 41 39 36 32 31 31 30 31 37 46 43 36 41 34 29 35 45 47 43 39 40 31 30 33
49 48 48 47 47 47 47 48 47 47 48 42 37 36 44 45 29 31 37 40 43 41 41 39 36 37 33 28 26 27 32 42 43 41 38 39 33 28 32 38 44 38 40 39 40 36 27
48 48 47 47 47 47 47 47 47 49 49 43 36 30 37 40 37 36 36 36 37 44 41 41 36 36 32 26 28 25 31 40 42 42 45 42 34 30 24 27 31 30 35 40 37 31 26
48 48 48 47 47 47 47 48 50 49 50 43 36 33 39 31 34 37 38 38 36 35 41 40 36 37 33 24 27 25 31 36 41 43 43 39 32 32 32 31 31 28 30 32 29 30 26
48 47 47 48 48 49 49 49 49 50 49 40 33 35 38 36 38 37 37 36 36 36 37 35 36 37 35 34 34 31 34 35 36 41 39 41 33 33 29 33 31 26 28 29 31 29 27
48 48 49 49 49 49 49 49 50 50 47 40 39 41 40 35 36 36 34 36 36 38 39 41 39 37 35 37 40 42 43 42 42 37 35 35 33 33 27 32 32 26 26 28 29 30 31
48 50 50 49 49 49 49 49 49 49 48 42 40 41 36 31 36 35 38 40 37 39 36 40 40 38 40 42 41 40 38 38 38 39 40 35 33 33 30 31 20 28 33 32 29 30 31
48 50 50 50 49 49 49 49 49 49 48 42 40 41 38 30 36 37 38 36 37 39 37 39 41 41 41 40 38 36 35 36 37 38 39 39 34 31 28 26 27 29 30 29 29 26 31
48 49 49 49 48 48 48 48 49 49 49 43 40 40 40 37 34 40 36 38 34 34 35 37 41 41 41 37 35 30 28 32 31 35 41 38 37 32 31 26 21 26 32 36 36 24 32
48 49 49 49 48 48 48 48 49 49 49 44 40 41 41 33 37 40 36 35 36 35 33 34 36 37 38 33 31 30 29 35 28 28 29 31 31 27 29 26 26 30 33 37 25 26 32
48 49 49 48 48 48 48 48 49 49 49 44 40 42 41 34 37 41 42 36 36 36 31 35 33 34 32 30 31 30 30 32 31 32 30 28 27 26 28 25 22 33 33 29 31 33 33
48 48 48 48 48 48 48 48 49 49 49 46 39 42 42 38 38 40 42 44 44 42 36 35 35 34 35 32 32 33 30 31 31 24 35 28 31 29 28 26 31 31 31 35 36 34 33

GFSGBSN_sfc_temp_126.txt.gz
Temp
61 61 63 63 63 62 62 62 60 59 59 59 59 59 59 58 58 57 57 56 56 56 56 56 57 57 63 65 63 71 64 69 73 72 69 67 64 64 60 61 63 61 64 64 65 65 65
60 60 60 62 62 62 62 62 60 59 59 58 58 58 57 57 57 57 56 56 55 55 56 56 57 56 63 60 71 71 71 72 72 72 69 69 65 65 61 60 59 62 61 62 65 64 66
60 60 60 59 60 62 61 61 60 59 59 58 57 57 57 57 57 56 56 55 55 55 55 56 57 61 59 62 72 73 70 70 71 70 66 69 69 64 62 59 62 60 56 62 64 62 62
60 59 59 59 59 59 59 60 60 60 59 58 58 57 56 56 56 55 55 55 55 55 56 56 56 60 60 68 73 70 72 70 72 71 68 69 69 65 61 63 60 56 58 53 58 62 62
59 59 59 59 58 58 58 59 59 59 59 58 57 55 55 55 55 54 54 54 55 57 56 57 59 57 58 67 66 70 71 66 68 69 68 69 67 61 60 56 55 55 50 52 54 60 59
60 60 59 59 58 58 58 58 58 58 59 57 56 56 55 54 54 54 54 54 56 57 60 63 62 55 62 61 66 67 71 68 64 64 63 62 63 57 58 56 48 49 49 52 51 57 58
59 59 59 59 58 57 58 58 59 59 58 57 56 56 55 54 54 54 55 61 58 55 57 59 59 57 60 65 66 65 68 65 64 61 55 57 54 52 54 54 53 50 48 48 54 58 53
57 57 58 58 58 58 57 58 58 59 58 56 56 55 55 54 54 54 55 56 61 58 55 56 57 57 59 62 57 62 67 58 56 52 52 52 50 53 52 51 49 49 46 48 54 55 53
56 56 56 57 57 57 57 57 57 58 57 55 55 54 54 54 54 51 54 56 63 59 54 53 57 58 59 61 56 58 62 58 53 49 50 48 52 52 50 50 47 49 46 47 46 52 55
55 55 55 55 56 56 57 57 57 58 56 55 55 54 53 53 49 51 50 57 57 57 45 51 52 57 59 60 53 63 63 57 52 47 48 49 52 49 48 46 48 43 52 48 46 45 41
55 55 54 54 54 54 55 55 56 57 58 55 54 53 53 56 49 48 52 54 56 57 30 52 52 66 61 55 56 55 62 57 49 49 48 48 48 47 45 47 49 46 49 47 47 45 45
54 54 53 53 53 54 54 55 55 57 57 55 53 53 53 52 55 51 54 52 53 35 30 43 52 50 51 52 52 55 55 58 55 48 50 50 55 50 51 51 50 52 47 48 48 45 36
54 53 52 52 52 54 55 55 56 56 55 53 52 52 54 52 53 53 52 47 33 31 46 41 45 49 50 46 47 49 48 48 48 42 44 48 48 51 52 48 50 47 43 38 34 33 36
53 53 51 51 53 55 55 55 56 55 53 52 52 52 52 52 55 51 50 38 31 44 45 50 48 48 44 45 45 45 45 45 47 45 45 41 39 48 53 50 46 46 45 38 27 33 37
53 52 50 54 55 56 55 55 55 52 51 52 51 46 46 46 50 52 40 30 39 45 46 42 44 42 39 42 43 43 45 45 45 45 34 35 40 52 52 54 51 43 39 49 38 41 35
52 51 49 53 55 55 55 55 53 51 51 51 43 43 43 48 53 50 41 36 43 49 50 49 39 43 36 41 37 42 43 46 44 48 49 43 32 48 50 53 54 48 50 36 39 28 27
51 51 49 52 54 54 54 52 51 51 51 51 43 36 44 51 52 45 35 44 46 51 51 44 39 38 39 35 39 41 41 45 49 47 50 45 38 42 49 44 40 40 41 43 43 41 31
50 50 49 48 52 51 51 51 50 51 50 48 40 32 44 52 38 42 41 47 48 46 50 46 46 43 37 37 38 37 39 43 51 49 43 46 37 33 40 52 52 49 44 45 35 34 40
49 50 50 48 48 50 51 50 50 51 52 43 35 35 44 46 31 36 44 46 49 47 47 45 43 42 41 33 32 33 40 48 49 47 45 44 36 37 40 44 49 43 42 44 42 42 33
48 48 49 49 48 47 48 49 49 48 48 45 37 31 36 39 41 42 41 41 40 50 46 46 43 42 39 32 33 31 38 45 47 48 46 45 41 34 31 29 36 33 38 45 40 34 32
48 47 48 48 48 48 48 48 48 48 48 45 38 36 40 31 36 41 44 44 40 40 46 48 40 42 39 31 34 32 39 44 46 46 48 44 33 34 36 36 36 30 31 34 32 32 30
48 48 47 47 47 48 48 48 48 48 48 47 35 37 44 43 43 43 43 43 43 42 43 40 42 44 43 40 41 35 40 43 43 48 46 44 35 34 31 35 35 28 30 32 32 32 30
48 48 47 48 47 47 47 47 48 48 49 45 46 47 48 41 43 43 43 44 43 44 45 49 47 43 41 45 48 49 50 48 48 45 41 41 37 37 31 33 34 28 28 30 32 35 35
48 48 48 48 48 49 49 49 48 49 48 46 46 51 46 39 46 45 45 46 44 45 43 46 47 45 46 50 48 47 46 46 46 47 47 41 39 38 35 33 25 29 34 34 32 33 36
49 50 49 49 49 49 49 49 49 49 48 50 50 52 50 41 48 45 46 45 46 47 45 43 44 47 49 48 44 40 41 41 43 46 46 46 40 36 32 33 30 31 35 32 31 29 35
49 50 49 49 49 48 48 49 49 49 48 52 50 51 55 47 45 50 44 46 43 43 42 41 46 48 48 48 43 36 34 40 37 39 46 44 44 35 36 29 26 32 36 38 40 29 36
48 49 49 49 48 48 48 49 49 49 49 54 49 49 54 42 46 50 45 43 47 46 43 43 43 43 46 43 38 37 37 43 36 35 35 39 39 34 35 32 31 36 37 40 28 27 37
48 49 48 48 48 48 48 49 49 49 49 53 48 51 55 45 44 48 48 45 44 47 41 42 41 41 41 39 40 40 39 40 38 39 37 36 34 34 34 30 27 36 36 33 34 39 40
48 48 48 48 48 48 48 49 49 49 49 51 49 53 56 50 45 49 48 49 51 50 46 43 43 42 46 43 44 44 38 39 40 30 42 34 39 38 32 30 35 37 36 42 43 39 39

GFSGBSN_sfc_temp_129.txt.gz
Temp
61 61 61 61 62 62 62 62 61 60 60 60 60 60 60 60 59 58 58 57 57 57 57 57 57 58 66 68 71 77 67 70 77 78 75 73 71 70 67 70 71 68 71 72 72 71 71
61 61 61 60 60 62 62 62 61 60 59 59 59 59 59 59 59 58 57 57 56 56 56 57 57 56 67 62 78 78 77 78 78 78 74 75 72 72 68 68 67 71 68 69 71 71 72
61 60 60 59 59 59 60 61 60 60 59 59 58 58 58 58 58 57 57 56 56 56 56 57 57 66 65 68 79 81 77 76 77 76 72 74 75 70 70 66 70 67 62 68 71 69 67
60 60 60 59 59 58 58 58 59 60 59 59 58 57 57 57 57 56 56 55 55 56 56 57 57 68 65 76 80 75 78 76 77 77 74 75 75 70 67 71 66 63 65 59 66 67 69
60 60 60 59 58 58 58 58 58 59 59 59 58 57 56 56 55 55 55 55 55 57 57 57 62 65 65 68 71 77 77 71 73 74 74 74 72 68 68 61 62 65 58 60 63 71 67
59 59 59 59 59 59 58 58 58 58 58 58 58 57 56 54 54 54 54 55 57 56 62 69 70 60 66 65 73 73 77 74 70 69 67 66 67 63 65 62 53 56 56 59 58 66 65
58 58 58 58 59 59 59 58 58 57 57 58 58 56 55 54 54 54 53 57 55 60 64 66 66 65 68 73 74 71 74 71 70 66 60 65 59 58 62 61 59 57 55 55 61 66 60
57 57 57 58 58 58 59 59 58 57 57 58 57 56 55 54 54 54 55 54 56 56 56 67 66 65 68 72 63 68 74 64 62 58 62 58 55 62 59 58 55 55 53 54 61 63 60
56 56 57 57 57 57 58 58 57 57 57 57 57 56 55 53 54 53 56 56 60 60 49 62 65 65 65 68 64 65 69 65 60 58 59 56 60 58 56 56 54 56 53 53 53 58 61
56 55 56 56 56 57 56 56 56 56 57 56 57 55 53 53 49 58 52 58 56 56 35 50 55 63 65 67 59 71 71 65 58 55 58 57 62 55 55 53 55 49 57 54 52 51 47
55 55 55 55 55 55 54 54 55 55 55 56 56 54 52 53 56 55 60 59 55 59 25 52 58 72 68 60 61 61 69 62 56 57 55 55 55 54 52 54 55 51 56 53 52 50 51
55 55 55 54 55 54 54 54 54 54 55 56 55 53 53 53 58 60 58 56 51 32 25 46 56 53 55 59 59 62 60 64 63 56 58 58 63 57 58 57 56 57 53 54 54 52 42
54 54 54 54 54 54 53 53 53 54 54 55 54 53 53 59 51 56 60 50 30 27 51 47 48 53 54 51 53 56 53 52 52 45 47 55 56 59 58 53 58 54 50 41 39 40 40
54 54 54 54 54 53 53 53 55 55 54 55 53 53 55 58 56 53 57 40 26 46 47 54 53 52 48 52 51 53 52 52 56 54 52 48 42 54 58 55 52 52 50 41 32 37 42
53 53 53 53 52 53 54 55 56 54 54 54 52 47 50 49 53 51 42 31 38 48 49 49 49 45 46 48 48 49 50 52 55 54 45 44 46 59 58 59 56 48 44 54 42 45 39
53 52 52 52 52 53 54 54 55 54 54 52 45 44 43 51 52 48 37 37 48 56 57 54 43 48 39 44 41 45 48 56 50 55 55 49 39 53 57 58 58 53 55 40 42 31 31
51 52 51 51 52 52 54 55 54 54 52 53 45 38 44 51 49 41 32 39 49 55 56 48 46 44 44 43 43 44 48 52 55 53 56 50 44 47 53 50 48 47 45 44 48 44 33
51 50 51 50 51 53 54 53 52 51 52 51 43 31 44 48 34 36 35 49 53 52 52 48 52 49 44 44 42 45 46 48 58 57 47 50 40 36 46 56 57 52 47 45 38 38 42
50 50 50 50 51 51 51 51 51 52 53 43 35 35 44 45 33 34 47 47 53 50 49 48 43 43 47 37 33 36 48 54 55 53 49 50 39 38 41 47 54 47 48 47 43 39 35
49 49 49 50 50 50 51 51 51 50 51 45 37 30 35 36 39 43 44 45 46 54 52 53 49 43 40 35 38 34 44 49 53 53 47 48 46 40 37 35 42 37 41 44 44 34 33
49 48 48 49 49 48 48 48 48 48 48 45 40 39 44 32 36 44 47 46 44 45 51 52 43 45 41 33 39 36 47 47 50 48 50 47 37 37 42 42 40 33 34 35 35 35 32
49 48 48 48 49 48 48 48 48 48 47 43 34 41 47 44 44 42 42 41 42 45 46 44 45 49 49 42 43 38 42 47 46 51 45 48 34 35 32 39 39 30 33 33 36 35 33
49 48 48 47 48 48 48 47 48 47 47 42 45 52 47 38 39 37 36 41 43 46 48 50 50 48 47 49 54 55 56 54 53 49 47 43 41 38 33 36 38 32 29 32 36 40 39
49 48 48 48 47 48 48 48 47 48 49 53 52 49 43 34 37 39 44 47 47 47 46 53 53 49 51 56 55 53 52 52 51 51 53 47 44 43 35 37 26 30 41 41 36 36 39
48 48 48 48 47 47 47 47 48 49 49 53 53 51 48 37 43 45 47 49 51 51 50 50 52 54 56 53 48 43 42 43 46 51 49 52 47 39 35 35 31 32 37 37 36 32 39
49 50 49 48 48 47 47 47 49 49 50 53 53 53 55 46 43 51 49 50 45 46 45 44 51 54 53 51 46 39 36 43 40 41 51 50 49 41 40 33 28 38 45 47 45 31 43
49 49 49 49 48 48 48 49 49 50 50 53 58 56 58 51 57 56 50 48 54 49 45 46 47 48 52 46 40 41 40 49 39 39 38 40 43 36 38 36 35 44 44 45 29 30 42
49 49 49 49 48 48 49 49 49 49 50 54 55 58 60 50 52 55 55 50 52 53 45 48 45 46 45 42 43 44 42 44 42 46 43 42 39 35 38 35 29 44 41 34 38 43 44
48 48 48 48 48 48 49 49 49 49 50 51 55 62 65 56 49 54 54 56 56 56 54 50 49 49 51 47 48 49 42 44 45 34 47 38 45 40 37 32 36 41 41 46 47 44 44

GFSGBSN_sfc_temp_132.txt.gz
Temp
61 61 61 61 61 60 62 62 61 60 59 60 60 60 60 60 60 59 59 58 57 57 57 57 58 58 61 67 71 76 69 69 75 79 75 73 70 71 65 70 72 68 70 73 75 73 72
61 61 61 60 60 60 60 62 61 60 59 59 59 59 59 60 60 59 58 57 57 57 57 57 58 58 62 60 81 81 79 78 79 77 76 75 72 73 66 67 66 71 70 69 71 71 72
61 61 61 60 59 59 59 59 59 60 59 59 59 58 58 58 59 59 58 57 56 56 57 57 58 62 63 66 82 83 79 78 78 77 72 77 75 69 70 65 72 69 62 66 69 71 68
60 60 60 60 59 59 58 58 58 58 59 59 59 58 57 57 57 57 57 56 56 56 57 58 58 63 60 80 83 78 80 77 79 78 76 77 75 69 66 70 66 61 62 55 67 69 70
59 59 60 59 59 58 58 58 58 58 58 59 59 58 57 56 56 56 56 56 56 57 58 59 60 62 61 70 71 78 79 73 76 76 75 77 72 65 67 59 57 63 54 59 64 72 70
59 59 59 59 59 59 59 58 58 57 57 57 58 57 56 56 55 55 55 55 58 57 60 69 69 61 68 66 75 77 79 75 71 71 68 66 64 59 61 58 48 54 55 58 57 66 66
59 58 58 58 58 58 59 59 58 57 57 57 57 58 56 55 55 54 54 55 54 56 59 62 66 64 70 76 77 72 77 72 70 66 57 65 57 55 60 62 60 58 55 54 60 67 62
58 58 58 58 58 58 59 59 58 57 57 57 57 57 57 55 54 54 55 53 56 56 51 65 65 68 74 76 65 69 77 64 63 56 64 60 52 62 63 60 58 57 53 54 60 65 61
57 57 57 58 57 58 58 58 57 57 57 57 57 57 56 54 53 52 54 55 62 62 46 55 65 66 68 70 63 67 70 66 61 58 59 55 61 63 59 58 55 56 54 54 53 58 60
56 56 56 56 57 57 57 57 57 57 56 56 56 56 55 53 48 53 49 60 65 62 35 46 57 64 68 67 59 73 73 67 61 56 60 59 65 60 57 55 58 50 59 55 53 50 44
56 56 55 56 56 55 55 56 56 56 55 55 55 56 54 55 55 50 56 61 60 58 27 55 58 74 70 59 64 65 73 65 55 57 58 54 58 55 53 56 59 53 58 54 52 49 48
56 55 55 55 55 55 55 55 55 55 55 55 55 55 53 53 55 57 60 60 53 34 26 46 59 56 57 59 61 65 62 65 65 58 60 57 66 60 59 62 59 59 54 54 54 50 39
55 55 54 54 54 54 54 54 54 54 54 54 54 55 52 59 50 60 58 51 32 28 52 48 49 54 54 53 55 58 53 51 50 43 45 54 56 62 62 54 59 55 49 39 38 37 37
54 54 54 53 53 53 54 54 54 53 54 53 54 54 53 60 61 57 53 39 27 45 47 56 54 52 48 53 53 55 52 48 55 54 48 46 43 56 60 55 54 52 51 39 31 35 39
54 54 53 53 53 53 53 53 53 53 54 54 54 50 48 55 58 56 43 31 36 46 56 52 53 47 46 53 51 51 49 50 54 55 44 43 48 62 60 60 58 51 45 54 42 44 37
54 53 53 52 52 52 52 52 53 53 54 55 48 46 45 53 57 49 38 35 42 55 56 57 45 50 42 48 44 46 47 55 53 58 58 50 39 56 58 60 59 53 57 41 43 30 30
53 52 52 52 51 51 52 52 53 54 54 54 46 39 46 52 50 40 33 38 45 54 57 49 50 46 48 45 45 44 47 54 57 53 55 51 44 47 55 50 48 49 46 47 46 42 31
52 51 51 51 51 51 52 53 53 54 53 50 43 32 46 49 35 37 35 43 49 53 58 57 56 52 48 47 43 43 44 50 59 56 47 52 41 35 46 58 60 55 49 47 34 36 41
51 51 50 50 51 51 51 52 54 53 52 45 36 37 46 46 33 32 42 43 50 51 54 53 50 53 51 39 34 37 47 56 58 55 49 50 38 35 41 48 54 49 49 49 45 38 33
51 50 50 50 50 49 50 49 51 51 52 46 37 30 35 39 37 41 38 41 42 55 53 51 49 46 43 37 40 34 40 51 55 54 48 50 45 40 31 36 44 40 42 44 42 33 35
51 50 49 50 48 49 49 49 48 48 49 46 42 36 40 30 32 40 45 43 44 44 52 54 45 43 39 32 36 36 46 47 51 48 50 48 37 39 43 43 41 35 36 36 35 36 33
50 50 49 49 48 48 48 48 48 48 49 43 36 40 45 42 41 40 41 41 45 47 48 47 44 46 44 38 40 35 42 46 44 49 47 48 38 35 31 40 40 31 32 31 38 37 35
50 49 48 49 49 48 47 47 48 48 48 42 49 58 51 42 42 39 38 43 44 48 50 52 49 47 46 51 53 54 55 54 53 47 44 44 41 37 32 36 39 30 30 34 38 41 39
50 49 49 49 48 48 47 47 47 47 47 46 47 49 45 37 41 41 44 47 45 46 43 50 51 48 50 56 56 55 53 52 53 51 50 44 43 42 35 35 25 31 43 43 38 38 39
49 49 49 49 48 47 47 47 47 48 48 46 47 45 40 35 42 39 43 42 42 46 44 47 54 56 55 52 44 41 41 43 46 51 51 52 45 37 33 33 31 33 40 39 37 34 41
49 49 48 49 48 48 47 46 47 49 50 47 53 53 48 39 37 45 41 42 38 41 45 44 53 56 53 48 44 36 33 40 39 44 52 50 50 39 38 31 28 37 45 50 48 32 43
49 49 48 48 48 47 46 46 47 49 49 49 50 54 48 44 48 50 45 43 50 47 41 44 45 46 51 43 39 38 39 49 37 37 38 39 41 35 36 35 33 45 47 49 30 32 44
49 49 49 48 47 47 47 48 48 49 50 50 53 55 52 46 49 56 56 50 52 50 40 46 45 47 43 41 41 42 41 45 43 47 41 39 37 36 39 34 26 47 43 35 39 45 46
48 48 48 48 48 47 48 48 49 50 50 51 49 55 58 51 46 54 53 56 57 56 53 50 49 48 49 45 47 48 42 43 44 35 49 38 44 37 34 32 39 42 41 47 48 44 44